<?xml version="1.0" encoding="UTF-8" standalone="no" ?>
<gpx xmlns="http://www.topografix.com/GPX/1/1" xmlns:xsi="http://www.w3.org/2001/XMLSchema-instance" xsi:schemaLocation="http://www.topografix.com/GPX/1/1 http://www.topografix.com/GPX/1/1/gpx.xsd" version="1.1" creator="VisuGPX - https://www.visugpx.com">
  <metadata>
    <name>tarsacq 64</name>
    <desc><![CDATA[petite boucle dans les coteaux d\'Arbus]]></desc>
  </metadata>
  <trk>
    <name><![CDATA[tarsacq 64_1]]></name>
    <trkseg>
      <trkpt lat="43.35759" lon="-0.53803">
        <ele>124</ele>
        <time>2013-02-10T07:48:35</time>
      </trkpt>
      <trkpt lat="43.35759" lon="-0.53803">
        <ele>124</ele>
        <time>2013-02-10T07:48:40</time>
      </trkpt>
      <trkpt lat="43.35759" lon="-0.53803">
        <ele>124</ele>
        <time>2013-02-10T07:48:50</time>
      </trkpt>
      <trkpt lat="43.35759" lon="-0.53803">
        <ele>124</ele>
        <time>2013-02-10T07:48:55</time>
      </trkpt>
      <trkpt lat="43.35759" lon="-0.53803">
        <ele>123</ele>
        <time>2013-02-10T07:49:00</time>
      </trkpt>
      <trkpt lat="43.35759" lon="-0.53803">
        <ele>124</ele>
        <time>2013-02-10T07:49:05</time>
      </trkpt>
      <trkpt lat="43.35759" lon="-0.53803">
        <ele>123</ele>
        <time>2013-02-10T07:49:10</time>
      </trkpt>
      <trkpt lat="43.35759" lon="-0.53803">
        <ele>123</ele>
        <time>2013-02-10T07:49:15</time>
      </trkpt>
      <trkpt lat="43.35759" lon="-0.53803">
        <ele>120</ele>
        <time>2013-02-10T07:49:20</time>
      </trkpt>
      <trkpt lat="43.35759" lon="-0.53803">
        <ele>124</ele>
        <time>2013-02-10T07:49:25</time>
      </trkpt>
      <trkpt lat="43.35759" lon="-0.53803">
        <ele>126</ele>
        <time>2013-02-10T07:49:30</time>
      </trkpt>
      <trkpt lat="43.35759" lon="-0.53803">
        <ele>125</ele>
        <time>2013-02-10T07:49:35</time>
      </trkpt>
      <trkpt lat="43.35759" lon="-0.53803">
        <ele>123</ele>
        <time>2013-02-10T07:49:40</time>
      </trkpt>
      <trkpt lat="43.35759" lon="-0.53803">
        <ele>124</ele>
        <time>2013-02-10T07:49:45</time>
      </trkpt>
      <trkpt lat="43.35759" lon="-0.53803">
        <ele>124</ele>
        <time>2013-02-10T07:49:50</time>
      </trkpt>
      <trkpt lat="43.35759" lon="-0.53803">
        <ele>124</ele>
        <time>2013-02-10T07:49:55</time>
      </trkpt>
      <trkpt lat="43.35771" lon="-0.53806">
        <ele>123</ele>
        <time>2013-02-10T07:50:00</time>
      </trkpt>
      <trkpt lat="43.3577" lon="-0.53804">
        <ele>122</ele>
        <time>2013-02-10T07:50:05</time>
      </trkpt>
      <trkpt lat="43.3577" lon="-0.53804">
        <ele>124</ele>
        <time>2013-02-10T07:50:11</time>
      </trkpt>
      <trkpt lat="43.3577" lon="-0.53804">
        <ele>123</ele>
        <time>2013-02-10T07:50:16</time>
      </trkpt>
      <trkpt lat="43.3577" lon="-0.53804">
        <ele>121</ele>
        <time>2013-02-10T07:50:21</time>
      </trkpt>
      <trkpt lat="43.3577" lon="-0.53804">
        <ele>120</ele>
        <time>2013-02-10T07:50:26</time>
      </trkpt>
      <trkpt lat="43.3577" lon="-0.53804">
        <ele>123</ele>
        <time>2013-02-10T07:50:31</time>
      </trkpt>
      <trkpt lat="43.3577" lon="-0.53804">
        <ele>125</ele>
        <time>2013-02-10T07:50:36</time>
      </trkpt>
      <trkpt lat="43.3577" lon="-0.53804">
        <ele>122</ele>
        <time>2013-02-10T07:50:41</time>
      </trkpt>
      <trkpt lat="43.35761" lon="-0.53785">
        <ele>123</ele>
        <time>2013-02-10T07:50:46</time>
      </trkpt>
      <trkpt lat="43.35746" lon="-0.53764">
        <ele>124</ele>
        <time>2013-02-10T07:50:51</time>
      </trkpt>
      <trkpt lat="43.35737" lon="-0.53749">
        <ele>125</ele>
        <time>2013-02-10T07:50:56</time>
      </trkpt>
      <trkpt lat="43.35726" lon="-0.53728">
        <ele>123</ele>
        <time>2013-02-10T07:51:01</time>
      </trkpt>
      <trkpt lat="43.35717" lon="-0.53708">
        <ele>124</ele>
        <time>2013-02-10T07:51:06</time>
      </trkpt>
      <trkpt lat="43.35712" lon="-0.5368">
        <ele>124</ele>
        <time>2013-02-10T07:51:11</time>
      </trkpt>
      <trkpt lat="43.3571" lon="-0.5365">
        <ele>123</ele>
        <time>2013-02-10T07:51:16</time>
      </trkpt>
      <trkpt lat="43.35707" lon="-0.53612">
        <ele>122</ele>
        <time>2013-02-10T07:51:21</time>
      </trkpt>
      <trkpt lat="43.35705" lon="-0.53585">
        <ele>125</ele>
        <time>2013-02-10T07:51:26</time>
      </trkpt>
      <trkpt lat="43.35701" lon="-0.53553">
        <ele>124</ele>
        <time>2013-02-10T07:51:31</time>
      </trkpt>
      <trkpt lat="43.35697" lon="-0.53522">
        <ele>126</ele>
        <time>2013-02-10T07:51:36</time>
      </trkpt>
      <trkpt lat="43.35688" lon="-0.53491">
        <ele>125</ele>
        <time>2013-02-10T07:51:41</time>
      </trkpt>
      <trkpt lat="43.35675" lon="-0.53462">
        <ele>126</ele>
        <time>2013-02-10T07:51:46</time>
      </trkpt>
      <trkpt lat="43.35658" lon="-0.53429">
        <ele>127</ele>
        <time>2013-02-10T07:51:51</time>
      </trkpt>
      <trkpt lat="43.35643" lon="-0.53401">
        <ele>124</ele>
        <time>2013-02-10T07:51:56</time>
      </trkpt>
      <trkpt lat="43.35633" lon="-0.53384">
        <ele>125</ele>
        <time>2013-02-10T07:52:02</time>
      </trkpt>
      <trkpt lat="43.35615" lon="-0.53352">
        <ele>125</ele>
        <time>2013-02-10T07:52:07</time>
      </trkpt>
      <trkpt lat="43.35598" lon="-0.5332">
        <ele>126</ele>
        <time>2013-02-10T07:52:12</time>
      </trkpt>
      <trkpt lat="43.35583" lon="-0.53293">
        <ele>126</ele>
        <time>2013-02-10T07:52:17</time>
      </trkpt>
      <trkpt lat="43.35572" lon="-0.53262">
        <ele>126</ele>
        <time>2013-02-10T07:52:22</time>
      </trkpt>
      <trkpt lat="43.35564" lon="-0.5323">
        <ele>125</ele>
        <time>2013-02-10T07:52:27</time>
      </trkpt>
      <trkpt lat="43.35558" lon="-0.53195">
        <ele>125</ele>
        <time>2013-02-10T07:52:32</time>
      </trkpt>
      <trkpt lat="43.35552" lon="-0.53162">
        <ele>126</ele>
        <time>2013-02-10T07:52:37</time>
      </trkpt>
      <trkpt lat="43.35545" lon="-0.5313">
        <ele>125</ele>
        <time>2013-02-10T07:52:42</time>
      </trkpt>
      <trkpt lat="43.35538" lon="-0.53091">
        <ele>127</ele>
        <time>2013-02-10T07:52:47</time>
      </trkpt>
      <trkpt lat="43.35529" lon="-0.5306">
        <ele>127</ele>
        <time>2013-02-10T07:52:52</time>
      </trkpt>
      <trkpt lat="43.35516" lon="-0.5303">
        <ele>128</ele>
        <time>2013-02-10T07:52:57</time>
      </trkpt>
      <trkpt lat="43.35503" lon="-0.53009">
        <ele>128</ele>
        <time>2013-02-10T07:53:02</time>
      </trkpt>
      <trkpt lat="43.35484" lon="-0.52985">
        <ele>126</ele>
        <time>2013-02-10T07:53:07</time>
      </trkpt>
      <trkpt lat="43.35466" lon="-0.52962">
        <ele>126</ele>
        <time>2013-02-10T07:53:12</time>
      </trkpt>
      <trkpt lat="43.35448" lon="-0.52937">
        <ele>127</ele>
        <time>2013-02-10T07:53:17</time>
      </trkpt>
      <trkpt lat="43.35427" lon="-0.52908">
        <ele>126</ele>
        <time>2013-02-10T07:53:22</time>
      </trkpt>
      <trkpt lat="43.35409" lon="-0.52885">
        <ele>128</ele>
        <time>2013-02-10T07:53:27</time>
      </trkpt>
      <trkpt lat="43.35391" lon="-0.52861">
        <ele>126</ele>
        <time>2013-02-10T07:53:32</time>
      </trkpt>
      <trkpt lat="43.35377" lon="-0.52842">
        <ele>128</ele>
        <time>2013-02-10T07:53:37</time>
      </trkpt>
      <trkpt lat="43.3536" lon="-0.52819">
        <ele>126</ele>
        <time>2013-02-10T07:53:42</time>
      </trkpt>
      <trkpt lat="43.35342" lon="-0.52796">
        <ele>127</ele>
        <time>2013-02-10T07:53:48</time>
      </trkpt>
      <trkpt lat="43.35324" lon="-0.52773">
        <ele>128</ele>
        <time>2013-02-10T07:53:53</time>
      </trkpt>
      <trkpt lat="43.35303" lon="-0.52745">
        <ele>128</ele>
        <time>2013-02-10T07:53:58</time>
      </trkpt>
      <trkpt lat="43.35285" lon="-0.52723">
        <ele>129</ele>
        <time>2013-02-10T07:54:03</time>
      </trkpt>
      <trkpt lat="43.35268" lon="-0.52699">
        <ele>127</ele>
        <time>2013-02-10T07:54:08</time>
      </trkpt>
      <trkpt lat="43.35253" lon="-0.5268">
        <ele>130</ele>
        <time>2013-02-10T07:54:13</time>
      </trkpt>
      <trkpt lat="43.35235" lon="-0.52657">
        <ele>128</ele>
        <time>2013-02-10T07:54:18</time>
      </trkpt>
      <trkpt lat="43.35214" lon="-0.52629">
        <ele>129</ele>
        <time>2013-02-10T07:54:23</time>
      </trkpt>
      <trkpt lat="43.35197" lon="-0.52607">
        <ele>129</ele>
        <time>2013-02-10T07:54:28</time>
      </trkpt>
      <trkpt lat="43.35176" lon="-0.52601">
        <ele>131</ele>
        <time>2013-02-10T07:54:33</time>
      </trkpt>
      <trkpt lat="43.35158" lon="-0.52621">
        <ele>128</ele>
        <time>2013-02-10T07:54:38</time>
      </trkpt>
      <trkpt lat="43.35134" lon="-0.52628">
        <ele>130</ele>
        <time>2013-02-10T07:54:43</time>
      </trkpt>
      <trkpt lat="43.35121" lon="-0.52649">
        <ele>128</ele>
        <time>2013-02-10T07:54:48</time>
      </trkpt>
      <trkpt lat="43.35102" lon="-0.52682">
        <ele>129</ele>
        <time>2013-02-10T07:54:53</time>
      </trkpt>
      <trkpt lat="43.35089" lon="-0.52711">
        <ele>129</ele>
        <time>2013-02-10T07:54:58</time>
      </trkpt>
      <trkpt lat="43.35076" lon="-0.52741">
        <ele>128</ele>
        <time>2013-02-10T07:55:03</time>
      </trkpt>
      <trkpt lat="43.35065" lon="-0.52765">
        <ele>128</ele>
        <time>2013-02-10T07:55:08</time>
      </trkpt>
      <trkpt lat="43.35049" lon="-0.52807">
        <ele>129</ele>
        <time>2013-02-10T07:55:13</time>
      </trkpt>
      <trkpt lat="43.35044" lon="-0.52826">
        <ele>129</ele>
        <time>2013-02-10T07:55:18</time>
      </trkpt>
      <trkpt lat="43.35038" lon="-0.5285">
        <ele>132</ele>
        <time>2013-02-10T07:55:23</time>
      </trkpt>
      <trkpt lat="43.35033" lon="-0.52868">
        <ele>135</ele>
        <time>2013-02-10T07:55:28</time>
      </trkpt>
      <trkpt lat="43.35025" lon="-0.52885">
        <ele>137</ele>
        <time>2013-02-10T07:55:33</time>
      </trkpt>
      <trkpt lat="43.35011" lon="-0.52885">
        <ele>135</ele>
        <time>2013-02-10T07:55:38</time>
      </trkpt>
      <trkpt lat="43.34996" lon="-0.52884">
        <ele>135</ele>
        <time>2013-02-10T07:55:43</time>
      </trkpt>
      <trkpt lat="43.34979" lon="-0.52877">
        <ele>135</ele>
        <time>2013-02-10T07:55:48</time>
      </trkpt>
      <trkpt lat="43.34961" lon="-0.52864">
        <ele>135</ele>
        <time>2013-02-10T07:55:53</time>
      </trkpt>
      <trkpt lat="43.34943" lon="-0.5286">
        <ele>135</ele>
        <time>2013-02-10T07:55:59</time>
      </trkpt>
      <trkpt lat="43.34926" lon="-0.52858">
        <ele>136</ele>
        <time>2013-02-10T07:56:04</time>
      </trkpt>
      <trkpt lat="43.34909" lon="-0.52855">
        <ele>138</ele>
        <time>2013-02-10T07:56:09</time>
      </trkpt>
      <trkpt lat="43.34895" lon="-0.52847">
        <ele>138</ele>
        <time>2013-02-10T07:56:14</time>
      </trkpt>
      <trkpt lat="43.3488" lon="-0.52832">
        <ele>139</ele>
        <time>2013-02-10T07:56:19</time>
      </trkpt>
      <trkpt lat="43.34857" lon="-0.5282">
        <ele>138</ele>
        <time>2013-02-10T07:56:24</time>
      </trkpt>
      <trkpt lat="43.34841" lon="-0.52801">
        <ele>139</ele>
        <time>2013-02-10T07:56:29</time>
      </trkpt>
      <trkpt lat="43.34831" lon="-0.5278">
        <ele>138</ele>
        <time>2013-02-10T07:56:34</time>
      </trkpt>
      <trkpt lat="43.34818" lon="-0.52763">
        <ele>139</ele>
        <time>2013-02-10T07:56:39</time>
      </trkpt>
      <trkpt lat="43.34805" lon="-0.52751">
        <ele>140</ele>
        <time>2013-02-10T07:56:44</time>
      </trkpt>
      <trkpt lat="43.34797" lon="-0.52742">
        <ele>142</ele>
        <time>2013-02-10T07:56:49</time>
      </trkpt>
      <trkpt lat="43.34786" lon="-0.52739">
        <ele>142</ele>
        <time>2013-02-10T07:56:54</time>
      </trkpt>
      <trkpt lat="43.34779" lon="-0.52742">
        <ele>145</ele>
        <time>2013-02-10T07:56:59</time>
      </trkpt>
      <trkpt lat="43.3477" lon="-0.52742">
        <ele>147</ele>
        <time>2013-02-10T07:57:04</time>
      </trkpt>
      <trkpt lat="43.3476" lon="-0.52739">
        <ele>148</ele>
        <time>2013-02-10T07:57:09</time>
      </trkpt>
      <trkpt lat="43.34749" lon="-0.52727">
        <ele>150</ele>
        <time>2013-02-10T07:57:14</time>
      </trkpt>
      <trkpt lat="43.3474" lon="-0.52715">
        <ele>150</ele>
        <time>2013-02-10T07:57:19</time>
      </trkpt>
      <trkpt lat="43.34729" lon="-0.52699">
        <ele>150</ele>
        <time>2013-02-10T07:57:24</time>
      </trkpt>
      <trkpt lat="43.34719" lon="-0.52684">
        <ele>151</ele>
        <time>2013-02-10T07:57:29</time>
      </trkpt>
      <trkpt lat="43.34713" lon="-0.52674">
        <ele>151</ele>
        <time>2013-02-10T07:57:34</time>
      </trkpt>
      <trkpt lat="43.34705" lon="-0.52662">
        <ele>154</ele>
        <time>2013-02-10T07:57:39</time>
      </trkpt>
      <trkpt lat="43.34696" lon="-0.52649">
        <ele>155</ele>
        <time>2013-02-10T07:57:44</time>
      </trkpt>
      <trkpt lat="43.3469" lon="-0.52646">
        <ele>155</ele>
        <time>2013-02-10T07:57:50</time>
      </trkpt>
      <trkpt lat="43.34683" lon="-0.52653">
        <ele>159</ele>
        <time>2013-02-10T07:57:55</time>
      </trkpt>
      <trkpt lat="43.3468" lon="-0.52664">
        <ele>160</ele>
        <time>2013-02-10T07:58:00</time>
      </trkpt>
      <trkpt lat="43.34678" lon="-0.52676">
        <ele>159</ele>
        <time>2013-02-10T07:58:05</time>
      </trkpt>
      <trkpt lat="43.34676" lon="-0.52689">
        <ele>162</ele>
        <time>2013-02-10T07:58:10</time>
      </trkpt>
      <trkpt lat="43.34673" lon="-0.52702">
        <ele>162</ele>
        <time>2013-02-10T07:58:15</time>
      </trkpt>
      <trkpt lat="43.34672" lon="-0.52714">
        <ele>163</ele>
        <time>2013-02-10T07:58:20</time>
      </trkpt>
      <trkpt lat="43.34672" lon="-0.52726">
        <ele>166</ele>
        <time>2013-02-10T07:58:25</time>
      </trkpt>
      <trkpt lat="43.34676" lon="-0.52737">
        <ele>166</ele>
        <time>2013-02-10T07:58:30</time>
      </trkpt>
      <trkpt lat="43.34681" lon="-0.52744">
        <ele>168</ele>
        <time>2013-02-10T07:58:35</time>
      </trkpt>
      <trkpt lat="43.34687" lon="-0.52752">
        <ele>170</ele>
        <time>2013-02-10T07:58:40</time>
      </trkpt>
      <trkpt lat="43.34694" lon="-0.52764">
        <ele>170</ele>
        <time>2013-02-10T07:58:45</time>
      </trkpt>
      <trkpt lat="43.34701" lon="-0.52779">
        <ele>170</ele>
        <time>2013-02-10T07:58:50</time>
      </trkpt>
      <trkpt lat="43.34709" lon="-0.52797">
        <ele>170</ele>
        <time>2013-02-10T07:58:55</time>
      </trkpt>
      <trkpt lat="43.34714" lon="-0.5281">
        <ele>171</ele>
        <time>2013-02-10T07:59:00</time>
      </trkpt>
      <trkpt lat="43.34721" lon="-0.52825">
        <ele>171</ele>
        <time>2013-02-10T07:59:05</time>
      </trkpt>
      <trkpt lat="43.34726" lon="-0.52839">
        <ele>172</ele>
        <time>2013-02-10T07:59:10</time>
      </trkpt>
      <trkpt lat="43.34733" lon="-0.52854">
        <ele>172</ele>
        <time>2013-02-10T07:59:15</time>
      </trkpt>
      <trkpt lat="43.34739" lon="-0.52871">
        <ele>172</ele>
        <time>2013-02-10T07:59:21</time>
      </trkpt>
      <trkpt lat="43.34744" lon="-0.52886">
        <ele>172</ele>
        <time>2013-02-10T07:59:26</time>
      </trkpt>
      <trkpt lat="43.34747" lon="-0.52899">
        <ele>172</ele>
        <time>2013-02-10T07:59:31</time>
      </trkpt>
      <trkpt lat="43.3475" lon="-0.5292">
        <ele>174</ele>
        <time>2013-02-10T07:59:36</time>
      </trkpt>
      <trkpt lat="43.34752" lon="-0.52937">
        <ele>176</ele>
        <time>2013-02-10T07:59:41</time>
      </trkpt>
      <trkpt lat="43.34753" lon="-0.52955">
        <ele>176</ele>
        <time>2013-02-10T07:59:46</time>
      </trkpt>
      <trkpt lat="43.34755" lon="-0.52967">
        <ele>174</ele>
        <time>2013-02-10T07:59:51</time>
      </trkpt>
      <trkpt lat="43.34762" lon="-0.52985">
        <ele>177</ele>
        <time>2013-02-10T07:59:56</time>
      </trkpt>
      <trkpt lat="43.34769" lon="-0.52996">
        <ele>177</ele>
        <time>2013-02-10T08:00:01</time>
      </trkpt>
      <trkpt lat="43.34778" lon="-0.53007">
        <ele>178</ele>
        <time>2013-02-10T08:00:06</time>
      </trkpt>
      <trkpt lat="43.34784" lon="-0.53021">
        <ele>179</ele>
        <time>2013-02-10T08:00:11</time>
      </trkpt>
      <trkpt lat="43.34787" lon="-0.53036">
        <ele>180</ele>
        <time>2013-02-10T08:00:16</time>
      </trkpt>
      <trkpt lat="43.3479" lon="-0.53049">
        <ele>182</ele>
        <time>2013-02-10T08:00:21</time>
      </trkpt>
      <trkpt lat="43.34795" lon="-0.5306">
        <ele>182</ele>
        <time>2013-02-10T08:00:26</time>
      </trkpt>
      <trkpt lat="43.34801" lon="-0.53072">
        <ele>184</ele>
        <time>2013-02-10T08:00:31</time>
      </trkpt>
      <trkpt lat="43.34806" lon="-0.53078">
        <ele>187</ele>
        <time>2013-02-10T08:00:36</time>
      </trkpt>
      <trkpt lat="43.34811" lon="-0.53086">
        <ele>188</ele>
        <time>2013-02-10T08:00:41</time>
      </trkpt>
      <trkpt lat="43.34815" lon="-0.53097">
        <ele>189</ele>
        <time>2013-02-10T08:00:46</time>
      </trkpt>
      <trkpt lat="43.34816" lon="-0.5311">
        <ele>192</ele>
        <time>2013-02-10T08:00:51</time>
      </trkpt>
      <trkpt lat="43.34817" lon="-0.53121">
        <ele>194</ele>
        <time>2013-02-10T08:00:56</time>
      </trkpt>
      <trkpt lat="43.34818" lon="-0.53135">
        <ele>194</ele>
        <time>2013-02-10T08:01:01</time>
      </trkpt>
      <trkpt lat="43.34819" lon="-0.53147">
        <ele>196</ele>
        <time>2013-02-10T08:01:06</time>
      </trkpt>
      <trkpt lat="43.34822" lon="-0.53157">
        <ele>198</ele>
        <time>2013-02-10T08:01:12</time>
      </trkpt>
      <trkpt lat="43.34822" lon="-0.53157">
        <ele>199</ele>
        <time>2013-02-10T08:01:17</time>
      </trkpt>
      <trkpt lat="43.34822" lon="-0.53157">
        <ele>198</ele>
        <time>2013-02-10T08:01:22</time>
      </trkpt>
      <trkpt lat="43.34822" lon="-0.53157">
        <ele>199</ele>
        <time>2013-02-10T08:01:27</time>
      </trkpt>
      <trkpt lat="43.34822" lon="-0.53157">
        <ele>198</ele>
        <time>2013-02-10T08:01:32</time>
      </trkpt>
      <trkpt lat="43.34822" lon="-0.53157">
        <ele>200</ele>
        <time>2013-02-10T08:01:37</time>
      </trkpt>
      <trkpt lat="43.34822" lon="-0.53157">
        <ele>199</ele>
        <time>2013-02-10T08:01:42</time>
      </trkpt>
      <trkpt lat="43.34822" lon="-0.53157">
        <ele>199</ele>
        <time>2013-02-10T08:01:47</time>
      </trkpt>
      <trkpt lat="43.34822" lon="-0.53157">
        <ele>199</ele>
        <time>2013-02-10T08:01:52</time>
      </trkpt>
      <trkpt lat="43.34822" lon="-0.53157">
        <ele>199</ele>
        <time>2013-02-10T08:01:57</time>
      </trkpt>
      <trkpt lat="43.34822" lon="-0.53157">
        <ele>200</ele>
        <time>2013-02-10T08:02:02</time>
      </trkpt>
      <trkpt lat="43.34822" lon="-0.53157">
        <ele>199</ele>
        <time>2013-02-10T08:02:07</time>
      </trkpt>
      <trkpt lat="43.34822" lon="-0.53157">
        <ele>199</ele>
        <time>2013-02-10T08:02:12</time>
      </trkpt>
      <trkpt lat="43.34822" lon="-0.53157">
        <ele>197</ele>
        <time>2013-02-10T08:02:17</time>
      </trkpt>
      <trkpt lat="43.34822" lon="-0.53157">
        <ele>198</ele>
        <time>2013-02-10T08:02:22</time>
      </trkpt>
      <trkpt lat="43.34822" lon="-0.53157">
        <ele>199</ele>
        <time>2013-02-10T08:02:27</time>
      </trkpt>
      <trkpt lat="43.34822" lon="-0.53157">
        <ele>202</ele>
        <time>2013-02-10T08:02:32</time>
      </trkpt>
      <trkpt lat="43.34822" lon="-0.53157">
        <ele>200</ele>
        <time>2013-02-10T08:02:37</time>
      </trkpt>
      <trkpt lat="43.34822" lon="-0.53157">
        <ele>200</ele>
        <time>2013-02-10T08:02:42</time>
      </trkpt>
      <trkpt lat="43.34822" lon="-0.53157">
        <ele>200</ele>
        <time>2013-02-10T08:02:47</time>
      </trkpt>
      <trkpt lat="43.34822" lon="-0.53157">
        <ele>200</ele>
        <time>2013-02-10T08:02:53</time>
      </trkpt>
      <trkpt lat="43.34822" lon="-0.53157">
        <ele>200</ele>
        <time>2013-02-10T08:02:58</time>
      </trkpt>
      <trkpt lat="43.34822" lon="-0.53157">
        <ele>200</ele>
        <time>2013-02-10T08:03:03</time>
      </trkpt>
      <trkpt lat="43.34822" lon="-0.53157">
        <ele>199</ele>
        <time>2013-02-10T08:03:08</time>
      </trkpt>
      <trkpt lat="43.34822" lon="-0.53157">
        <ele>199</ele>
        <time>2013-02-10T08:03:13</time>
      </trkpt>
      <trkpt lat="43.34822" lon="-0.53157">
        <ele>188</ele>
        <time>2013-02-10T08:03:18</time>
      </trkpt>
      <trkpt lat="43.34822" lon="-0.53157">
        <ele>194</ele>
        <time>2013-02-10T08:03:23</time>
      </trkpt>
      <trkpt lat="43.34822" lon="-0.53157">
        <ele>196</ele>
        <time>2013-02-10T08:03:28</time>
      </trkpt>
      <trkpt lat="43.34822" lon="-0.53157">
        <ele>196</ele>
        <time>2013-02-10T08:03:33</time>
      </trkpt>
      <trkpt lat="43.34822" lon="-0.53157">
        <ele>198</ele>
        <time>2013-02-10T08:03:38</time>
      </trkpt>
      <trkpt lat="43.34826" lon="-0.53163">
        <ele>199</ele>
        <time>2013-02-10T08:03:43</time>
      </trkpt>
      <trkpt lat="43.34837" lon="-0.53164">
        <ele>200</ele>
        <time>2013-02-10T08:03:48</time>
      </trkpt>
      <trkpt lat="43.34845" lon="-0.53164">
        <ele>200</ele>
        <time>2013-02-10T08:03:53</time>
      </trkpt>
      <trkpt lat="43.34846" lon="-0.53165">
        <ele>201</ele>
        <time>2013-02-10T08:03:58</time>
      </trkpt>
      <trkpt lat="43.34846" lon="-0.53165">
        <ele>199</ele>
        <time>2013-02-10T08:04:03</time>
      </trkpt>
      <trkpt lat="43.34846" lon="-0.53165">
        <ele>199</ele>
        <time>2013-02-10T08:04:08</time>
      </trkpt>
      <trkpt lat="43.3485" lon="-0.53169">
        <ele>198</ele>
        <time>2013-02-10T08:04:13</time>
      </trkpt>
      <trkpt lat="43.3486" lon="-0.5317">
        <ele>200</ele>
        <time>2013-02-10T08:04:18</time>
      </trkpt>
      <trkpt lat="43.34871" lon="-0.5317">
        <ele>201</ele>
        <time>2013-02-10T08:04:23</time>
      </trkpt>
      <trkpt lat="43.34887" lon="-0.5317">
        <ele>203</ele>
        <time>2013-02-10T08:04:28</time>
      </trkpt>
      <trkpt lat="43.349" lon="-0.5317">
        <ele>204</ele>
        <time>2013-02-10T08:04:33</time>
      </trkpt>
      <trkpt lat="43.34912" lon="-0.5317">
        <ele>205</ele>
        <time>2013-02-10T08:04:38</time>
      </trkpt>
      <trkpt lat="43.34921" lon="-0.53178">
        <ele>206</ele>
        <time>2013-02-10T08:04:43</time>
      </trkpt>
      <trkpt lat="43.34927" lon="-0.53184">
        <ele>207</ele>
        <time>2013-02-10T08:04:48</time>
      </trkpt>
      <trkpt lat="43.34936" lon="-0.53197">
        <ele>206</ele>
        <time>2013-02-10T08:04:53</time>
      </trkpt>
      <trkpt lat="43.34945" lon="-0.5321">
        <ele>207</ele>
        <time>2013-02-10T08:04:58</time>
      </trkpt>
      <trkpt lat="43.34956" lon="-0.53229">
        <ele>208</ele>
        <time>2013-02-10T08:05:04</time>
      </trkpt>
      <trkpt lat="43.34964" lon="-0.53243">
        <ele>207</ele>
        <time>2013-02-10T08:05:09</time>
      </trkpt>
      <trkpt lat="43.34973" lon="-0.53251">
        <ele>210</ele>
        <time>2013-02-10T08:05:14</time>
      </trkpt>
      <trkpt lat="43.34978" lon="-0.53263">
        <ele>213</ele>
        <time>2013-02-10T08:05:19</time>
      </trkpt>
      <trkpt lat="43.34985" lon="-0.53278">
        <ele>212</ele>
        <time>2013-02-10T08:05:24</time>
      </trkpt>
      <trkpt lat="43.34993" lon="-0.53284">
        <ele>214</ele>
        <time>2013-02-10T08:05:29</time>
      </trkpt>
      <trkpt lat="43.34999" lon="-0.53284">
        <ele>217</ele>
        <time>2013-02-10T08:05:34</time>
      </trkpt>
      <trkpt lat="43.35001" lon="-0.53283">
        <ele>219</ele>
        <time>2013-02-10T08:05:39</time>
      </trkpt>
      <trkpt lat="43.35001" lon="-0.53283">
        <ele>220</ele>
        <time>2013-02-10T08:05:44</time>
      </trkpt>
      <trkpt lat="43.35001" lon="-0.53283">
        <ele>222</ele>
        <time>2013-02-10T08:05:49</time>
      </trkpt>
      <trkpt lat="43.35001" lon="-0.53283">
        <ele>222</ele>
        <time>2013-02-10T08:05:54</time>
      </trkpt>
      <trkpt lat="43.3503" lon="-0.53308">
        <ele>225</ele>
        <time>2013-02-10T08:05:59</time>
      </trkpt>
      <trkpt lat="43.35034" lon="-0.53337">
        <ele>222</ele>
        <time>2013-02-10T08:06:04</time>
      </trkpt>
      <trkpt lat="43.35034" lon="-0.53354">
        <ele>218</ele>
        <time>2013-02-10T08:06:09</time>
      </trkpt>
      <trkpt lat="43.3504" lon="-0.53375">
        <ele>218</ele>
        <time>2013-02-10T08:06:14</time>
      </trkpt>
      <trkpt lat="43.35048" lon="-0.5341">
        <ele>217</ele>
        <time>2013-02-10T08:06:19</time>
      </trkpt>
      <trkpt lat="43.35054" lon="-0.53441">
        <ele>216</ele>
        <time>2013-02-10T08:06:24</time>
      </trkpt>
      <trkpt lat="43.35057" lon="-0.53464">
        <ele>217</ele>
        <time>2013-02-10T08:06:29</time>
      </trkpt>
      <trkpt lat="43.35059" lon="-0.53486">
        <ele>220</ele>
        <time>2013-02-10T08:06:34</time>
      </trkpt>
      <trkpt lat="43.35065" lon="-0.53507">
        <ele>220</ele>
        <time>2013-02-10T08:06:39</time>
      </trkpt>
      <trkpt lat="43.35071" lon="-0.53531">
        <ele>219</ele>
        <time>2013-02-10T08:06:44</time>
      </trkpt>
      <trkpt lat="43.35075" lon="-0.53551">
        <ele>217</ele>
        <time>2013-02-10T08:06:49</time>
      </trkpt>
      <trkpt lat="43.35075" lon="-0.53593">
        <ele>214</ele>
        <time>2013-02-10T08:06:54</time>
      </trkpt>
      <trkpt lat="43.35086" lon="-0.5362">
        <ele>210</ele>
        <time>2013-02-10T08:06:59</time>
      </trkpt>
      <trkpt lat="43.35103" lon="-0.53649">
        <ele>211</ele>
        <time>2013-02-10T08:07:05</time>
      </trkpt>
      <trkpt lat="43.35111" lon="-0.53673">
        <ele>213</ele>
        <time>2013-02-10T08:07:10</time>
      </trkpt>
      <trkpt lat="43.35098" lon="-0.53693">
        <ele>211</ele>
        <time>2013-02-10T08:07:15</time>
      </trkpt>
      <trkpt lat="43.35062" lon="-0.53707">
        <ele>199</ele>
        <time>2013-02-10T08:07:20</time>
      </trkpt>
      <trkpt lat="43.35043" lon="-0.53716">
        <ele>198</ele>
        <time>2013-02-10T08:07:25</time>
      </trkpt>
      <trkpt lat="43.35028" lon="-0.53722">
        <ele>195</ele>
        <time>2013-02-10T08:07:30</time>
      </trkpt>
      <trkpt lat="43.34993" lon="-0.53761">
        <ele>189</ele>
        <time>2013-02-10T08:07:35</time>
      </trkpt>
      <trkpt lat="43.34971" lon="-0.53805">
        <ele>182</ele>
        <time>2013-02-10T08:07:40</time>
      </trkpt>
      <trkpt lat="43.34972" lon="-0.53849">
        <ele>178</ele>
        <time>2013-02-10T08:07:45</time>
      </trkpt>
      <trkpt lat="43.34973" lon="-0.53879">
        <ele>179</ele>
        <time>2013-02-10T08:07:50</time>
      </trkpt>
      <trkpt lat="43.34976" lon="-0.53906">
        <ele>179</ele>
        <time>2013-02-10T08:07:55</time>
      </trkpt>
      <trkpt lat="43.34982" lon="-0.53931">
        <ele>180</ele>
        <time>2013-02-10T08:08:00</time>
      </trkpt>
      <trkpt lat="43.34988" lon="-0.53952">
        <ele>180</ele>
        <time>2013-02-10T08:08:05</time>
      </trkpt>
      <trkpt lat="43.34995" lon="-0.53977">
        <ele>183</ele>
        <time>2013-02-10T08:08:10</time>
      </trkpt>
      <trkpt lat="43.34999" lon="-0.54007">
        <ele>182</ele>
        <time>2013-02-10T08:08:15</time>
      </trkpt>
      <trkpt lat="43.34996" lon="-0.54045">
        <ele>180</ele>
        <time>2013-02-10T08:08:20</time>
      </trkpt>
      <trkpt lat="43.34991" lon="-0.54077">
        <ele>180</ele>
        <time>2013-02-10T08:08:25</time>
      </trkpt>
      <trkpt lat="43.3499" lon="-0.54103">
        <ele>180</ele>
        <time>2013-02-10T08:08:30</time>
      </trkpt>
      <trkpt lat="43.34988" lon="-0.54133">
        <ele>179</ele>
        <time>2013-02-10T08:08:35</time>
      </trkpt>
      <trkpt lat="43.34991" lon="-0.54162">
        <ele>180</ele>
        <time>2013-02-10T08:08:40</time>
      </trkpt>
      <trkpt lat="43.35" lon="-0.54191">
        <ele>180</ele>
        <time>2013-02-10T08:08:45</time>
      </trkpt>
      <trkpt lat="43.35004" lon="-0.54233">
        <ele>179</ele>
        <time>2013-02-10T08:08:50</time>
      </trkpt>
      <trkpt lat="43.3497" lon="-0.54277">
        <ele>175</ele>
        <time>2013-02-10T08:08:55</time>
      </trkpt>
      <trkpt lat="43.34924" lon="-0.54338">
        <ele>169</ele>
        <time>2013-02-10T08:09:00</time>
      </trkpt>
      <trkpt lat="43.34883" lon="-0.54374">
        <ele>165</ele>
        <time>2013-02-10T08:09:05</time>
      </trkpt>
      <trkpt lat="43.34842" lon="-0.54397">
        <ele>163</ele>
        <time>2013-02-10T08:09:11</time>
      </trkpt>
      <trkpt lat="43.3481" lon="-0.54433">
        <ele>160</ele>
        <time>2013-02-10T08:09:16</time>
      </trkpt>
      <trkpt lat="43.34779" lon="-0.54474">
        <ele>157</ele>
        <time>2013-02-10T08:09:21</time>
      </trkpt>
      <trkpt lat="43.34757" lon="-0.54495">
        <ele>152</ele>
        <time>2013-02-10T08:09:26</time>
      </trkpt>
      <trkpt lat="43.34712" lon="-0.54549">
        <ele>150</ele>
        <time>2013-02-10T08:09:31</time>
      </trkpt>
      <trkpt lat="43.34668" lon="-0.54604">
        <ele>145</ele>
        <time>2013-02-10T08:09:36</time>
      </trkpt>
      <trkpt lat="43.3465" lon="-0.54649">
        <ele>140</ele>
        <time>2013-02-10T08:09:41</time>
      </trkpt>
      <trkpt lat="43.34644" lon="-0.54668">
        <ele>138</ele>
        <time>2013-02-10T08:09:46</time>
      </trkpt>
      <trkpt lat="43.34617" lon="-0.5466">
        <ele>137</ele>
        <time>2013-02-10T08:09:51</time>
      </trkpt>
      <trkpt lat="43.346" lon="-0.54624">
        <ele>134</ele>
        <time>2013-02-10T08:09:56</time>
      </trkpt>
      <trkpt lat="43.34592" lon="-0.54595">
        <ele>134</ele>
        <time>2013-02-10T08:10:01</time>
      </trkpt>
      <trkpt lat="43.34578" lon="-0.54561">
        <ele>133</ele>
        <time>2013-02-10T08:10:06</time>
      </trkpt>
      <trkpt lat="43.34565" lon="-0.54548">
        <ele>133</ele>
        <time>2013-02-10T08:10:11</time>
      </trkpt>
      <trkpt lat="43.34552" lon="-0.54552">
        <ele>135</ele>
        <time>2013-02-10T08:10:16</time>
      </trkpt>
      <trkpt lat="43.34536" lon="-0.54554">
        <ele>136</ele>
        <time>2013-02-10T08:10:21</time>
      </trkpt>
      <trkpt lat="43.34522" lon="-0.54547">
        <ele>137</ele>
        <time>2013-02-10T08:10:26</time>
      </trkpt>
      <trkpt lat="43.3451" lon="-0.54539">
        <ele>139</ele>
        <time>2013-02-10T08:10:31</time>
      </trkpt>
      <trkpt lat="43.34497" lon="-0.5452">
        <ele>140</ele>
        <time>2013-02-10T08:10:36</time>
      </trkpt>
      <trkpt lat="43.34488" lon="-0.54499">
        <ele>143</ele>
        <time>2013-02-10T08:10:41</time>
      </trkpt>
      <trkpt lat="43.34487" lon="-0.54478">
        <ele>143</ele>
        <time>2013-02-10T08:10:46</time>
      </trkpt>
      <trkpt lat="43.34477" lon="-0.54463">
        <ele>146</ele>
        <time>2013-02-10T08:10:51</time>
      </trkpt>
      <trkpt lat="43.3447" lon="-0.54456">
        <ele>147</ele>
        <time>2013-02-10T08:10:56</time>
      </trkpt>
      <trkpt lat="43.34464" lon="-0.54443">
        <ele>148</ele>
        <time>2013-02-10T08:11:01</time>
      </trkpt>
      <trkpt lat="43.34458" lon="-0.54432">
        <ele>147</ele>
        <time>2013-02-10T08:11:06</time>
      </trkpt>
      <trkpt lat="43.3445" lon="-0.54418">
        <ele>149</ele>
        <time>2013-02-10T08:11:11</time>
      </trkpt>
      <trkpt lat="43.34442" lon="-0.54401">
        <ele>149</ele>
        <time>2013-02-10T08:11:16</time>
      </trkpt>
      <trkpt lat="43.34436" lon="-0.54389">
        <ele>151</ele>
        <time>2013-02-10T08:11:22</time>
      </trkpt>
      <trkpt lat="43.34435" lon="-0.54387">
        <ele>153</ele>
        <time>2013-02-10T08:11:27</time>
      </trkpt>
      <trkpt lat="43.34435" lon="-0.54387">
        <ele>154</ele>
        <time>2013-02-10T08:11:32</time>
      </trkpt>
      <trkpt lat="43.34413" lon="-0.5438">
        <ele>152</ele>
        <time>2013-02-10T08:11:37</time>
      </trkpt>
      <trkpt lat="43.34403" lon="-0.54372">
        <ele>155</ele>
        <time>2013-02-10T08:11:42</time>
      </trkpt>
      <trkpt lat="43.34397" lon="-0.54361">
        <ele>157</ele>
        <time>2013-02-10T08:11:47</time>
      </trkpt>
      <trkpt lat="43.34393" lon="-0.54349">
        <ele>157</ele>
        <time>2013-02-10T08:11:52</time>
      </trkpt>
      <trkpt lat="43.3439" lon="-0.54336">
        <ele>157</ele>
        <time>2013-02-10T08:11:57</time>
      </trkpt>
      <trkpt lat="43.34388" lon="-0.54323">
        <ele>160</ele>
        <time>2013-02-10T08:12:02</time>
      </trkpt>
      <trkpt lat="43.34388" lon="-0.5431">
        <ele>161</ele>
        <time>2013-02-10T08:12:07</time>
      </trkpt>
      <trkpt lat="43.34389" lon="-0.54296">
        <ele>161</ele>
        <time>2013-02-10T08:12:12</time>
      </trkpt>
      <trkpt lat="43.34392" lon="-0.54281">
        <ele>161</ele>
        <time>2013-02-10T08:12:17</time>
      </trkpt>
      <trkpt lat="43.34396" lon="-0.5427">
        <ele>161</ele>
        <time>2013-02-10T08:12:22</time>
      </trkpt>
      <trkpt lat="43.34397" lon="-0.54258">
        <ele>163</ele>
        <time>2013-02-10T08:12:27</time>
      </trkpt>
      <trkpt lat="43.34398" lon="-0.54242">
        <ele>162</ele>
        <time>2013-02-10T08:12:32</time>
      </trkpt>
      <trkpt lat="43.34398" lon="-0.54229">
        <ele>166</ele>
        <time>2013-02-10T08:12:37</time>
      </trkpt>
      <trkpt lat="43.34398" lon="-0.54219">
        <ele>166</ele>
        <time>2013-02-10T08:12:42</time>
      </trkpt>
      <trkpt lat="43.34398" lon="-0.5421">
        <ele>166</ele>
        <time>2013-02-10T08:12:47</time>
      </trkpt>
      <trkpt lat="43.34399" lon="-0.54199">
        <ele>168</ele>
        <time>2013-02-10T08:12:52</time>
      </trkpt>
      <trkpt lat="43.34404" lon="-0.54189">
        <ele>170</ele>
        <time>2013-02-10T08:12:57</time>
      </trkpt>
      <trkpt lat="43.34412" lon="-0.54191">
        <ele>170</ele>
        <time>2013-02-10T08:13:02</time>
      </trkpt>
      <trkpt lat="43.3442" lon="-0.54194">
        <ele>171</ele>
        <time>2013-02-10T08:13:07</time>
      </trkpt>
      <trkpt lat="43.3443" lon="-0.54197">
        <ele>171</ele>
        <time>2013-02-10T08:13:12</time>
      </trkpt>
      <trkpt lat="43.34438" lon="-0.54201">
        <ele>172</ele>
        <time>2013-02-10T08:13:17</time>
      </trkpt>
      <trkpt lat="43.34451" lon="-0.54202">
        <ele>172</ele>
        <time>2013-02-10T08:13:22</time>
      </trkpt>
      <trkpt lat="43.34463" lon="-0.54201">
        <ele>173</ele>
        <time>2013-02-10T08:13:27</time>
      </trkpt>
      <trkpt lat="43.34475" lon="-0.54204">
        <ele>173</ele>
        <time>2013-02-10T08:13:32</time>
      </trkpt>
      <trkpt lat="43.34489" lon="-0.54205">
        <ele>171</ele>
        <time>2013-02-10T08:13:38</time>
      </trkpt>
      <trkpt lat="43.34506" lon="-0.5421">
        <ele>171</ele>
        <time>2013-02-10T08:13:43</time>
      </trkpt>
      <trkpt lat="43.34521" lon="-0.54218">
        <ele>171</ele>
        <time>2013-02-10T08:13:48</time>
      </trkpt>
      <trkpt lat="43.34536" lon="-0.54223">
        <ele>170</ele>
        <time>2013-02-10T08:13:53</time>
      </trkpt>
      <trkpt lat="43.34546" lon="-0.54219">
        <ele>172</ele>
        <time>2013-02-10T08:13:58</time>
      </trkpt>
      <trkpt lat="43.34555" lon="-0.54207">
        <ele>173</ele>
        <time>2013-02-10T08:14:03</time>
      </trkpt>
      <trkpt lat="43.34563" lon="-0.54199">
        <ele>174</ele>
        <time>2013-02-10T08:14:08</time>
      </trkpt>
      <trkpt lat="43.34571" lon="-0.5419">
        <ele>177</ele>
        <time>2013-02-10T08:14:13</time>
      </trkpt>
      <trkpt lat="43.34576" lon="-0.54181">
        <ele>176</ele>
        <time>2013-02-10T08:14:18</time>
      </trkpt>
      <trkpt lat="43.3457" lon="-0.54173">
        <ele>177</ele>
        <time>2013-02-10T08:14:23</time>
      </trkpt>
      <trkpt lat="43.34565" lon="-0.54167">
        <ele>177</ele>
        <time>2013-02-10T08:14:28</time>
      </trkpt>
      <trkpt lat="43.34558" lon="-0.5416">
        <ele>179</ele>
        <time>2013-02-10T08:14:33</time>
      </trkpt>
      <trkpt lat="43.34549" lon="-0.5415">
        <ele>181</ele>
        <time>2013-02-10T08:14:38</time>
      </trkpt>
      <trkpt lat="43.34541" lon="-0.54144">
        <ele>182</ele>
        <time>2013-02-10T08:14:43</time>
      </trkpt>
      <trkpt lat="43.3453" lon="-0.54141">
        <ele>182</ele>
        <time>2013-02-10T08:14:48</time>
      </trkpt>
      <trkpt lat="43.3452" lon="-0.54137">
        <ele>183</ele>
        <time>2013-02-10T08:14:53</time>
      </trkpt>
      <trkpt lat="43.34509" lon="-0.54132">
        <ele>182</ele>
        <time>2013-02-10T08:14:58</time>
      </trkpt>
      <trkpt lat="43.34499" lon="-0.54128">
        <ele>185</ele>
        <time>2013-02-10T08:15:03</time>
      </trkpt>
      <trkpt lat="43.34488" lon="-0.54119">
        <ele>184</ele>
        <time>2013-02-10T08:15:08</time>
      </trkpt>
      <trkpt lat="43.3448" lon="-0.54112">
        <ele>185</ele>
        <time>2013-02-10T08:15:14</time>
      </trkpt>
      <trkpt lat="43.3447" lon="-0.54106">
        <ele>186</ele>
        <time>2013-02-10T08:15:19</time>
      </trkpt>
      <trkpt lat="43.3446" lon="-0.54097">
        <ele>189</ele>
        <time>2013-02-10T08:15:24</time>
      </trkpt>
      <trkpt lat="43.34458" lon="-0.54093">
        <ele>191</ele>
        <time>2013-02-10T08:15:29</time>
      </trkpt>
      <trkpt lat="43.34464" lon="-0.54079">
        <ele>190</ele>
        <time>2013-02-10T08:15:34</time>
      </trkpt>
      <trkpt lat="43.34464" lon="-0.54078">
        <ele>192</ele>
        <time>2013-02-10T08:15:39</time>
      </trkpt>
      <trkpt lat="43.34464" lon="-0.54078">
        <ele>193</ele>
        <time>2013-02-10T08:15:44</time>
      </trkpt>
      <trkpt lat="43.34464" lon="-0.54078">
        <ele>193</ele>
        <time>2013-02-10T08:15:49</time>
      </trkpt>
      <trkpt lat="43.34483" lon="-0.54058">
        <ele>196</ele>
        <time>2013-02-10T08:15:54</time>
      </trkpt>
      <trkpt lat="43.34486" lon="-0.54054">
        <ele>195</ele>
        <time>2013-02-10T08:15:59</time>
      </trkpt>
      <trkpt lat="43.34486" lon="-0.54054">
        <ele>197</ele>
        <time>2013-02-10T08:16:04</time>
      </trkpt>
      <trkpt lat="43.34486" lon="-0.54054">
        <ele>199</ele>
        <time>2013-02-10T08:16:09</time>
      </trkpt>
      <trkpt lat="43.34486" lon="-0.54054">
        <ele>201</ele>
        <time>2013-02-10T08:16:14</time>
      </trkpt>
      <trkpt lat="43.34486" lon="-0.54054">
        <ele>201</ele>
        <time>2013-02-10T08:16:19</time>
      </trkpt>
      <trkpt lat="43.34515" lon="-0.54014">
        <ele>199</ele>
        <time>2013-02-10T08:16:24</time>
      </trkpt>
      <trkpt lat="43.34515" lon="-0.54014">
        <ele>202</ele>
        <time>2013-02-10T08:16:29</time>
      </trkpt>
      <trkpt lat="43.34515" lon="-0.54014">
        <ele>203</ele>
        <time>2013-02-10T08:16:34</time>
      </trkpt>
      <trkpt lat="43.34515" lon="-0.54014">
        <ele>203</ele>
        <time>2013-02-10T08:16:39</time>
      </trkpt>
      <trkpt lat="43.34521" lon="-0.53974">
        <ele>203</ele>
        <time>2013-02-10T08:16:44</time>
      </trkpt>
      <trkpt lat="43.34519" lon="-0.53963">
        <ele>205</ele>
        <time>2013-02-10T08:16:49</time>
      </trkpt>
      <trkpt lat="43.34519" lon="-0.53957">
        <ele>206</ele>
        <time>2013-02-10T08:16:54</time>
      </trkpt>
      <trkpt lat="43.34519" lon="-0.53957">
        <ele>209</ele>
        <time>2013-02-10T08:16:59</time>
      </trkpt>
      <trkpt lat="43.34519" lon="-0.53957">
        <ele>209</ele>
        <time>2013-02-10T08:17:05</time>
      </trkpt>
      <trkpt lat="43.34519" lon="-0.53957">
        <ele>210</ele>
        <time>2013-02-10T08:17:10</time>
      </trkpt>
      <trkpt lat="43.34519" lon="-0.53957">
        <ele>209</ele>
        <time>2013-02-10T08:17:15</time>
      </trkpt>
      <trkpt lat="43.34512" lon="-0.53903">
        <ele>212</ele>
        <time>2013-02-10T08:17:20</time>
      </trkpt>
      <trkpt lat="43.3451" lon="-0.53894">
        <ele>212</ele>
        <time>2013-02-10T08:17:25</time>
      </trkpt>
      <trkpt lat="43.34507" lon="-0.53883">
        <ele>212</ele>
        <time>2013-02-10T08:17:30</time>
      </trkpt>
      <trkpt lat="43.34505" lon="-0.53871">
        <ele>213</ele>
        <time>2013-02-10T08:17:35</time>
      </trkpt>
      <trkpt lat="43.34507" lon="-0.53856">
        <ele>213</ele>
        <time>2013-02-10T08:17:40</time>
      </trkpt>
      <trkpt lat="43.34512" lon="-0.53839">
        <ele>212</ele>
        <time>2013-02-10T08:17:45</time>
      </trkpt>
      <trkpt lat="43.34515" lon="-0.53825">
        <ele>212</ele>
        <time>2013-02-10T08:17:50</time>
      </trkpt>
      <trkpt lat="43.34518" lon="-0.53803">
        <ele>214</ele>
        <time>2013-02-10T08:17:55</time>
      </trkpt>
      <trkpt lat="43.34523" lon="-0.53788">
        <ele>213</ele>
        <time>2013-02-10T08:18:00</time>
      </trkpt>
      <trkpt lat="43.34528" lon="-0.53772">
        <ele>215</ele>
        <time>2013-02-10T08:18:05</time>
      </trkpt>
      <trkpt lat="43.34533" lon="-0.53761">
        <ele>214</ele>
        <time>2013-02-10T08:18:10</time>
      </trkpt>
      <trkpt lat="43.34537" lon="-0.53751">
        <ele>215</ele>
        <time>2013-02-10T08:18:15</time>
      </trkpt>
      <trkpt lat="43.34541" lon="-0.53738">
        <ele>217</ele>
        <time>2013-02-10T08:18:20</time>
      </trkpt>
      <trkpt lat="43.34544" lon="-0.53725">
        <ele>219</ele>
        <time>2013-02-10T08:18:25</time>
      </trkpt>
      <trkpt lat="43.34548" lon="-0.53716">
        <ele>220</ele>
        <time>2013-02-10T08:18:30</time>
      </trkpt>
      <trkpt lat="43.3455" lon="-0.53707">
        <ele>221</ele>
        <time>2013-02-10T08:18:35</time>
      </trkpt>
      <trkpt lat="43.34553" lon="-0.53697">
        <ele>221</ele>
        <time>2013-02-10T08:18:40</time>
      </trkpt>
      <trkpt lat="43.34556" lon="-0.53686">
        <ele>222</ele>
        <time>2013-02-10T08:18:45</time>
      </trkpt>
      <trkpt lat="43.3456" lon="-0.53674">
        <ele>224</ele>
        <time>2013-02-10T08:18:50</time>
      </trkpt>
      <trkpt lat="43.34563" lon="-0.53663">
        <ele>224</ele>
        <time>2013-02-10T08:18:55</time>
      </trkpt>
      <trkpt lat="43.34565" lon="-0.53653">
        <ele>226</ele>
        <time>2013-02-10T08:19:00</time>
      </trkpt>
      <trkpt lat="43.34565" lon="-0.53641">
        <ele>230</ele>
        <time>2013-02-10T08:19:05</time>
      </trkpt>
      <trkpt lat="43.34568" lon="-0.53629">
        <ele>229</ele>
        <time>2013-02-10T08:19:11</time>
      </trkpt>
      <trkpt lat="43.34571" lon="-0.53619">
        <ele>229</ele>
        <time>2013-02-10T08:19:16</time>
      </trkpt>
      <trkpt lat="43.34573" lon="-0.53607">
        <ele>230</ele>
        <time>2013-02-10T08:19:21</time>
      </trkpt>
      <trkpt lat="43.34576" lon="-0.53598">
        <ele>232</ele>
        <time>2013-02-10T08:19:26</time>
      </trkpt>
      <trkpt lat="43.34578" lon="-0.53588">
        <ele>232</ele>
        <time>2013-02-10T08:19:31</time>
      </trkpt>
      <trkpt lat="43.3458" lon="-0.53576">
        <ele>234</ele>
        <time>2013-02-10T08:19:36</time>
      </trkpt>
      <trkpt lat="43.34583" lon="-0.53562">
        <ele>235</ele>
        <time>2013-02-10T08:19:41</time>
      </trkpt>
      <trkpt lat="43.34584" lon="-0.53556">
        <ele>236</ele>
        <time>2013-02-10T08:19:46</time>
      </trkpt>
      <trkpt lat="43.34585" lon="-0.5354">
        <ele>235</ele>
        <time>2013-02-10T08:19:51</time>
      </trkpt>
      <trkpt lat="43.34584" lon="-0.53529">
        <ele>236</ele>
        <time>2013-02-10T08:19:56</time>
      </trkpt>
      <trkpt lat="43.34583" lon="-0.53518">
        <ele>236</ele>
        <time>2013-02-10T08:20:01</time>
      </trkpt>
      <trkpt lat="43.34583" lon="-0.53504">
        <ele>237</ele>
        <time>2013-02-10T08:20:06</time>
      </trkpt>
      <trkpt lat="43.34582" lon="-0.53493">
        <ele>239</ele>
        <time>2013-02-10T08:20:11</time>
      </trkpt>
      <trkpt lat="43.34581" lon="-0.53483">
        <ele>238</ele>
        <time>2013-02-10T08:20:16</time>
      </trkpt>
      <trkpt lat="43.3458" lon="-0.53469">
        <ele>241</ele>
        <time>2013-02-10T08:20:21</time>
      </trkpt>
      <trkpt lat="43.34578" lon="-0.53461">
        <ele>241</ele>
        <time>2013-02-10T08:20:26</time>
      </trkpt>
      <trkpt lat="43.34578" lon="-0.53453">
        <ele>242</ele>
        <time>2013-02-10T08:20:31</time>
      </trkpt>
      <trkpt lat="43.34578" lon="-0.53453">
        <ele>243</ele>
        <time>2013-02-10T08:20:36</time>
      </trkpt>
      <trkpt lat="43.34576" lon="-0.53428">
        <ele>242</ele>
        <time>2013-02-10T08:20:41</time>
      </trkpt>
      <trkpt lat="43.34575" lon="-0.53418">
        <ele>245</ele>
        <time>2013-02-10T08:20:46</time>
      </trkpt>
      <trkpt lat="43.34574" lon="-0.53406">
        <ele>245</ele>
        <time>2013-02-10T08:20:51</time>
      </trkpt>
      <trkpt lat="43.34573" lon="-0.53395">
        <ele>248</ele>
        <time>2013-02-10T08:20:56</time>
      </trkpt>
      <trkpt lat="43.34573" lon="-0.53382">
        <ele>247</ele>
        <time>2013-02-10T08:21:01</time>
      </trkpt>
      <trkpt lat="43.34572" lon="-0.53379">
        <ele>248</ele>
        <time>2013-02-10T08:21:06</time>
      </trkpt>
      <trkpt lat="43.3457" lon="-0.53359">
        <ele>249</ele>
        <time>2013-02-10T08:21:11</time>
      </trkpt>
      <trkpt lat="43.34569" lon="-0.53345">
        <ele>249</ele>
        <time>2013-02-10T08:21:16</time>
      </trkpt>
      <trkpt lat="43.34567" lon="-0.53332">
        <ele>251</ele>
        <time>2013-02-10T08:21:22</time>
      </trkpt>
      <trkpt lat="43.34565" lon="-0.53319">
        <ele>251</ele>
        <time>2013-02-10T08:21:27</time>
      </trkpt>
      <trkpt lat="43.34566" lon="-0.53309">
        <ele>251</ele>
        <time>2013-02-10T08:21:32</time>
      </trkpt>
      <trkpt lat="43.34561" lon="-0.53291">
        <ele>251</ele>
        <time>2013-02-10T08:21:37</time>
      </trkpt>
      <trkpt lat="43.34558" lon="-0.53277">
        <ele>251</ele>
        <time>2013-02-10T08:21:42</time>
      </trkpt>
      <trkpt lat="43.34555" lon="-0.53264">
        <ele>252</ele>
        <time>2013-02-10T08:21:47</time>
      </trkpt>
      <trkpt lat="43.34553" lon="-0.53251">
        <ele>253</ele>
        <time>2013-02-10T08:21:52</time>
      </trkpt>
      <trkpt lat="43.34552" lon="-0.53238">
        <ele>254</ele>
        <time>2013-02-10T08:21:57</time>
      </trkpt>
      <trkpt lat="43.34552" lon="-0.53227">
        <ele>253</ele>
        <time>2013-02-10T08:22:02</time>
      </trkpt>
      <trkpt lat="43.34551" lon="-0.53211">
        <ele>256</ele>
        <time>2013-02-10T08:22:07</time>
      </trkpt>
      <trkpt lat="43.3455" lon="-0.53203">
        <ele>257</ele>
        <time>2013-02-10T08:22:12</time>
      </trkpt>
      <trkpt lat="43.34549" lon="-0.5319">
        <ele>258</ele>
        <time>2013-02-10T08:22:17</time>
      </trkpt>
      <trkpt lat="43.34547" lon="-0.53176">
        <ele>259</ele>
        <time>2013-02-10T08:22:22</time>
      </trkpt>
      <trkpt lat="43.34547" lon="-0.53162">
        <ele>259</ele>
        <time>2013-02-10T08:22:27</time>
      </trkpt>
      <trkpt lat="43.34547" lon="-0.53148">
        <ele>263</ele>
        <time>2013-02-10T08:22:32</time>
      </trkpt>
      <trkpt lat="43.34544" lon="-0.53131">
        <ele>263</ele>
        <time>2013-02-10T08:22:37</time>
      </trkpt>
      <trkpt lat="43.34542" lon="-0.53118">
        <ele>263</ele>
        <time>2013-02-10T08:22:42</time>
      </trkpt>
      <trkpt lat="43.34541" lon="-0.53105">
        <ele>265</ele>
        <time>2013-02-10T08:22:47</time>
      </trkpt>
      <trkpt lat="43.34541" lon="-0.53092">
        <ele>266</ele>
        <time>2013-02-10T08:22:52</time>
      </trkpt>
      <trkpt lat="43.34539" lon="-0.53083">
        <ele>266</ele>
        <time>2013-02-10T08:22:57</time>
      </trkpt>
      <trkpt lat="43.34536" lon="-0.53071">
        <ele>266</ele>
        <time>2013-02-10T08:23:02</time>
      </trkpt>
      <trkpt lat="43.34533" lon="-0.53059">
        <ele>269</ele>
        <time>2013-02-10T08:23:07</time>
      </trkpt>
      <trkpt lat="43.34529" lon="-0.53048">
        <ele>270</ele>
        <time>2013-02-10T08:23:12</time>
      </trkpt>
      <trkpt lat="43.34525" lon="-0.53038">
        <ele>268</ele>
        <time>2013-02-10T08:23:17</time>
      </trkpt>
      <trkpt lat="43.34512" lon="-0.53019">
        <ele>268</ele>
        <time>2013-02-10T08:23:22</time>
      </trkpt>
      <trkpt lat="43.34502" lon="-0.52995">
        <ele>264</ele>
        <time>2013-02-10T08:23:27</time>
      </trkpt>
      <trkpt lat="43.34491" lon="-0.52975">
        <ele>263</ele>
        <time>2013-02-10T08:23:32</time>
      </trkpt>
      <trkpt lat="43.34481" lon="-0.52959">
        <ele>258</ele>
        <time>2013-02-10T08:23:37</time>
      </trkpt>
      <trkpt lat="43.3447" lon="-0.52946">
        <ele>258</ele>
        <time>2013-02-10T08:23:42</time>
      </trkpt>
      <trkpt lat="43.34455" lon="-0.52925">
        <ele>251</ele>
        <time>2013-02-10T08:23:48</time>
      </trkpt>
      <trkpt lat="43.3444" lon="-0.52889">
        <ele>249</ele>
        <time>2013-02-10T08:23:53</time>
      </trkpt>
      <trkpt lat="43.34431" lon="-0.52863">
        <ele>248</ele>
        <time>2013-02-10T08:23:58</time>
      </trkpt>
      <trkpt lat="43.34428" lon="-0.52854">
        <ele>248</ele>
        <time>2013-02-10T08:24:03</time>
      </trkpt>
      <trkpt lat="43.34428" lon="-0.52854">
        <ele>247</ele>
        <time>2013-02-10T08:24:08</time>
      </trkpt>
      <trkpt lat="43.34428" lon="-0.52854">
        <ele>255</ele>
        <time>2013-02-10T08:24:13</time>
      </trkpt>
      <trkpt lat="43.34428" lon="-0.52854">
        <ele>253</ele>
        <time>2013-02-10T08:24:18</time>
      </trkpt>
      <trkpt lat="43.34428" lon="-0.52854">
        <ele>248</ele>
        <time>2013-02-10T08:24:23</time>
      </trkpt>
      <trkpt lat="43.34428" lon="-0.52854">
        <ele>248</ele>
        <time>2013-02-10T08:24:28</time>
      </trkpt>
      <trkpt lat="43.34428" lon="-0.52854">
        <ele>248</ele>
        <time>2013-02-10T08:24:33</time>
      </trkpt>
      <trkpt lat="43.34428" lon="-0.52854">
        <ele>248</ele>
        <time>2013-02-10T08:24:38</time>
      </trkpt>
      <trkpt lat="43.34428" lon="-0.52854">
        <ele>248</ele>
        <time>2013-02-10T08:24:43</time>
      </trkpt>
      <trkpt lat="43.34428" lon="-0.52854">
        <ele>248</ele>
        <time>2013-02-10T08:24:48</time>
      </trkpt>
      <trkpt lat="43.34428" lon="-0.52854">
        <ele>247</ele>
        <time>2013-02-10T08:24:53</time>
      </trkpt>
      <trkpt lat="43.34428" lon="-0.52854">
        <ele>247</ele>
        <time>2013-02-10T08:24:58</time>
      </trkpt>
      <trkpt lat="43.34428" lon="-0.52854">
        <ele>246</ele>
        <time>2013-02-10T08:25:03</time>
      </trkpt>
      <trkpt lat="43.34428" lon="-0.52854">
        <ele>248</ele>
        <time>2013-02-10T08:25:08</time>
      </trkpt>
      <trkpt lat="43.34428" lon="-0.52854">
        <ele>248</ele>
        <time>2013-02-10T08:25:13</time>
      </trkpt>
      <trkpt lat="43.34428" lon="-0.52854">
        <ele>247</ele>
        <time>2013-02-10T08:25:18</time>
      </trkpt>
      <trkpt lat="43.34428" lon="-0.52854">
        <ele>247</ele>
        <time>2013-02-10T08:25:23</time>
      </trkpt>
      <trkpt lat="43.34428" lon="-0.52854">
        <ele>248</ele>
        <time>2013-02-10T08:25:28</time>
      </trkpt>
      <trkpt lat="43.34421" lon="-0.52846">
        <ele>245</ele>
        <time>2013-02-10T08:25:33</time>
      </trkpt>
      <trkpt lat="43.34403" lon="-0.52852">
        <ele>240</ele>
        <time>2013-02-10T08:25:38</time>
      </trkpt>
      <trkpt lat="43.34402" lon="-0.52871">
        <ele>237</ele>
        <time>2013-02-10T08:25:43</time>
      </trkpt>
      <trkpt lat="43.34404" lon="-0.52888">
        <ele>237</ele>
        <time>2013-02-10T08:25:48</time>
      </trkpt>
      <trkpt lat="43.34406" lon="-0.52909">
        <ele>230</ele>
        <time>2013-02-10T08:25:53</time>
      </trkpt>
      <trkpt lat="43.34402" lon="-0.52926">
        <ele>230</ele>
        <time>2013-02-10T08:25:59</time>
      </trkpt>
      <trkpt lat="43.34402" lon="-0.52928">
        <ele>227</ele>
        <time>2013-02-10T08:26:04</time>
      </trkpt>
      <trkpt lat="43.344" lon="-0.52955">
        <ele>227</ele>
        <time>2013-02-10T08:26:09</time>
      </trkpt>
      <trkpt lat="43.34386" lon="-0.52981">
        <ele>222</ele>
        <time>2013-02-10T08:26:14</time>
      </trkpt>
      <trkpt lat="43.34372" lon="-0.52989">
        <ele>221</ele>
        <time>2013-02-10T08:26:19</time>
      </trkpt>
      <trkpt lat="43.34362" lon="-0.52999">
        <ele>221</ele>
        <time>2013-02-10T08:26:24</time>
      </trkpt>
      <trkpt lat="43.34349" lon="-0.53013">
        <ele>223</ele>
        <time>2013-02-10T08:26:29</time>
      </trkpt>
      <trkpt lat="43.34336" lon="-0.53021">
        <ele>222</ele>
        <time>2013-02-10T08:26:34</time>
      </trkpt>
      <trkpt lat="43.34324" lon="-0.5303">
        <ele>224</ele>
        <time>2013-02-10T08:26:39</time>
      </trkpt>
      <trkpt lat="43.34311" lon="-0.5304">
        <ele>224</ele>
        <time>2013-02-10T08:26:44</time>
      </trkpt>
      <trkpt lat="43.343" lon="-0.53051">
        <ele>225</ele>
        <time>2013-02-10T08:26:49</time>
      </trkpt>
      <trkpt lat="43.34286" lon="-0.53067">
        <ele>224</ele>
        <time>2013-02-10T08:26:54</time>
      </trkpt>
      <trkpt lat="43.34275" lon="-0.53086">
        <ele>224</ele>
        <time>2013-02-10T08:26:59</time>
      </trkpt>
      <trkpt lat="43.34261" lon="-0.53103">
        <ele>224</ele>
        <time>2013-02-10T08:27:04</time>
      </trkpt>
      <trkpt lat="43.34243" lon="-0.5312">
        <ele>223</ele>
        <time>2013-02-10T08:27:09</time>
      </trkpt>
      <trkpt lat="43.34225" lon="-0.53144">
        <ele>222</ele>
        <time>2013-02-10T08:27:14</time>
      </trkpt>
      <trkpt lat="43.34212" lon="-0.53161">
        <ele>224</ele>
        <time>2013-02-10T08:27:19</time>
      </trkpt>
      <trkpt lat="43.342" lon="-0.53174">
        <ele>224</ele>
        <time>2013-02-10T08:27:24</time>
      </trkpt>
      <trkpt lat="43.34183" lon="-0.53189">
        <ele>224</ele>
        <time>2013-02-10T08:27:29</time>
      </trkpt>
      <trkpt lat="43.34171" lon="-0.53219">
        <ele>222</ele>
        <time>2013-02-10T08:27:34</time>
      </trkpt>
      <trkpt lat="43.34157" lon="-0.53264">
        <ele>219</ele>
        <time>2013-02-10T08:27:39</time>
      </trkpt>
      <trkpt lat="43.34144" lon="-0.53306">
        <ele>216</ele>
        <time>2013-02-10T08:27:44</time>
      </trkpt>
      <trkpt lat="43.3413" lon="-0.53336">
        <ele>217</ele>
        <time>2013-02-10T08:27:49</time>
      </trkpt>
      <trkpt lat="43.34112" lon="-0.53372">
        <ele>216</ele>
        <time>2013-02-10T08:27:54</time>
      </trkpt>
      <trkpt lat="43.34096" lon="-0.53393">
        <ele>217</ele>
        <time>2013-02-10T08:27:59</time>
      </trkpt>
      <trkpt lat="43.34082" lon="-0.53411">
        <ele>216</ele>
        <time>2013-02-10T08:28:04</time>
      </trkpt>
      <trkpt lat="43.34072" lon="-0.53426">
        <ele>217</ele>
        <time>2013-02-10T08:28:09</time>
      </trkpt>
      <trkpt lat="43.34063" lon="-0.53445">
        <ele>218</ele>
        <time>2013-02-10T08:28:14</time>
      </trkpt>
      <trkpt lat="43.34052" lon="-0.53462">
        <ele>219</ele>
        <time>2013-02-10T08:28:20</time>
      </trkpt>
      <trkpt lat="43.3404" lon="-0.53482">
        <ele>219</ele>
        <time>2013-02-10T08:28:25</time>
      </trkpt>
      <trkpt lat="43.34026" lon="-0.53503">
        <ele>219</ele>
        <time>2013-02-10T08:28:30</time>
      </trkpt>
      <trkpt lat="43.34016" lon="-0.53535">
        <ele>217</ele>
        <time>2013-02-10T08:28:35</time>
      </trkpt>
      <trkpt lat="43.33995" lon="-0.53551">
        <ele>216</ele>
        <time>2013-02-10T08:28:40</time>
      </trkpt>
      <trkpt lat="43.33976" lon="-0.5354">
        <ele>215</ele>
        <time>2013-02-10T08:28:45</time>
      </trkpt>
      <trkpt lat="43.3396" lon="-0.53518">
        <ele>215</ele>
        <time>2013-02-10T08:28:50</time>
      </trkpt>
      <trkpt lat="43.33936" lon="-0.53509">
        <ele>209</ele>
        <time>2013-02-10T08:28:55</time>
      </trkpt>
      <trkpt lat="43.33907" lon="-0.535">
        <ele>205</ele>
        <time>2013-02-10T08:29:00</time>
      </trkpt>
      <trkpt lat="43.33886" lon="-0.53489">
        <ele>201</ele>
        <time>2013-02-10T08:29:05</time>
      </trkpt>
      <trkpt lat="43.33853" lon="-0.53474">
        <ele>196</ele>
        <time>2013-02-10T08:29:10</time>
      </trkpt>
      <trkpt lat="43.33831" lon="-0.53448">
        <ele>192</ele>
        <time>2013-02-10T08:29:15</time>
      </trkpt>
      <trkpt lat="43.3381" lon="-0.53431">
        <ele>187</ele>
        <time>2013-02-10T08:29:20</time>
      </trkpt>
      <trkpt lat="43.33795" lon="-0.5342">
        <ele>183</ele>
        <time>2013-02-10T08:29:25</time>
      </trkpt>
      <trkpt lat="43.33783" lon="-0.53408">
        <ele>181</ele>
        <time>2013-02-10T08:29:30</time>
      </trkpt>
      <trkpt lat="43.33765" lon="-0.53402">
        <ele>177</ele>
        <time>2013-02-10T08:29:35</time>
      </trkpt>
      <trkpt lat="43.33747" lon="-0.53399">
        <ele>176</ele>
        <time>2013-02-10T08:29:40</time>
      </trkpt>
      <trkpt lat="43.33732" lon="-0.53399">
        <ele>174</ele>
        <time>2013-02-10T08:29:45</time>
      </trkpt>
      <trkpt lat="43.33713" lon="-0.53395">
        <ele>172</ele>
        <time>2013-02-10T08:29:50</time>
      </trkpt>
      <trkpt lat="43.33701" lon="-0.53393">
        <ele>172</ele>
        <time>2013-02-10T08:29:55</time>
      </trkpt>
      <trkpt lat="43.33688" lon="-0.53391">
        <ele>169</ele>
        <time>2013-02-10T08:30:00</time>
      </trkpt>
      <trkpt lat="43.33673" lon="-0.53389">
        <ele>169</ele>
        <time>2013-02-10T08:30:05</time>
      </trkpt>
      <trkpt lat="43.33659" lon="-0.53385">
        <ele>167</ele>
        <time>2013-02-10T08:30:10</time>
      </trkpt>
      <trkpt lat="43.33646" lon="-0.53374">
        <ele>164</ele>
        <time>2013-02-10T08:30:15</time>
      </trkpt>
      <trkpt lat="43.33621" lon="-0.53356">
        <ele>160</ele>
        <time>2013-02-10T08:30:21</time>
      </trkpt>
      <trkpt lat="43.33602" lon="-0.53347">
        <ele>160</ele>
        <time>2013-02-10T08:30:25</time>
      </trkpt>
      <trkpt lat="43.33587" lon="-0.53338">
        <ele>156</ele>
        <time>2013-02-10T08:30:30</time>
      </trkpt>
      <trkpt lat="43.3357" lon="-0.53327">
        <ele>155</ele>
        <time>2013-02-10T08:30:35</time>
      </trkpt>
      <trkpt lat="43.33551" lon="-0.53319">
        <ele>154</ele>
        <time>2013-02-10T08:30:40</time>
      </trkpt>
      <trkpt lat="43.33535" lon="-0.53312">
        <ele>152</ele>
        <time>2013-02-10T08:30:46</time>
      </trkpt>
      <trkpt lat="43.33514" lon="-0.53302">
        <ele>150</ele>
        <time>2013-02-10T08:30:51</time>
      </trkpt>
      <trkpt lat="43.33498" lon="-0.53293">
        <ele>149</ele>
        <time>2013-02-10T08:30:56</time>
      </trkpt>
      <trkpt lat="43.33481" lon="-0.5328">
        <ele>145</ele>
        <time>2013-02-10T08:31:01</time>
      </trkpt>
      <trkpt lat="43.3347" lon="-0.53263">
        <ele>145</ele>
        <time>2013-02-10T08:31:06</time>
      </trkpt>
      <trkpt lat="43.33463" lon="-0.53252">
        <ele>143</ele>
        <time>2013-02-10T08:31:11</time>
      </trkpt>
      <trkpt lat="43.33472" lon="-0.53247">
        <ele>143</ele>
        <time>2013-02-10T08:31:16</time>
      </trkpt>
      <trkpt lat="43.33479" lon="-0.53239">
        <ele>143</ele>
        <time>2013-02-10T08:31:21</time>
      </trkpt>
      <trkpt lat="43.33487" lon="-0.53233">
        <ele>145</ele>
        <time>2013-02-10T08:31:26</time>
      </trkpt>
      <trkpt lat="43.33498" lon="-0.5323">
        <ele>145</ele>
        <time>2013-02-10T08:31:31</time>
      </trkpt>
      <trkpt lat="43.33511" lon="-0.5323">
        <ele>148</ele>
        <time>2013-02-10T08:31:36</time>
      </trkpt>
      <trkpt lat="43.3352" lon="-0.53231">
        <ele>148</ele>
        <time>2013-02-10T08:31:41</time>
      </trkpt>
      <trkpt lat="43.33529" lon="-0.53229">
        <ele>149</ele>
        <time>2013-02-10T08:31:46</time>
      </trkpt>
      <trkpt lat="43.33539" lon="-0.53227">
        <ele>152</ele>
        <time>2013-02-10T08:31:51</time>
      </trkpt>
      <trkpt lat="43.33549" lon="-0.53228">
        <ele>151</ele>
        <time>2013-02-10T08:31:56</time>
      </trkpt>
      <trkpt lat="43.33558" lon="-0.5323">
        <ele>152</ele>
        <time>2013-02-10T08:32:01</time>
      </trkpt>
      <trkpt lat="43.33566" lon="-0.53232">
        <ele>155</ele>
        <time>2013-02-10T08:32:06</time>
      </trkpt>
      <trkpt lat="43.33575" lon="-0.53232">
        <ele>154</ele>
        <time>2013-02-10T08:32:11</time>
      </trkpt>
      <trkpt lat="43.33585" lon="-0.53234">
        <ele>157</ele>
        <time>2013-02-10T08:32:16</time>
      </trkpt>
      <trkpt lat="43.33593" lon="-0.53234">
        <ele>158</ele>
        <time>2013-02-10T08:32:21</time>
      </trkpt>
      <trkpt lat="43.33602" lon="-0.53235">
        <ele>159</ele>
        <time>2013-02-10T08:32:26</time>
      </trkpt>
      <trkpt lat="43.33611" lon="-0.53237">
        <ele>161</ele>
        <time>2013-02-10T08:32:31</time>
      </trkpt>
      <trkpt lat="43.33613" lon="-0.53237">
        <ele>160</ele>
        <time>2013-02-10T08:32:36</time>
      </trkpt>
      <trkpt lat="43.33627" lon="-0.53241">
        <ele>160</ele>
        <time>2013-02-10T08:32:41</time>
      </trkpt>
      <trkpt lat="43.33637" lon="-0.53246">
        <ele>164</ele>
        <time>2013-02-10T08:32:46</time>
      </trkpt>
      <trkpt lat="43.33645" lon="-0.53251">
        <ele>165</ele>
        <time>2013-02-10T08:32:51</time>
      </trkpt>
      <trkpt lat="43.33653" lon="-0.53258">
        <ele>165</ele>
        <time>2013-02-10T08:32:56</time>
      </trkpt>
      <trkpt lat="43.33661" lon="-0.53264">
        <ele>165</ele>
        <time>2013-02-10T08:33:01</time>
      </trkpt>
      <trkpt lat="43.33669" lon="-0.53271">
        <ele>165</ele>
        <time>2013-02-10T08:33:06</time>
      </trkpt>
      <trkpt lat="43.33677" lon="-0.53277">
        <ele>165</ele>
        <time>2013-02-10T08:33:11</time>
      </trkpt>
      <trkpt lat="43.33684" lon="-0.53284">
        <ele>166</ele>
        <time>2013-02-10T08:33:17</time>
      </trkpt>
      <trkpt lat="43.33695" lon="-0.53296">
        <ele>168</ele>
        <time>2013-02-10T08:33:22</time>
      </trkpt>
      <trkpt lat="43.33703" lon="-0.53304">
        <ele>168</ele>
        <time>2013-02-10T08:33:27</time>
      </trkpt>
      <trkpt lat="43.33711" lon="-0.53306">
        <ele>168</ele>
        <time>2013-02-10T08:33:32</time>
      </trkpt>
      <trkpt lat="43.33719" lon="-0.53305">
        <ele>168</ele>
        <time>2013-02-10T08:33:37</time>
      </trkpt>
      <trkpt lat="43.33726" lon="-0.53301">
        <ele>171</ele>
        <time>2013-02-10T08:33:42</time>
      </trkpt>
      <trkpt lat="43.33733" lon="-0.53297">
        <ele>172</ele>
        <time>2013-02-10T08:33:47</time>
      </trkpt>
      <trkpt lat="43.33739" lon="-0.53297">
        <ele>172</ele>
        <time>2013-02-10T08:33:52</time>
      </trkpt>
      <trkpt lat="43.33739" lon="-0.53297">
        <ele>175</ele>
        <time>2013-02-10T08:33:57</time>
      </trkpt>
      <trkpt lat="43.33755" lon="-0.533">
        <ele>175</ele>
        <time>2013-02-10T08:34:02</time>
      </trkpt>
      <trkpt lat="43.33765" lon="-0.53301">
        <ele>174</ele>
        <time>2013-02-10T08:34:07</time>
      </trkpt>
      <trkpt lat="43.33767" lon="-0.53302">
        <ele>175</ele>
        <time>2013-02-10T08:34:12</time>
      </trkpt>
      <trkpt lat="43.33767" lon="-0.53302">
        <ele>177</ele>
        <time>2013-02-10T08:34:17</time>
      </trkpt>
      <trkpt lat="43.33767" lon="-0.53302">
        <ele>177</ele>
        <time>2013-02-10T08:34:22</time>
      </trkpt>
      <trkpt lat="43.33767" lon="-0.53302">
        <ele>178</ele>
        <time>2013-02-10T08:34:27</time>
      </trkpt>
      <trkpt lat="43.33803" lon="-0.533">
        <ele>180</ele>
        <time>2013-02-10T08:34:32</time>
      </trkpt>
      <trkpt lat="43.33808" lon="-0.53298">
        <ele>182</ele>
        <time>2013-02-10T08:34:37</time>
      </trkpt>
      <trkpt lat="43.33808" lon="-0.53298">
        <ele>182</ele>
        <time>2013-02-10T08:34:42</time>
      </trkpt>
      <trkpt lat="43.33808" lon="-0.53298">
        <ele>184</ele>
        <time>2013-02-10T08:34:47</time>
      </trkpt>
      <trkpt lat="43.33842" lon="-0.53298">
        <ele>184</ele>
        <time>2013-02-10T08:34:52</time>
      </trkpt>
      <trkpt lat="43.33847" lon="-0.53298">
        <ele>187</ele>
        <time>2013-02-10T08:34:57</time>
      </trkpt>
      <trkpt lat="43.33847" lon="-0.53298">
        <ele>187</ele>
        <time>2013-02-10T08:35:02</time>
      </trkpt>
      <trkpt lat="43.33847" lon="-0.53298">
        <ele>188</ele>
        <time>2013-02-10T08:35:07</time>
      </trkpt>
      <trkpt lat="43.33873" lon="-0.53299">
        <ele>188</ele>
        <time>2013-02-10T08:35:13</time>
      </trkpt>
      <trkpt lat="43.33873" lon="-0.53299">
        <ele>188</ele>
        <time>2013-02-10T08:35:18</time>
      </trkpt>
      <trkpt lat="43.33873" lon="-0.53299">
        <ele>189</ele>
        <time>2013-02-10T08:35:23</time>
      </trkpt>
      <trkpt lat="43.33873" lon="-0.53299">
        <ele>191</ele>
        <time>2013-02-10T08:35:28</time>
      </trkpt>
      <trkpt lat="43.33911" lon="-0.53313">
        <ele>191</ele>
        <time>2013-02-10T08:35:33</time>
      </trkpt>
      <trkpt lat="43.33917" lon="-0.53313">
        <ele>193</ele>
        <time>2013-02-10T08:35:38</time>
      </trkpt>
      <trkpt lat="43.33928" lon="-0.53312">
        <ele>192</ele>
        <time>2013-02-10T08:35:43</time>
      </trkpt>
      <trkpt lat="43.33938" lon="-0.5331">
        <ele>193</ele>
        <time>2013-02-10T08:35:48</time>
      </trkpt>
      <trkpt lat="43.33946" lon="-0.53305">
        <ele>195</ele>
        <time>2013-02-10T08:35:53</time>
      </trkpt>
      <trkpt lat="43.33956" lon="-0.533">
        <ele>197</ele>
        <time>2013-02-10T08:35:58</time>
      </trkpt>
      <trkpt lat="43.33966" lon="-0.53299">
        <ele>198</ele>
        <time>2013-02-10T08:36:03</time>
      </trkpt>
      <trkpt lat="43.33974" lon="-0.53302">
        <ele>199</ele>
        <time>2013-02-10T08:36:08</time>
      </trkpt>
      <trkpt lat="43.33983" lon="-0.53302">
        <ele>198</ele>
        <time>2013-02-10T08:36:13</time>
      </trkpt>
      <trkpt lat="43.33984" lon="-0.53302">
        <ele>199</ele>
        <time>2013-02-10T08:36:18</time>
      </trkpt>
      <trkpt lat="43.33984" lon="-0.53302">
        <ele>201</ele>
        <time>2013-02-10T08:36:23</time>
      </trkpt>
      <trkpt lat="43.33984" lon="-0.53302">
        <ele>200</ele>
        <time>2013-02-10T08:36:28</time>
      </trkpt>
      <trkpt lat="43.33984" lon="-0.53302">
        <ele>201</ele>
        <time>2013-02-10T08:36:33</time>
      </trkpt>
      <trkpt lat="43.34024" lon="-0.533">
        <ele>202</ele>
        <time>2013-02-10T08:36:38</time>
      </trkpt>
      <trkpt lat="43.34032" lon="-0.53297">
        <ele>203</ele>
        <time>2013-02-10T08:36:43</time>
      </trkpt>
      <trkpt lat="43.34043" lon="-0.5329">
        <ele>204</ele>
        <time>2013-02-10T08:36:48</time>
      </trkpt>
      <trkpt lat="43.3405" lon="-0.53285">
        <ele>206</ele>
        <time>2013-02-10T08:36:53</time>
      </trkpt>
      <trkpt lat="43.34052" lon="-0.53283">
        <ele>205</ele>
        <time>2013-02-10T08:36:59</time>
      </trkpt>
      <trkpt lat="43.34052" lon="-0.53283">
        <ele>206</ele>
        <time>2013-02-10T08:37:04</time>
      </trkpt>
      <trkpt lat="43.34052" lon="-0.53283">
        <ele>209</ele>
        <time>2013-02-10T08:37:09</time>
      </trkpt>
      <trkpt lat="43.34052" lon="-0.53283">
        <ele>211</ele>
        <time>2013-02-10T08:37:14</time>
      </trkpt>
      <trkpt lat="43.34052" lon="-0.53283">
        <ele>210</ele>
        <time>2013-02-10T08:37:19</time>
      </trkpt>
      <trkpt lat="43.34087" lon="-0.53256">
        <ele>212</ele>
        <time>2013-02-10T08:37:24</time>
      </trkpt>
      <trkpt lat="43.34087" lon="-0.53256">
        <ele>213</ele>
        <time>2013-02-10T08:37:29</time>
      </trkpt>
      <trkpt lat="43.34087" lon="-0.53256">
        <ele>213</ele>
        <time>2013-02-10T08:37:34</time>
      </trkpt>
      <trkpt lat="43.34087" lon="-0.53256">
        <ele>216</ele>
        <time>2013-02-10T08:37:39</time>
      </trkpt>
      <trkpt lat="43.34114" lon="-0.53229">
        <ele>219</ele>
        <time>2013-02-10T08:37:44</time>
      </trkpt>
      <trkpt lat="43.34114" lon="-0.53226">
        <ele>218</ele>
        <time>2013-02-10T08:37:49</time>
      </trkpt>
      <trkpt lat="43.34114" lon="-0.53226">
        <ele>218</ele>
        <time>2013-02-10T08:37:54</time>
      </trkpt>
      <trkpt lat="43.34114" lon="-0.53226">
        <ele>218</ele>
        <time>2013-02-10T08:37:59</time>
      </trkpt>
      <trkpt lat="43.34114" lon="-0.53226">
        <ele>220</ele>
        <time>2013-02-10T08:38:04</time>
      </trkpt>
      <trkpt lat="43.34114" lon="-0.53226">
        <ele>223</ele>
        <time>2013-02-10T08:38:09</time>
      </trkpt>
      <trkpt lat="43.34118" lon="-0.53189">
        <ele>223</ele>
        <time>2013-02-10T08:38:14</time>
      </trkpt>
      <trkpt lat="43.3411" lon="-0.53185">
        <ele>224</ele>
        <time>2013-02-10T08:38:19</time>
      </trkpt>
      <trkpt lat="43.341" lon="-0.53183">
        <ele>224</ele>
        <time>2013-02-10T08:38:24</time>
      </trkpt>
      <trkpt lat="43.34087" lon="-0.53185">
        <ele>223</ele>
        <time>2013-02-10T08:38:29</time>
      </trkpt>
      <trkpt lat="43.34069" lon="-0.53188">
        <ele>221</ele>
        <time>2013-02-10T08:38:34</time>
      </trkpt>
      <trkpt lat="43.34046" lon="-0.53185">
        <ele>221</ele>
        <time>2013-02-10T08:38:39</time>
      </trkpt>
      <trkpt lat="43.3402" lon="-0.53179">
        <ele>221</ele>
        <time>2013-02-10T08:38:44</time>
      </trkpt>
      <trkpt lat="43.33995" lon="-0.53166">
        <ele>215</ele>
        <time>2013-02-10T08:38:49</time>
      </trkpt>
      <trkpt lat="43.33992" lon="-0.53162">
        <ele>215</ele>
        <time>2013-02-10T08:38:54</time>
      </trkpt>
      <trkpt lat="43.33992" lon="-0.53166">
        <ele>216</ele>
        <time>2013-02-10T08:38:59</time>
      </trkpt>
      <trkpt lat="43.33994" lon="-0.53176">
        <ele>216</ele>
        <time>2013-02-10T08:39:04</time>
      </trkpt>
      <trkpt lat="43.33985" lon="-0.53206">
        <ele>215</ele>
        <time>2013-02-10T08:39:10</time>
      </trkpt>
      <trkpt lat="43.33973" lon="-0.53218">
        <ele>210</ele>
        <time>2013-02-10T08:39:15</time>
      </trkpt>
      <trkpt lat="43.33947" lon="-0.53229">
        <ele>205</ele>
        <time>2013-02-10T08:39:20</time>
      </trkpt>
      <trkpt lat="43.33936" lon="-0.53229">
        <ele>201</ele>
        <time>2013-02-10T08:39:25</time>
      </trkpt>
      <trkpt lat="43.3392" lon="-0.53222">
        <ele>199</ele>
        <time>2013-02-10T08:39:30</time>
      </trkpt>
      <trkpt lat="43.33908" lon="-0.53202">
        <ele>200</ele>
        <time>2013-02-10T08:39:35</time>
      </trkpt>
      <trkpt lat="43.339" lon="-0.53206">
        <ele>201</ele>
        <time>2013-02-10T08:39:40</time>
      </trkpt>
      <trkpt lat="43.33878" lon="-0.53209">
        <ele>197</ele>
        <time>2013-02-10T08:39:45</time>
      </trkpt>
      <trkpt lat="43.33863" lon="-0.53201">
        <ele>195</ele>
        <time>2013-02-10T08:39:50</time>
      </trkpt>
      <trkpt lat="43.33849" lon="-0.53188">
        <ele>195</ele>
        <time>2013-02-10T08:39:55</time>
      </trkpt>
      <trkpt lat="43.33834" lon="-0.53179">
        <ele>195</ele>
        <time>2013-02-10T08:40:00</time>
      </trkpt>
      <trkpt lat="43.33818" lon="-0.53159">
        <ele>193</ele>
        <time>2013-02-10T08:40:05</time>
      </trkpt>
      <trkpt lat="43.3379" lon="-0.53157">
        <ele>189</ele>
        <time>2013-02-10T08:40:10</time>
      </trkpt>
      <trkpt lat="43.33764" lon="-0.53169">
        <ele>185</ele>
        <time>2013-02-10T08:40:15</time>
      </trkpt>
      <trkpt lat="43.33736" lon="-0.53164">
        <ele>179</ele>
        <time>2013-02-10T08:40:20</time>
      </trkpt>
      <trkpt lat="43.33714" lon="-0.53141">
        <ele>177</ele>
        <time>2013-02-10T08:40:25</time>
      </trkpt>
      <trkpt lat="43.33684" lon="-0.53132">
        <ele>171</ele>
        <time>2013-02-10T08:40:30</time>
      </trkpt>
      <trkpt lat="43.3366" lon="-0.5316">
        <ele>166</ele>
        <time>2013-02-10T08:40:35</time>
      </trkpt>
      <trkpt lat="43.33626" lon="-0.53168">
        <ele>163</ele>
        <time>2013-02-10T08:40:40</time>
      </trkpt>
      <trkpt lat="43.33609" lon="-0.53188">
        <ele>158</ele>
        <time>2013-02-10T08:40:45</time>
      </trkpt>
      <trkpt lat="43.33583" lon="-0.53181">
        <ele>155</ele>
        <time>2013-02-10T08:40:50</time>
      </trkpt>
      <trkpt lat="43.33559" lon="-0.53184">
        <ele>156</ele>
        <time>2013-02-10T08:40:55</time>
      </trkpt>
      <trkpt lat="43.33541" lon="-0.53205">
        <ele>153</ele>
        <time>2013-02-10T08:41:00</time>
      </trkpt>
      <trkpt lat="43.33526" lon="-0.53217">
        <ele>150</ele>
        <time>2013-02-10T08:41:05</time>
      </trkpt>
      <trkpt lat="43.33508" lon="-0.53228">
        <ele>149</ele>
        <time>2013-02-10T08:41:10</time>
      </trkpt>
      <trkpt lat="43.33496" lon="-0.5324">
        <ele>148</ele>
        <time>2013-02-10T08:41:15</time>
      </trkpt>
      <trkpt lat="43.33484" lon="-0.53252">
        <ele>147</ele>
        <time>2013-02-10T08:41:20</time>
      </trkpt>
      <trkpt lat="43.33465" lon="-0.53249">
        <ele>145</ele>
        <time>2013-02-10T08:41:25</time>
      </trkpt>
      <trkpt lat="43.33457" lon="-0.53258">
        <ele>145</ele>
        <time>2013-02-10T08:41:31</time>
      </trkpt>
      <trkpt lat="43.33438" lon="-0.53279">
        <ele>143</ele>
        <time>2013-02-10T08:41:36</time>
      </trkpt>
      <trkpt lat="43.3342" lon="-0.53303">
        <ele>142</ele>
        <time>2013-02-10T08:41:41</time>
      </trkpt>
      <trkpt lat="43.33401" lon="-0.53327">
        <ele>143</ele>
        <time>2013-02-10T08:41:46</time>
      </trkpt>
      <trkpt lat="43.3338" lon="-0.53354">
        <ele>141</ele>
        <time>2013-02-10T08:41:51</time>
      </trkpt>
      <trkpt lat="43.33363" lon="-0.53376">
        <ele>142</ele>
        <time>2013-02-10T08:41:56</time>
      </trkpt>
      <trkpt lat="43.33341" lon="-0.53404">
        <ele>141</ele>
        <time>2013-02-10T08:42:01</time>
      </trkpt>
      <trkpt lat="43.33314" lon="-0.53438">
        <ele>139</ele>
        <time>2013-02-10T08:42:06</time>
      </trkpt>
      <trkpt lat="43.3329" lon="-0.53468">
        <ele>141</ele>
        <time>2013-02-10T08:42:11</time>
      </trkpt>
      <trkpt lat="43.33266" lon="-0.53498">
        <ele>139</ele>
        <time>2013-02-10T08:42:16</time>
      </trkpt>
      <trkpt lat="43.33248" lon="-0.53522">
        <ele>139</ele>
        <time>2013-02-10T08:42:21</time>
      </trkpt>
      <trkpt lat="43.33221" lon="-0.53557">
        <ele>138</ele>
        <time>2013-02-10T08:42:26</time>
      </trkpt>
      <trkpt lat="43.332" lon="-0.53583">
        <ele>139</ele>
        <time>2013-02-10T08:42:31</time>
      </trkpt>
      <trkpt lat="43.33181" lon="-0.53609">
        <ele>140</ele>
        <time>2013-02-10T08:42:36</time>
      </trkpt>
      <trkpt lat="43.33162" lon="-0.53637">
        <ele>140</ele>
        <time>2013-02-10T08:42:41</time>
      </trkpt>
      <trkpt lat="43.33142" lon="-0.53666">
        <ele>140</ele>
        <time>2013-02-10T08:42:46</time>
      </trkpt>
      <trkpt lat="43.33116" lon="-0.53689">
        <ele>139</ele>
        <time>2013-02-10T08:42:51</time>
      </trkpt>
      <trkpt lat="43.33091" lon="-0.53708">
        <ele>140</ele>
        <time>2013-02-10T08:42:56</time>
      </trkpt>
      <trkpt lat="43.33064" lon="-0.53732">
        <ele>139</ele>
        <time>2013-02-10T08:43:01</time>
      </trkpt>
      <trkpt lat="43.33038" lon="-0.53745">
        <ele>140</ele>
        <time>2013-02-10T08:43:06</time>
      </trkpt>
      <trkpt lat="43.33013" lon="-0.5376">
        <ele>140</ele>
        <time>2013-02-10T08:43:11</time>
      </trkpt>
      <trkpt lat="43.32988" lon="-0.53776">
        <ele>138</ele>
        <time>2013-02-10T08:43:16</time>
      </trkpt>
      <trkpt lat="43.32968" lon="-0.53795">
        <ele>138</ele>
        <time>2013-02-10T08:43:21</time>
      </trkpt>
      <trkpt lat="43.32954" lon="-0.53812">
        <ele>139</ele>
        <time>2013-02-10T08:43:26</time>
      </trkpt>
      <trkpt lat="43.32941" lon="-0.53838">
        <ele>140</ele>
        <time>2013-02-10T08:43:32</time>
      </trkpt>
      <trkpt lat="43.32926" lon="-0.53871">
        <ele>140</ele>
        <time>2013-02-10T08:43:37</time>
      </trkpt>
      <trkpt lat="43.32914" lon="-0.53899">
        <ele>140</ele>
        <time>2013-02-10T08:43:42</time>
      </trkpt>
      <trkpt lat="43.32904" lon="-0.53926">
        <ele>139</ele>
        <time>2013-02-10T08:43:47</time>
      </trkpt>
      <trkpt lat="43.32886" lon="-0.5393">
        <ele>140</ele>
        <time>2013-02-10T08:43:52</time>
      </trkpt>
      <trkpt lat="43.32874" lon="-0.53918">
        <ele>140</ele>
        <time>2013-02-10T08:43:57</time>
      </trkpt>
      <trkpt lat="43.32851" lon="-0.53897">
        <ele>140</ele>
        <time>2013-02-10T08:44:02</time>
      </trkpt>
      <trkpt lat="43.32827" lon="-0.53878">
        <ele>139</ele>
        <time>2013-02-10T08:44:07</time>
      </trkpt>
      <trkpt lat="43.32806" lon="-0.53863">
        <ele>139</ele>
        <time>2013-02-10T08:44:12</time>
      </trkpt>
      <trkpt lat="43.32785" lon="-0.53851">
        <ele>139</ele>
        <time>2013-02-10T08:44:17</time>
      </trkpt>
      <trkpt lat="43.32763" lon="-0.53834">
        <ele>139</ele>
        <time>2013-02-10T08:44:22</time>
      </trkpt>
      <trkpt lat="43.32752" lon="-0.53824">
        <ele>138</ele>
        <time>2013-02-10T08:44:27</time>
      </trkpt>
      <trkpt lat="43.32728" lon="-0.53806">
        <ele>140</ele>
        <time>2013-02-10T08:44:32</time>
      </trkpt>
      <trkpt lat="43.32703" lon="-0.53787">
        <ele>138</ele>
        <time>2013-02-10T08:44:37</time>
      </trkpt>
      <trkpt lat="43.32686" lon="-0.53772">
        <ele>139</ele>
        <time>2013-02-10T08:44:42</time>
      </trkpt>
      <trkpt lat="43.32671" lon="-0.53768">
        <ele>138</ele>
        <time>2013-02-10T08:44:47</time>
      </trkpt>
      <trkpt lat="43.32659" lon="-0.53787">
        <ele>140</ele>
        <time>2013-02-10T08:44:52</time>
      </trkpt>
      <trkpt lat="43.32653" lon="-0.53798">
        <ele>140</ele>
        <time>2013-02-10T08:44:57</time>
      </trkpt>
      <trkpt lat="43.32639" lon="-0.53821">
        <ele>141</ele>
        <time>2013-02-10T08:45:02</time>
      </trkpt>
      <trkpt lat="43.32621" lon="-0.53844">
        <ele>141</ele>
        <time>2013-02-10T08:45:07</time>
      </trkpt>
      <trkpt lat="43.32607" lon="-0.53861">
        <ele>141</ele>
        <time>2013-02-10T08:45:12</time>
      </trkpt>
      <trkpt lat="43.32594" lon="-0.5388">
        <ele>142</ele>
        <time>2013-02-10T08:45:17</time>
      </trkpt>
      <trkpt lat="43.32585" lon="-0.53893">
        <ele>144</ele>
        <time>2013-02-10T08:45:22</time>
      </trkpt>
      <trkpt lat="43.32574" lon="-0.53909">
        <ele>145</ele>
        <time>2013-02-10T08:45:27</time>
      </trkpt>
      <trkpt lat="43.32564" lon="-0.53925">
        <ele>146</ele>
        <time>2013-02-10T08:45:32</time>
      </trkpt>
      <trkpt lat="43.32552" lon="-0.53943">
        <ele>148</ele>
        <time>2013-02-10T08:45:37</time>
      </trkpt>
      <trkpt lat="43.32543" lon="-0.53955">
        <ele>150</ele>
        <time>2013-02-10T08:45:42</time>
      </trkpt>
      <trkpt lat="43.32534" lon="-0.53967">
        <ele>151</ele>
        <time>2013-02-10T08:45:47</time>
      </trkpt>
      <trkpt lat="43.32525" lon="-0.53979">
        <ele>152</ele>
        <time>2013-02-10T08:45:52</time>
      </trkpt>
      <trkpt lat="43.32518" lon="-0.53987">
        <ele>156</ele>
        <time>2013-02-10T08:45:57</time>
      </trkpt>
      <trkpt lat="43.32509" lon="-0.53992">
        <ele>155</ele>
        <time>2013-02-10T08:46:03</time>
      </trkpt>
      <trkpt lat="43.32491" lon="-0.53969">
        <ele>154</ele>
        <time>2013-02-10T08:46:08</time>
      </trkpt>
      <trkpt lat="43.32472" lon="-0.53936">
        <ele>153</ele>
        <time>2013-02-10T08:46:13</time>
      </trkpt>
      <trkpt lat="43.32458" lon="-0.53906">
        <ele>152</ele>
        <time>2013-02-10T08:46:18</time>
      </trkpt>
      <trkpt lat="43.32444" lon="-0.53875">
        <ele>153</ele>
        <time>2013-02-10T08:46:23</time>
      </trkpt>
      <trkpt lat="43.3243" lon="-0.53845">
        <ele>153</ele>
        <time>2013-02-10T08:46:28</time>
      </trkpt>
      <trkpt lat="43.32417" lon="-0.53823">
        <ele>151</ele>
        <time>2013-02-10T08:46:33</time>
      </trkpt>
      <trkpt lat="43.32397" lon="-0.53796">
        <ele>152</ele>
        <time>2013-02-10T08:46:38</time>
      </trkpt>
      <trkpt lat="43.32383" lon="-0.53774">
        <ele>150</ele>
        <time>2013-02-10T08:46:43</time>
      </trkpt>
      <trkpt lat="43.32368" lon="-0.53752">
        <ele>150</ele>
        <time>2013-02-10T08:46:48</time>
      </trkpt>
      <trkpt lat="43.32353" lon="-0.53733">
        <ele>150</ele>
        <time>2013-02-10T08:46:53</time>
      </trkpt>
      <trkpt lat="43.32336" lon="-0.53714">
        <ele>150</ele>
        <time>2013-02-10T08:46:58</time>
      </trkpt>
      <trkpt lat="43.32322" lon="-0.53691">
        <ele>148</ele>
        <time>2013-02-10T08:47:03</time>
      </trkpt>
      <trkpt lat="43.32314" lon="-0.53664">
        <ele>151</ele>
        <time>2013-02-10T08:47:08</time>
      </trkpt>
      <trkpt lat="43.32304" lon="-0.5364">
        <ele>151</ele>
        <time>2013-02-10T08:47:13</time>
      </trkpt>
      <trkpt lat="43.32295" lon="-0.53622">
        <ele>151</ele>
        <time>2013-02-10T08:47:18</time>
      </trkpt>
      <trkpt lat="43.32282" lon="-0.53596">
        <ele>153</ele>
        <time>2013-02-10T08:47:23</time>
      </trkpt>
      <trkpt lat="43.32273" lon="-0.53573">
        <ele>154</ele>
        <time>2013-02-10T08:47:28</time>
      </trkpt>
      <trkpt lat="43.32262" lon="-0.53549">
        <ele>155</ele>
        <time>2013-02-10T08:47:33</time>
      </trkpt>
      <trkpt lat="43.32252" lon="-0.53526">
        <ele>155</ele>
        <time>2013-02-10T08:47:38</time>
      </trkpt>
      <trkpt lat="43.32241" lon="-0.53504">
        <ele>156</ele>
        <time>2013-02-10T08:47:43</time>
      </trkpt>
      <trkpt lat="43.32229" lon="-0.53479">
        <ele>157</ele>
        <time>2013-02-10T08:47:48</time>
      </trkpt>
      <trkpt lat="43.32217" lon="-0.53452">
        <ele>156</ele>
        <time>2013-02-10T08:47:53</time>
      </trkpt>
      <trkpt lat="43.32207" lon="-0.5342">
        <ele>155</ele>
        <time>2013-02-10T08:47:58</time>
      </trkpt>
      <trkpt lat="43.32201" lon="-0.53395">
        <ele>157</ele>
        <time>2013-02-10T08:48:03</time>
      </trkpt>
      <trkpt lat="43.32194" lon="-0.53369">
        <ele>158</ele>
        <time>2013-02-10T08:48:08</time>
      </trkpt>
      <trkpt lat="43.32184" lon="-0.53342">
        <ele>157</ele>
        <time>2013-02-10T08:48:13</time>
      </trkpt>
      <trkpt lat="43.32175" lon="-0.53321">
        <ele>157</ele>
        <time>2013-02-10T08:48:19</time>
      </trkpt>
      <trkpt lat="43.32162" lon="-0.53294">
        <ele>156</ele>
        <time>2013-02-10T08:48:24</time>
      </trkpt>
      <trkpt lat="43.32146" lon="-0.53268">
        <ele>156</ele>
        <time>2013-02-10T08:48:29</time>
      </trkpt>
      <trkpt lat="43.32129" lon="-0.53225">
        <ele>154</ele>
        <time>2013-02-10T08:48:34</time>
      </trkpt>
      <trkpt lat="43.32119" lon="-0.53182">
        <ele>151</ele>
        <time>2013-02-10T08:48:39</time>
      </trkpt>
      <trkpt lat="43.32109" lon="-0.53145">
        <ele>150</ele>
        <time>2013-02-10T08:48:44</time>
      </trkpt>
      <trkpt lat="43.32101" lon="-0.53111">
        <ele>151</ele>
        <time>2013-02-10T08:48:49</time>
      </trkpt>
      <trkpt lat="43.32092" lon="-0.53085">
        <ele>149</ele>
        <time>2013-02-10T08:48:54</time>
      </trkpt>
      <trkpt lat="43.32077" lon="-0.53062">
        <ele>149</ele>
        <time>2013-02-10T08:48:59</time>
      </trkpt>
      <trkpt lat="43.32063" lon="-0.53044">
        <ele>148</ele>
        <time>2013-02-10T08:49:04</time>
      </trkpt>
      <trkpt lat="43.32041" lon="-0.53014">
        <ele>147</ele>
        <time>2013-02-10T08:49:09</time>
      </trkpt>
      <trkpt lat="43.32021" lon="-0.52991">
        <ele>148</ele>
        <time>2013-02-10T08:49:14</time>
      </trkpt>
      <trkpt lat="43.32004" lon="-0.52964">
        <ele>146</ele>
        <time>2013-02-10T08:49:19</time>
      </trkpt>
      <trkpt lat="43.31988" lon="-0.52936">
        <ele>146</ele>
        <time>2013-02-10T08:49:24</time>
      </trkpt>
      <trkpt lat="43.31974" lon="-0.52911">
        <ele>146</ele>
        <time>2013-02-10T08:49:29</time>
      </trkpt>
      <trkpt lat="43.31962" lon="-0.52884">
        <ele>146</ele>
        <time>2013-02-10T08:49:34</time>
      </trkpt>
      <trkpt lat="43.31953" lon="-0.52853">
        <ele>146</ele>
        <time>2013-02-10T08:49:39</time>
      </trkpt>
      <trkpt lat="43.31946" lon="-0.52821">
        <ele>146</ele>
        <time>2013-02-10T08:49:44</time>
      </trkpt>
      <trkpt lat="43.31938" lon="-0.52788">
        <ele>145</ele>
        <time>2013-02-10T08:49:49</time>
      </trkpt>
      <trkpt lat="43.31929" lon="-0.52748">
        <ele>145</ele>
        <time>2013-02-10T08:49:54</time>
      </trkpt>
      <trkpt lat="43.31922" lon="-0.52716">
        <ele>145</ele>
        <time>2013-02-10T08:49:59</time>
      </trkpt>
      <trkpt lat="43.31916" lon="-0.52689">
        <ele>145</ele>
        <time>2013-02-10T08:50:04</time>
      </trkpt>
      <trkpt lat="43.31922" lon="-0.52657">
        <ele>144</ele>
        <time>2013-02-10T08:50:09</time>
      </trkpt>
      <trkpt lat="43.31931" lon="-0.52628">
        <ele>146</ele>
        <time>2013-02-10T08:50:14</time>
      </trkpt>
      <trkpt lat="43.3193" lon="-0.52595">
        <ele>144</ele>
        <time>2013-02-10T08:50:19</time>
      </trkpt>
      <trkpt lat="43.31916" lon="-0.52567">
        <ele>144</ele>
        <time>2013-02-10T08:50:24</time>
      </trkpt>
      <trkpt lat="43.31899" lon="-0.52547">
        <ele>145</ele>
        <time>2013-02-10T08:50:29</time>
      </trkpt>
      <trkpt lat="43.31878" lon="-0.52526">
        <ele>145</ele>
        <time>2013-02-10T08:50:34</time>
      </trkpt>
      <trkpt lat="43.31858" lon="-0.52514">
        <ele>145</ele>
        <time>2013-02-10T08:50:39</time>
      </trkpt>
      <trkpt lat="43.31838" lon="-0.52505">
        <ele>145</ele>
        <time>2013-02-10T08:50:44</time>
      </trkpt>
      <trkpt lat="43.31821" lon="-0.52499">
        <ele>146</ele>
        <time>2013-02-10T08:50:50</time>
      </trkpt>
      <trkpt lat="43.31811" lon="-0.52494">
        <ele>146</ele>
        <time>2013-02-10T08:50:55</time>
      </trkpt>
      <trkpt lat="43.31799" lon="-0.52486">
        <ele>144</ele>
        <time>2013-02-10T08:51:00</time>
      </trkpt>
      <trkpt lat="43.31779" lon="-0.52478">
        <ele>144</ele>
        <time>2013-02-10T08:51:05</time>
      </trkpt>
      <trkpt lat="43.31759" lon="-0.52474">
        <ele>146</ele>
        <time>2013-02-10T08:51:10</time>
      </trkpt>
      <trkpt lat="43.31738" lon="-0.52466">
        <ele>144</ele>
        <time>2013-02-10T08:51:15</time>
      </trkpt>
      <trkpt lat="43.3172" lon="-0.52454">
        <ele>145</ele>
        <time>2013-02-10T08:51:20</time>
      </trkpt>
      <trkpt lat="43.31702" lon="-0.52441">
        <ele>146</ele>
        <time>2013-02-10T08:51:25</time>
      </trkpt>
      <trkpt lat="43.31683" lon="-0.52427">
        <ele>146</ele>
        <time>2013-02-10T08:51:30</time>
      </trkpt>
      <trkpt lat="43.31668" lon="-0.52411">
        <ele>146</ele>
        <time>2013-02-10T08:51:35</time>
      </trkpt>
      <trkpt lat="43.31655" lon="-0.52407">
        <ele>146</ele>
        <time>2013-02-10T08:51:40</time>
      </trkpt>
      <trkpt lat="43.31647" lon="-0.52423">
        <ele>147</ele>
        <time>2013-02-10T08:51:45</time>
      </trkpt>
      <trkpt lat="43.31638" lon="-0.52448">
        <ele>148</ele>
        <time>2013-02-10T08:51:50</time>
      </trkpt>
      <trkpt lat="43.31631" lon="-0.52465">
        <ele>146</ele>
        <time>2013-02-10T08:51:55</time>
      </trkpt>
      <trkpt lat="43.31625" lon="-0.52479">
        <ele>146</ele>
        <time>2013-02-10T08:52:00</time>
      </trkpt>
      <trkpt lat="43.31617" lon="-0.52498">
        <ele>147</ele>
        <time>2013-02-10T08:52:05</time>
      </trkpt>
      <trkpt lat="43.31607" lon="-0.52517">
        <ele>146</ele>
        <time>2013-02-10T08:52:10</time>
      </trkpt>
      <trkpt lat="43.31596" lon="-0.52535">
        <ele>148</ele>
        <time>2013-02-10T08:52:15</time>
      </trkpt>
      <trkpt lat="43.31589" lon="-0.52553">
        <ele>149</ele>
        <time>2013-02-10T08:52:20</time>
      </trkpt>
      <trkpt lat="43.31579" lon="-0.52568">
        <ele>148</ele>
        <time>2013-02-10T08:52:25</time>
      </trkpt>
      <trkpt lat="43.31566" lon="-0.52579">
        <ele>148</ele>
        <time>2013-02-10T08:52:30</time>
      </trkpt>
      <trkpt lat="43.31551" lon="-0.52595">
        <ele>151</ele>
        <time>2013-02-10T08:52:35</time>
      </trkpt>
      <trkpt lat="43.31539" lon="-0.52608">
        <ele>151</ele>
        <time>2013-02-10T08:52:40</time>
      </trkpt>
      <trkpt lat="43.31527" lon="-0.52618">
        <ele>152</ele>
        <time>2013-02-10T08:52:45</time>
      </trkpt>
      <trkpt lat="43.31519" lon="-0.52629">
        <ele>153</ele>
        <time>2013-02-10T08:52:50</time>
      </trkpt>
      <trkpt lat="43.31508" lon="-0.5264">
        <ele>153</ele>
        <time>2013-02-10T08:52:55</time>
      </trkpt>
      <trkpt lat="43.31498" lon="-0.52652">
        <ele>154</ele>
        <time>2013-02-10T08:53:00</time>
      </trkpt>
      <trkpt lat="43.31486" lon="-0.52666">
        <ele>155</ele>
        <time>2013-02-10T08:53:06</time>
      </trkpt>
      <trkpt lat="43.31477" lon="-0.52681">
        <ele>155</ele>
        <time>2013-02-10T08:53:11</time>
      </trkpt>
      <trkpt lat="43.31466" lon="-0.52694">
        <ele>155</ele>
        <time>2013-02-10T08:53:16</time>
      </trkpt>
      <trkpt lat="43.31455" lon="-0.52707">
        <ele>157</ele>
        <time>2013-02-10T08:53:21</time>
      </trkpt>
      <trkpt lat="43.31443" lon="-0.52719">
        <ele>157</ele>
        <time>2013-02-10T08:53:26</time>
      </trkpt>
      <trkpt lat="43.31435" lon="-0.52726">
        <ele>158</ele>
        <time>2013-02-10T08:53:31</time>
      </trkpt>
      <trkpt lat="43.31425" lon="-0.52737">
        <ele>158</ele>
        <time>2013-02-10T08:53:36</time>
      </trkpt>
      <trkpt lat="43.31412" lon="-0.5275">
        <ele>161</ele>
        <time>2013-02-10T08:53:41</time>
      </trkpt>
      <trkpt lat="43.31402" lon="-0.5276">
        <ele>160</ele>
        <time>2013-02-10T08:53:46</time>
      </trkpt>
      <trkpt lat="43.31393" lon="-0.5277">
        <ele>161</ele>
        <time>2013-02-10T08:53:51</time>
      </trkpt>
      <trkpt lat="43.31386" lon="-0.52779">
        <ele>162</ele>
        <time>2013-02-10T08:53:56</time>
      </trkpt>
      <trkpt lat="43.31379" lon="-0.52787">
        <ele>163</ele>
        <time>2013-02-10T08:54:01</time>
      </trkpt>
      <trkpt lat="43.31372" lon="-0.52795">
        <ele>163</ele>
        <time>2013-02-10T08:54:06</time>
      </trkpt>
      <trkpt lat="43.31368" lon="-0.52808">
        <ele>163</ele>
        <time>2013-02-10T08:54:11</time>
      </trkpt>
      <trkpt lat="43.31364" lon="-0.52819">
        <ele>165</ele>
        <time>2013-02-10T08:54:16</time>
      </trkpt>
      <trkpt lat="43.31357" lon="-0.52831">
        <ele>165</ele>
        <time>2013-02-10T08:54:21</time>
      </trkpt>
      <trkpt lat="43.31348" lon="-0.52838">
        <ele>166</ele>
        <time>2013-02-10T08:54:26</time>
      </trkpt>
      <trkpt lat="43.31341" lon="-0.52845">
        <ele>167</ele>
        <time>2013-02-10T08:54:31</time>
      </trkpt>
      <trkpt lat="43.31333" lon="-0.52853">
        <ele>168</ele>
        <time>2013-02-10T08:54:36</time>
      </trkpt>
      <trkpt lat="43.31325" lon="-0.52861">
        <ele>169</ele>
        <time>2013-02-10T08:54:41</time>
      </trkpt>
      <trkpt lat="43.31318" lon="-0.52869">
        <ele>170</ele>
        <time>2013-02-10T08:54:46</time>
      </trkpt>
      <trkpt lat="43.3131" lon="-0.52877">
        <ele>169</ele>
        <time>2013-02-10T08:54:51</time>
      </trkpt>
      <trkpt lat="43.313" lon="-0.52887">
        <ele>169</ele>
        <time>2013-02-10T08:54:57</time>
      </trkpt>
      <trkpt lat="43.31292" lon="-0.52898">
        <ele>170</ele>
        <time>2013-02-10T08:55:02</time>
      </trkpt>
      <trkpt lat="43.31285" lon="-0.52907">
        <ele>172</ele>
        <time>2013-02-10T08:55:07</time>
      </trkpt>
      <trkpt lat="43.3128" lon="-0.52917">
        <ele>173</ele>
        <time>2013-02-10T08:55:12</time>
      </trkpt>
      <trkpt lat="43.31274" lon="-0.52925">
        <ele>172</ele>
        <time>2013-02-10T08:55:17</time>
      </trkpt>
      <trkpt lat="43.31267" lon="-0.52934">
        <ele>175</ele>
        <time>2013-02-10T08:55:22</time>
      </trkpt>
      <trkpt lat="43.3126" lon="-0.52941">
        <ele>175</ele>
        <time>2013-02-10T08:55:27</time>
      </trkpt>
      <trkpt lat="43.31254" lon="-0.52949">
        <ele>176</ele>
        <time>2013-02-10T08:55:32</time>
      </trkpt>
      <trkpt lat="43.31248" lon="-0.52958">
        <ele>177</ele>
        <time>2013-02-10T08:55:37</time>
      </trkpt>
      <trkpt lat="43.31241" lon="-0.52966">
        <ele>179</ele>
        <time>2013-02-10T08:55:42</time>
      </trkpt>
      <trkpt lat="43.31234" lon="-0.52974">
        <ele>178</ele>
        <time>2013-02-10T08:55:47</time>
      </trkpt>
      <trkpt lat="43.31227" lon="-0.52984">
        <ele>178</ele>
        <time>2013-02-10T08:55:52</time>
      </trkpt>
      <trkpt lat="43.31222" lon="-0.52992">
        <ele>179</ele>
        <time>2013-02-10T08:55:57</time>
      </trkpt>
      <trkpt lat="43.31216" lon="-0.52998">
        <ele>181</ele>
        <time>2013-02-10T08:56:02</time>
      </trkpt>
      <trkpt lat="43.31209" lon="-0.53004">
        <ele>180</ele>
        <time>2013-02-10T08:56:07</time>
      </trkpt>
      <trkpt lat="43.31202" lon="-0.5301">
        <ele>182</ele>
        <time>2013-02-10T08:56:12</time>
      </trkpt>
      <trkpt lat="43.31195" lon="-0.53017">
        <ele>182</ele>
        <time>2013-02-10T08:56:17</time>
      </trkpt>
      <trkpt lat="43.31187" lon="-0.53023">
        <ele>183</ele>
        <time>2013-02-10T08:56:22</time>
      </trkpt>
      <trkpt lat="43.3118" lon="-0.53032">
        <ele>183</ele>
        <time>2013-02-10T08:56:27</time>
      </trkpt>
      <trkpt lat="43.31173" lon="-0.53039">
        <ele>183</ele>
        <time>2013-02-10T08:56:32</time>
      </trkpt>
      <trkpt lat="43.31167" lon="-0.53045">
        <ele>184</ele>
        <time>2013-02-10T08:56:37</time>
      </trkpt>
      <trkpt lat="43.31161" lon="-0.53053">
        <ele>184</ele>
        <time>2013-02-10T08:56:42</time>
      </trkpt>
      <trkpt lat="43.31155" lon="-0.53061">
        <ele>186</ele>
        <time>2013-02-10T08:56:47</time>
      </trkpt>
      <trkpt lat="43.31149" lon="-0.53069">
        <ele>185</ele>
        <time>2013-02-10T08:56:53</time>
      </trkpt>
      <trkpt lat="43.31142" lon="-0.53076">
        <ele>187</ele>
        <time>2013-02-10T08:56:58</time>
      </trkpt>
      <trkpt lat="43.31133" lon="-0.53086">
        <ele>187</ele>
        <time>2013-02-10T08:57:03</time>
      </trkpt>
      <trkpt lat="43.31126" lon="-0.53093">
        <ele>188</ele>
        <time>2013-02-10T08:57:08</time>
      </trkpt>
      <trkpt lat="43.31118" lon="-0.53101">
        <ele>188</ele>
        <time>2013-02-10T08:57:13</time>
      </trkpt>
      <trkpt lat="43.3111" lon="-0.53107">
        <ele>190</ele>
        <time>2013-02-10T08:57:18</time>
      </trkpt>
      <trkpt lat="43.31102" lon="-0.53113">
        <ele>190</ele>
        <time>2013-02-10T08:57:23</time>
      </trkpt>
      <trkpt lat="43.31096" lon="-0.53117">
        <ele>191</ele>
        <time>2013-02-10T08:57:28</time>
      </trkpt>
      <trkpt lat="43.31088" lon="-0.53127">
        <ele>190</ele>
        <time>2013-02-10T08:57:33</time>
      </trkpt>
      <trkpt lat="43.3108" lon="-0.53133">
        <ele>191</ele>
        <time>2013-02-10T08:57:38</time>
      </trkpt>
      <trkpt lat="43.31076" lon="-0.53137">
        <ele>192</ele>
        <time>2013-02-10T08:57:43</time>
      </trkpt>
      <trkpt lat="43.31065" lon="-0.53144">
        <ele>194</ele>
        <time>2013-02-10T08:57:48</time>
      </trkpt>
      <trkpt lat="43.31058" lon="-0.53148">
        <ele>194</ele>
        <time>2013-02-10T08:57:53</time>
      </trkpt>
      <trkpt lat="43.3105" lon="-0.53151">
        <ele>194</ele>
        <time>2013-02-10T08:57:58</time>
      </trkpt>
      <trkpt lat="43.31041" lon="-0.53158">
        <ele>194</ele>
        <time>2013-02-10T08:58:03</time>
      </trkpt>
      <trkpt lat="43.31034" lon="-0.53162">
        <ele>196</ele>
        <time>2013-02-10T08:58:08</time>
      </trkpt>
      <trkpt lat="43.31024" lon="-0.53169">
        <ele>196</ele>
        <time>2013-02-10T08:58:13</time>
      </trkpt>
      <trkpt lat="43.31017" lon="-0.53177">
        <ele>198</ele>
        <time>2013-02-10T08:58:18</time>
      </trkpt>
      <trkpt lat="43.31012" lon="-0.53187">
        <ele>196</ele>
        <time>2013-02-10T08:58:23</time>
      </trkpt>
      <trkpt lat="43.31006" lon="-0.53195">
        <ele>196</ele>
        <time>2013-02-10T08:58:29</time>
      </trkpt>
      <trkpt lat="43.30999" lon="-0.53202">
        <ele>197</ele>
        <time>2013-02-10T08:58:34</time>
      </trkpt>
      <trkpt lat="43.30999" lon="-0.53202">
        <ele>199</ele>
        <time>2013-02-10T08:58:39</time>
      </trkpt>
      <trkpt lat="43.30999" lon="-0.53202">
        <ele>199</ele>
        <time>2013-02-10T08:58:44</time>
      </trkpt>
      <trkpt lat="43.30999" lon="-0.53202">
        <ele>200</ele>
        <time>2013-02-10T08:58:49</time>
      </trkpt>
      <trkpt lat="43.30999" lon="-0.53202">
        <ele>200</ele>
        <time>2013-02-10T08:58:54</time>
      </trkpt>
      <trkpt lat="43.30964" lon="-0.53232">
        <ele>200</ele>
        <time>2013-02-10T08:58:59</time>
      </trkpt>
      <trkpt lat="43.30962" lon="-0.53233">
        <ele>200</ele>
        <time>2013-02-10T08:59:04</time>
      </trkpt>
      <trkpt lat="43.30962" lon="-0.53233">
        <ele>202</ele>
        <time>2013-02-10T08:59:09</time>
      </trkpt>
      <trkpt lat="43.30962" lon="-0.53233">
        <ele>203</ele>
        <time>2013-02-10T08:59:14</time>
      </trkpt>
      <trkpt lat="43.30962" lon="-0.53233">
        <ele>203</ele>
        <time>2013-02-10T08:59:19</time>
      </trkpt>
      <trkpt lat="43.30927" lon="-0.53256">
        <ele>206</ele>
        <time>2013-02-10T08:59:24</time>
      </trkpt>
      <trkpt lat="43.30926" lon="-0.53257">
        <ele>206</ele>
        <time>2013-02-10T08:59:29</time>
      </trkpt>
      <trkpt lat="43.30926" lon="-0.53257">
        <ele>207</ele>
        <time>2013-02-10T08:59:34</time>
      </trkpt>
      <trkpt lat="43.30926" lon="-0.53257">
        <ele>207</ele>
        <time>2013-02-10T08:59:39</time>
      </trkpt>
      <trkpt lat="43.30926" lon="-0.53257">
        <ele>208</ele>
        <time>2013-02-10T08:59:44</time>
      </trkpt>
      <trkpt lat="43.30893" lon="-0.53284">
        <ele>208</ele>
        <time>2013-02-10T08:59:49</time>
      </trkpt>
      <trkpt lat="43.3089" lon="-0.53285">
        <ele>209</ele>
        <time>2013-02-10T08:59:54</time>
      </trkpt>
      <trkpt lat="43.3089" lon="-0.53285">
        <ele>210</ele>
        <time>2013-02-10T08:59:59</time>
      </trkpt>
      <trkpt lat="43.3089" lon="-0.53285">
        <ele>210</ele>
        <time>2013-02-10T09:00:04</time>
      </trkpt>
      <trkpt lat="43.30865" lon="-0.53306">
        <ele>210</ele>
        <time>2013-02-10T09:00:10</time>
      </trkpt>
      <trkpt lat="43.30865" lon="-0.53306">
        <ele>211</ele>
        <time>2013-02-10T09:00:15</time>
      </trkpt>
      <trkpt lat="43.30865" lon="-0.53306">
        <ele>211</ele>
        <time>2013-02-10T09:00:20</time>
      </trkpt>
      <trkpt lat="43.30865" lon="-0.53306">
        <ele>211</ele>
        <time>2013-02-10T09:00:25</time>
      </trkpt>
      <trkpt lat="43.30865" lon="-0.53306">
        <ele>212</ele>
        <time>2013-02-10T09:00:30</time>
      </trkpt>
      <trkpt lat="43.30831" lon="-0.53336">
        <ele>214</ele>
        <time>2013-02-10T09:00:35</time>
      </trkpt>
      <trkpt lat="43.3083" lon="-0.53337">
        <ele>214</ele>
        <time>2013-02-10T09:00:40</time>
      </trkpt>
      <trkpt lat="43.3083" lon="-0.53337">
        <ele>215</ele>
        <time>2013-02-10T09:00:45</time>
      </trkpt>
      <trkpt lat="43.3083" lon="-0.53337">
        <ele>217</ele>
        <time>2013-02-10T09:00:50</time>
      </trkpt>
      <trkpt lat="43.3083" lon="-0.53337">
        <ele>218</ele>
        <time>2013-02-10T09:00:55</time>
      </trkpt>
      <trkpt lat="43.3083" lon="-0.53337">
        <ele>218</ele>
        <time>2013-02-10T09:01:00</time>
      </trkpt>
      <trkpt lat="43.3083" lon="-0.53337">
        <ele>220</ele>
        <time>2013-02-10T09:01:05</time>
      </trkpt>
      <trkpt lat="43.30806" lon="-0.53378">
        <ele>221</ele>
        <time>2013-02-10T09:01:10</time>
      </trkpt>
      <trkpt lat="43.30806" lon="-0.53378">
        <ele>221</ele>
        <time>2013-02-10T09:01:15</time>
      </trkpt>
      <trkpt lat="43.30806" lon="-0.53378">
        <ele>220</ele>
        <time>2013-02-10T09:01:20</time>
      </trkpt>
      <trkpt lat="43.30806" lon="-0.53378">
        <ele>222</ele>
        <time>2013-02-10T09:01:25</time>
      </trkpt>
      <trkpt lat="43.30806" lon="-0.53378">
        <ele>224</ele>
        <time>2013-02-10T09:01:30</time>
      </trkpt>
      <trkpt lat="43.30781" lon="-0.5342">
        <ele>224</ele>
        <time>2013-02-10T09:01:35</time>
      </trkpt>
      <trkpt lat="43.30773" lon="-0.53429">
        <ele>226</ele>
        <time>2013-02-10T09:01:41</time>
      </trkpt>
      <trkpt lat="43.30765" lon="-0.53435">
        <ele>226</ele>
        <time>2013-02-10T09:01:46</time>
      </trkpt>
      <trkpt lat="43.30759" lon="-0.53443">
        <ele>227</ele>
        <time>2013-02-10T09:01:51</time>
      </trkpt>
      <trkpt lat="43.30758" lon="-0.53444">
        <ele>228</ele>
        <time>2013-02-10T09:01:56</time>
      </trkpt>
      <trkpt lat="43.30758" lon="-0.53444">
        <ele>228</ele>
        <time>2013-02-10T09:02:01</time>
      </trkpt>
      <trkpt lat="43.30758" lon="-0.53444">
        <ele>229</ele>
        <time>2013-02-10T09:02:06</time>
      </trkpt>
      <trkpt lat="43.30736" lon="-0.53471">
        <ele>230</ele>
        <time>2013-02-10T09:02:11</time>
      </trkpt>
      <trkpt lat="43.3073" lon="-0.5348">
        <ele>230</ele>
        <time>2013-02-10T09:02:16</time>
      </trkpt>
      <trkpt lat="43.30725" lon="-0.5349">
        <ele>230</ele>
        <time>2013-02-10T09:02:21</time>
      </trkpt>
      <trkpt lat="43.30719" lon="-0.53498">
        <ele>231</ele>
        <time>2013-02-10T09:02:26</time>
      </trkpt>
      <trkpt lat="43.30714" lon="-0.53506">
        <ele>231</ele>
        <time>2013-02-10T09:02:31</time>
      </trkpt>
      <trkpt lat="43.30707" lon="-0.53514">
        <ele>231</ele>
        <time>2013-02-10T09:02:36</time>
      </trkpt>
      <trkpt lat="43.307" lon="-0.53522">
        <ele>232</ele>
        <time>2013-02-10T09:02:41</time>
      </trkpt>
      <trkpt lat="43.3069" lon="-0.53522">
        <ele>231</ele>
        <time>2013-02-10T09:02:46</time>
      </trkpt>
      <trkpt lat="43.30681" lon="-0.53519">
        <ele>233</ele>
        <time>2013-02-10T09:02:51</time>
      </trkpt>
      <trkpt lat="43.30673" lon="-0.53516">
        <ele>234</ele>
        <time>2013-02-10T09:02:56</time>
      </trkpt>
      <trkpt lat="43.30663" lon="-0.53513">
        <ele>234</ele>
        <time>2013-02-10T09:03:01</time>
      </trkpt>
      <trkpt lat="43.30654" lon="-0.5351">
        <ele>235</ele>
        <time>2013-02-10T09:03:06</time>
      </trkpt>
      <trkpt lat="43.30645" lon="-0.53509">
        <ele>237</ele>
        <time>2013-02-10T09:03:11</time>
      </trkpt>
      <trkpt lat="43.30637" lon="-0.53506">
        <ele>237</ele>
        <time>2013-02-10T09:03:16</time>
      </trkpt>
      <trkpt lat="43.30629" lon="-0.53504">
        <ele>238</ele>
        <time>2013-02-10T09:03:21</time>
      </trkpt>
      <trkpt lat="43.30622" lon="-0.53502">
        <ele>237</ele>
        <time>2013-02-10T09:03:26</time>
      </trkpt>
      <trkpt lat="43.30614" lon="-0.535">
        <ele>238</ele>
        <time>2013-02-10T09:03:31</time>
      </trkpt>
      <trkpt lat="43.30605" lon="-0.53498">
        <ele>238</ele>
        <time>2013-02-10T09:03:37</time>
      </trkpt>
      <trkpt lat="43.30598" lon="-0.53495">
        <ele>239</ele>
        <time>2013-02-10T09:03:42</time>
      </trkpt>
      <trkpt lat="43.3059" lon="-0.53493">
        <ele>242</ele>
        <time>2013-02-10T09:03:47</time>
      </trkpt>
      <trkpt lat="43.30583" lon="-0.53491">
        <ele>243</ele>
        <time>2013-02-10T09:03:52</time>
      </trkpt>
      <trkpt lat="43.30576" lon="-0.53487">
        <ele>243</ele>
        <time>2013-02-10T09:03:57</time>
      </trkpt>
      <trkpt lat="43.30568" lon="-0.53485">
        <ele>245</ele>
        <time>2013-02-10T09:04:02</time>
      </trkpt>
      <trkpt lat="43.30561" lon="-0.53483">
        <ele>245</ele>
        <time>2013-02-10T09:04:07</time>
      </trkpt>
      <trkpt lat="43.30556" lon="-0.53486">
        <ele>246</ele>
        <time>2013-02-10T09:04:12</time>
      </trkpt>
      <trkpt lat="43.30556" lon="-0.53486">
        <ele>247</ele>
        <time>2013-02-10T09:04:17</time>
      </trkpt>
      <trkpt lat="43.30556" lon="-0.53486">
        <ele>247</ele>
        <time>2013-02-10T09:04:22</time>
      </trkpt>
      <trkpt lat="43.30545" lon="-0.5351">
        <ele>249</ele>
        <time>2013-02-10T09:04:27</time>
      </trkpt>
      <trkpt lat="43.30541" lon="-0.53519">
        <ele>252</ele>
        <time>2013-02-10T09:04:32</time>
      </trkpt>
      <trkpt lat="43.30537" lon="-0.53527">
        <ele>253</ele>
        <time>2013-02-10T09:04:37</time>
      </trkpt>
      <trkpt lat="43.30533" lon="-0.53535">
        <ele>254</ele>
        <time>2013-02-10T09:04:42</time>
      </trkpt>
      <trkpt lat="43.30528" lon="-0.53545">
        <ele>254</ele>
        <time>2013-02-10T09:04:47</time>
      </trkpt>
      <trkpt lat="43.30523" lon="-0.53553">
        <ele>257</ele>
        <time>2013-02-10T09:04:52</time>
      </trkpt>
      <trkpt lat="43.30518" lon="-0.5356">
        <ele>256</ele>
        <time>2013-02-10T09:04:57</time>
      </trkpt>
      <trkpt lat="43.30516" lon="-0.53565">
        <ele>258</ele>
        <time>2013-02-10T09:05:03</time>
      </trkpt>
      <trkpt lat="43.3051" lon="-0.53574">
        <ele>258</ele>
        <time>2013-02-10T09:05:08</time>
      </trkpt>
      <trkpt lat="43.30505" lon="-0.53581">
        <ele>258</ele>
        <time>2013-02-10T09:05:13</time>
      </trkpt>
      <trkpt lat="43.305" lon="-0.53588">
        <ele>259</ele>
        <time>2013-02-10T09:05:18</time>
      </trkpt>
      <trkpt lat="43.30493" lon="-0.53597">
        <ele>261</ele>
        <time>2013-02-10T09:05:23</time>
      </trkpt>
      <trkpt lat="43.30489" lon="-0.53599">
        <ele>263</ele>
        <time>2013-02-10T09:05:28</time>
      </trkpt>
      <trkpt lat="43.30476" lon="-0.53583">
        <ele>262</ele>
        <time>2013-02-10T09:05:33</time>
      </trkpt>
      <trkpt lat="43.30454" lon="-0.53552">
        <ele>260</ele>
        <time>2013-02-10T09:05:38</time>
      </trkpt>
      <trkpt lat="43.30433" lon="-0.53525">
        <ele>260</ele>
        <time>2013-02-10T09:05:43</time>
      </trkpt>
      <trkpt lat="43.30414" lon="-0.53501">
        <ele>258</ele>
        <time>2013-02-10T09:05:48</time>
      </trkpt>
      <trkpt lat="43.30392" lon="-0.53482">
        <ele>256</ele>
        <time>2013-02-10T09:05:53</time>
      </trkpt>
      <trkpt lat="43.30375" lon="-0.53459">
        <ele>256</ele>
        <time>2013-02-10T09:05:58</time>
      </trkpt>
      <trkpt lat="43.30363" lon="-0.53443">
        <ele>254</ele>
        <time>2013-02-10T09:06:03</time>
      </trkpt>
      <trkpt lat="43.30352" lon="-0.53431">
        <ele>253</ele>
        <time>2013-02-10T09:06:08</time>
      </trkpt>
      <trkpt lat="43.30338" lon="-0.53415">
        <ele>253</ele>
        <time>2013-02-10T09:06:13</time>
      </trkpt>
      <trkpt lat="43.30324" lon="-0.53395">
        <ele>252</ele>
        <time>2013-02-10T09:06:18</time>
      </trkpt>
      <trkpt lat="43.30313" lon="-0.5338">
        <ele>251</ele>
        <time>2013-02-10T09:06:23</time>
      </trkpt>
      <trkpt lat="43.30305" lon="-0.53368">
        <ele>251</ele>
        <time>2013-02-10T09:06:28</time>
      </trkpt>
      <trkpt lat="43.30294" lon="-0.53355">
        <ele>252</ele>
        <time>2013-02-10T09:06:33</time>
      </trkpt>
      <trkpt lat="43.3028" lon="-0.53341">
        <ele>249</ele>
        <time>2013-02-10T09:06:38</time>
      </trkpt>
      <trkpt lat="43.30265" lon="-0.53325">
        <ele>248</ele>
        <time>2013-02-10T09:06:43</time>
      </trkpt>
      <trkpt lat="43.30252" lon="-0.53309">
        <ele>249</ele>
        <time>2013-02-10T09:06:49</time>
      </trkpt>
      <trkpt lat="43.30237" lon="-0.5329">
        <ele>248</ele>
        <time>2013-02-10T09:06:54</time>
      </trkpt>
      <trkpt lat="43.30224" lon="-0.53276">
        <ele>249</ele>
        <time>2013-02-10T09:06:59</time>
      </trkpt>
      <trkpt lat="43.30211" lon="-0.53263">
        <ele>249</ele>
        <time>2013-02-10T09:07:04</time>
      </trkpt>
      <trkpt lat="43.30198" lon="-0.5325">
        <ele>250</ele>
        <time>2013-02-10T09:07:09</time>
      </trkpt>
      <trkpt lat="43.30185" lon="-0.53241">
        <ele>249</ele>
        <time>2013-02-10T09:07:14</time>
      </trkpt>
      <trkpt lat="43.30174" lon="-0.53233">
        <ele>251</ele>
        <time>2013-02-10T09:07:19</time>
      </trkpt>
      <trkpt lat="43.30164" lon="-0.53225">
        <ele>251</ele>
        <time>2013-02-10T09:07:24</time>
      </trkpt>
      <trkpt lat="43.30153" lon="-0.5322">
        <ele>253</ele>
        <time>2013-02-10T09:07:29</time>
      </trkpt>
      <trkpt lat="43.30138" lon="-0.53213">
        <ele>255</ele>
        <time>2013-02-10T09:07:34</time>
      </trkpt>
      <trkpt lat="43.30125" lon="-0.53207">
        <ele>256</ele>
        <time>2013-02-10T09:07:39</time>
      </trkpt>
      <trkpt lat="43.30112" lon="-0.53201">
        <ele>257</ele>
        <time>2013-02-10T09:07:44</time>
      </trkpt>
      <trkpt lat="43.30099" lon="-0.53196">
        <ele>258</ele>
        <time>2013-02-10T09:07:49</time>
      </trkpt>
      <trkpt lat="43.30087" lon="-0.5319">
        <ele>258</ele>
        <time>2013-02-10T09:07:54</time>
      </trkpt>
      <trkpt lat="43.30075" lon="-0.53185">
        <ele>260</ele>
        <time>2013-02-10T09:07:59</time>
      </trkpt>
      <trkpt lat="43.30062" lon="-0.53179">
        <ele>261</ele>
        <time>2013-02-10T09:08:04</time>
      </trkpt>
      <trkpt lat="43.30046" lon="-0.53171">
        <ele>261</ele>
        <time>2013-02-10T09:08:09</time>
      </trkpt>
      <trkpt lat="43.30032" lon="-0.53164">
        <ele>261</ele>
        <time>2013-02-10T09:08:14</time>
      </trkpt>
      <trkpt lat="43.30022" lon="-0.53159">
        <ele>260</ele>
        <time>2013-02-10T09:08:19</time>
      </trkpt>
      <trkpt lat="43.30008" lon="-0.53153">
        <ele>261</ele>
        <time>2013-02-10T09:08:24</time>
      </trkpt>
      <trkpt lat="43.29992" lon="-0.53145">
        <ele>261</ele>
        <time>2013-02-10T09:08:29</time>
      </trkpt>
      <trkpt lat="43.29974" lon="-0.53135">
        <ele>259</ele>
        <time>2013-02-10T09:08:34</time>
      </trkpt>
      <trkpt lat="43.29953" lon="-0.53125">
        <ele>259</ele>
        <time>2013-02-10T09:08:39</time>
      </trkpt>
      <trkpt lat="43.29939" lon="-0.53119">
        <ele>258</ele>
        <time>2013-02-10T09:08:44</time>
      </trkpt>
      <trkpt lat="43.29927" lon="-0.53113">
        <ele>259</ele>
        <time>2013-02-10T09:08:49</time>
      </trkpt>
      <trkpt lat="43.2992" lon="-0.53106">
        <ele>258</ele>
        <time>2013-02-10T09:08:54</time>
      </trkpt>
      <trkpt lat="43.2992" lon="-0.53106">
        <ele>258</ele>
        <time>2013-02-10T09:08:59</time>
      </trkpt>
      <trkpt lat="43.2992" lon="-0.53106">
        <ele>258</ele>
        <time>2013-02-10T09:09:04</time>
      </trkpt>
      <trkpt lat="43.2992" lon="-0.53106">
        <ele>258</ele>
        <time>2013-02-10T09:09:09</time>
      </trkpt>
      <trkpt lat="43.2992" lon="-0.53106">
        <ele>257</ele>
        <time>2013-02-10T09:09:14</time>
      </trkpt>
      <trkpt lat="43.2992" lon="-0.53106">
        <ele>256</ele>
        <time>2013-02-10T09:09:19</time>
      </trkpt>
      <trkpt lat="43.2992" lon="-0.53106">
        <ele>256</ele>
        <time>2013-02-10T09:09:25</time>
      </trkpt>
      <trkpt lat="43.2992" lon="-0.53106">
        <ele>257</ele>
        <time>2013-02-10T09:09:30</time>
      </trkpt>
      <trkpt lat="43.2992" lon="-0.53106">
        <ele>257</ele>
        <time>2013-02-10T09:09:35</time>
      </trkpt>
      <trkpt lat="43.2992" lon="-0.53106">
        <ele>258</ele>
        <time>2013-02-10T09:09:40</time>
      </trkpt>
      <trkpt lat="43.2992" lon="-0.53106">
        <ele>257</ele>
        <time>2013-02-10T09:09:45</time>
      </trkpt>
      <trkpt lat="43.2992" lon="-0.53106">
        <ele>257</ele>
        <time>2013-02-10T09:09:50</time>
      </trkpt>
      <trkpt lat="43.2992" lon="-0.53106">
        <ele>257</ele>
        <time>2013-02-10T09:09:55</time>
      </trkpt>
      <trkpt lat="43.2992" lon="-0.53106">
        <ele>257</ele>
        <time>2013-02-10T09:10:00</time>
      </trkpt>
      <trkpt lat="43.2992" lon="-0.53106">
        <ele>257</ele>
        <time>2013-02-10T09:10:05</time>
      </trkpt>
      <trkpt lat="43.2992" lon="-0.53106">
        <ele>257</ele>
        <time>2013-02-10T09:10:10</time>
      </trkpt>
      <trkpt lat="43.2992" lon="-0.53106">
        <ele>258</ele>
        <time>2013-02-10T09:10:15</time>
      </trkpt>
      <trkpt lat="43.2992" lon="-0.53106">
        <ele>258</ele>
        <time>2013-02-10T09:10:20</time>
      </trkpt>
      <trkpt lat="43.2992" lon="-0.53106">
        <ele>257</ele>
        <time>2013-02-10T09:10:25</time>
      </trkpt>
      <trkpt lat="43.2992" lon="-0.53106">
        <ele>258</ele>
        <time>2013-02-10T09:10:30</time>
      </trkpt>
      <trkpt lat="43.2992" lon="-0.53106">
        <ele>258</ele>
        <time>2013-02-10T09:10:35</time>
      </trkpt>
      <trkpt lat="43.2992" lon="-0.53106">
        <ele>258</ele>
        <time>2013-02-10T09:10:40</time>
      </trkpt>
      <trkpt lat="43.2992" lon="-0.53106">
        <ele>257</ele>
        <time>2013-02-10T09:10:45</time>
      </trkpt>
      <trkpt lat="43.2992" lon="-0.53106">
        <ele>259</ele>
        <time>2013-02-10T09:10:50</time>
      </trkpt>
      <trkpt lat="43.2992" lon="-0.53106">
        <ele>258</ele>
        <time>2013-02-10T09:10:55</time>
      </trkpt>
      <trkpt lat="43.2992" lon="-0.53106">
        <ele>257</ele>
        <time>2013-02-10T09:11:00</time>
      </trkpt>
      <trkpt lat="43.2992" lon="-0.53106">
        <ele>255</ele>
        <time>2013-02-10T09:11:05</time>
      </trkpt>
      <trkpt lat="43.2992" lon="-0.53106">
        <ele>257</ele>
        <time>2013-02-10T09:11:10</time>
      </trkpt>
      <trkpt lat="43.2992" lon="-0.53106">
        <ele>257</ele>
        <time>2013-02-10T09:11:15</time>
      </trkpt>
      <trkpt lat="43.2992" lon="-0.53106">
        <ele>257</ele>
        <time>2013-02-10T09:11:20</time>
      </trkpt>
      <trkpt lat="43.2992" lon="-0.53106">
        <ele>258</ele>
        <time>2013-02-10T09:11:25</time>
      </trkpt>
      <trkpt lat="43.2992" lon="-0.53106">
        <ele>257</ele>
        <time>2013-02-10T09:11:30</time>
      </trkpt>
      <trkpt lat="43.2992" lon="-0.53106">
        <ele>258</ele>
        <time>2013-02-10T09:11:35</time>
      </trkpt>
      <trkpt lat="43.2992" lon="-0.53106">
        <ele>258</ele>
        <time>2013-02-10T09:11:40</time>
      </trkpt>
      <trkpt lat="43.2992" lon="-0.53106">
        <ele>258</ele>
        <time>2013-02-10T09:11:45</time>
      </trkpt>
      <trkpt lat="43.2992" lon="-0.53106">
        <ele>258</ele>
        <time>2013-02-10T09:11:50</time>
      </trkpt>
      <trkpt lat="43.2992" lon="-0.53106">
        <ele>259</ele>
        <time>2013-02-10T09:11:56</time>
      </trkpt>
      <trkpt lat="43.2992" lon="-0.53106">
        <ele>258</ele>
        <time>2013-02-10T09:12:01</time>
      </trkpt>
      <trkpt lat="43.2992" lon="-0.53106">
        <ele>258</ele>
        <time>2013-02-10T09:12:06</time>
      </trkpt>
      <trkpt lat="43.2992" lon="-0.53106">
        <ele>258</ele>
        <time>2013-02-10T09:12:11</time>
      </trkpt>
      <trkpt lat="43.2992" lon="-0.53106">
        <ele>258</ele>
        <time>2013-02-10T09:12:16</time>
      </trkpt>
      <trkpt lat="43.2992" lon="-0.53106">
        <ele>257</ele>
        <time>2013-02-10T09:12:21</time>
      </trkpt>
      <trkpt lat="43.2992" lon="-0.53106">
        <ele>257</ele>
        <time>2013-02-10T09:12:26</time>
      </trkpt>
      <trkpt lat="43.2992" lon="-0.53106">
        <ele>257</ele>
        <time>2013-02-10T09:12:31</time>
      </trkpt>
      <trkpt lat="43.2992" lon="-0.53106">
        <ele>257</ele>
        <time>2013-02-10T09:12:36</time>
      </trkpt>
      <trkpt lat="43.2992" lon="-0.53106">
        <ele>258</ele>
        <time>2013-02-10T09:12:41</time>
      </trkpt>
      <trkpt lat="43.2992" lon="-0.53106">
        <ele>258</ele>
        <time>2013-02-10T09:12:46</time>
      </trkpt>
      <trkpt lat="43.2992" lon="-0.53106">
        <ele>259</ele>
        <time>2013-02-10T09:12:51</time>
      </trkpt>
      <trkpt lat="43.2992" lon="-0.53106">
        <ele>258</ele>
        <time>2013-02-10T09:12:56</time>
      </trkpt>
      <trkpt lat="43.2992" lon="-0.53106">
        <ele>258</ele>
        <time>2013-02-10T09:13:01</time>
      </trkpt>
      <trkpt lat="43.2992" lon="-0.53106">
        <ele>259</ele>
        <time>2013-02-10T09:13:06</time>
      </trkpt>
      <trkpt lat="43.2992" lon="-0.53106">
        <ele>258</ele>
        <time>2013-02-10T09:13:11</time>
      </trkpt>
      <trkpt lat="43.2992" lon="-0.53106">
        <ele>258</ele>
        <time>2013-02-10T09:13:16</time>
      </trkpt>
      <trkpt lat="43.2992" lon="-0.53106">
        <ele>257</ele>
        <time>2013-02-10T09:13:21</time>
      </trkpt>
      <trkpt lat="43.2992" lon="-0.53106">
        <ele>259</ele>
        <time>2013-02-10T09:13:26</time>
      </trkpt>
      <trkpt lat="43.2992" lon="-0.53106">
        <ele>258</ele>
        <time>2013-02-10T09:13:31</time>
      </trkpt>
      <trkpt lat="43.2992" lon="-0.53106">
        <ele>258</ele>
        <time>2013-02-10T09:13:36</time>
      </trkpt>
      <trkpt lat="43.2992" lon="-0.53106">
        <ele>260</ele>
        <time>2013-02-10T09:13:41</time>
      </trkpt>
      <trkpt lat="43.2992" lon="-0.53106">
        <ele>259</ele>
        <time>2013-02-10T09:13:46</time>
      </trkpt>
      <trkpt lat="43.2992" lon="-0.53106">
        <ele>259</ele>
        <time>2013-02-10T09:13:51</time>
      </trkpt>
      <trkpt lat="43.2992" lon="-0.53106">
        <ele>258</ele>
        <time>2013-02-10T09:13:56</time>
      </trkpt>
      <trkpt lat="43.2992" lon="-0.53106">
        <ele>259</ele>
        <time>2013-02-10T09:14:01</time>
      </trkpt>
      <trkpt lat="43.2992" lon="-0.53106">
        <ele>259</ele>
        <time>2013-02-10T09:14:06</time>
      </trkpt>
      <trkpt lat="43.2992" lon="-0.53106">
        <ele>258</ele>
        <time>2013-02-10T09:14:11</time>
      </trkpt>
      <trkpt lat="43.2992" lon="-0.53106">
        <ele>259</ele>
        <time>2013-02-10T09:14:17</time>
      </trkpt>
      <trkpt lat="43.2992" lon="-0.53106">
        <ele>257</ele>
        <time>2013-02-10T09:14:22</time>
      </trkpt>
      <trkpt lat="43.2992" lon="-0.53106">
        <ele>259</ele>
        <time>2013-02-10T09:14:27</time>
      </trkpt>
      <trkpt lat="43.2992" lon="-0.53106">
        <ele>258</ele>
        <time>2013-02-10T09:14:32</time>
      </trkpt>
      <trkpt lat="43.2992" lon="-0.53106">
        <ele>259</ele>
        <time>2013-02-10T09:14:37</time>
      </trkpt>
      <trkpt lat="43.2992" lon="-0.53106">
        <ele>259</ele>
        <time>2013-02-10T09:14:42</time>
      </trkpt>
      <trkpt lat="43.2992" lon="-0.53106">
        <ele>259</ele>
        <time>2013-02-10T09:14:47</time>
      </trkpt>
      <trkpt lat="43.2992" lon="-0.53106">
        <ele>258</ele>
        <time>2013-02-10T09:14:52</time>
      </trkpt>
      <trkpt lat="43.2992" lon="-0.53106">
        <ele>260</ele>
        <time>2013-02-10T09:14:57</time>
      </trkpt>
      <trkpt lat="43.2992" lon="-0.53106">
        <ele>259</ele>
        <time>2013-02-10T09:15:02</time>
      </trkpt>
      <trkpt lat="43.2992" lon="-0.53106">
        <ele>259</ele>
        <time>2013-02-10T09:15:07</time>
      </trkpt>
      <trkpt lat="43.2992" lon="-0.53106">
        <ele>258</ele>
        <time>2013-02-10T09:15:12</time>
      </trkpt>
      <trkpt lat="43.2992" lon="-0.53106">
        <ele>259</ele>
        <time>2013-02-10T09:15:17</time>
      </trkpt>
      <trkpt lat="43.2992" lon="-0.53106">
        <ele>258</ele>
        <time>2013-02-10T09:15:22</time>
      </trkpt>
      <trkpt lat="43.2992" lon="-0.53106">
        <ele>259</ele>
        <time>2013-02-10T09:15:27</time>
      </trkpt>
      <trkpt lat="43.2992" lon="-0.53106">
        <ele>257</ele>
        <time>2013-02-10T09:15:32</time>
      </trkpt>
      <trkpt lat="43.2992" lon="-0.53106">
        <ele>259</ele>
        <time>2013-02-10T09:15:37</time>
      </trkpt>
      <trkpt lat="43.2992" lon="-0.53106">
        <ele>258</ele>
        <time>2013-02-10T09:15:42</time>
      </trkpt>
      <trkpt lat="43.2992" lon="-0.53106">
        <ele>259</ele>
        <time>2013-02-10T09:15:47</time>
      </trkpt>
      <trkpt lat="43.2992" lon="-0.53106">
        <ele>258</ele>
        <time>2013-02-10T09:15:52</time>
      </trkpt>
      <trkpt lat="43.2992" lon="-0.53106">
        <ele>258</ele>
        <time>2013-02-10T09:15:57</time>
      </trkpt>
      <trkpt lat="43.2992" lon="-0.53106">
        <ele>258</ele>
        <time>2013-02-10T09:16:02</time>
      </trkpt>
      <trkpt lat="43.2992" lon="-0.53106">
        <ele>258</ele>
        <time>2013-02-10T09:16:07</time>
      </trkpt>
      <trkpt lat="43.2992" lon="-0.53106">
        <ele>258</ele>
        <time>2013-02-10T09:16:12</time>
      </trkpt>
      <trkpt lat="43.2992" lon="-0.53106">
        <ele>259</ele>
        <time>2013-02-10T09:16:17</time>
      </trkpt>
      <trkpt lat="43.2992" lon="-0.53106">
        <ele>259</ele>
        <time>2013-02-10T09:16:23</time>
      </trkpt>
      <trkpt lat="43.2992" lon="-0.53106">
        <ele>256</ele>
        <time>2013-02-10T09:16:28</time>
      </trkpt>
      <trkpt lat="43.2992" lon="-0.53106">
        <ele>257</ele>
        <time>2013-02-10T09:16:33</time>
      </trkpt>
      <trkpt lat="43.2992" lon="-0.53106">
        <ele>252</ele>
        <time>2013-02-10T09:16:38</time>
      </trkpt>
      <trkpt lat="43.2992" lon="-0.53106">
        <ele>258</ele>
        <time>2013-02-10T09:16:43</time>
      </trkpt>
      <trkpt lat="43.2992" lon="-0.53106">
        <ele>258</ele>
        <time>2013-02-10T09:16:48</time>
      </trkpt>
      <trkpt lat="43.2992" lon="-0.53106">
        <ele>258</ele>
        <time>2013-02-10T09:16:53</time>
      </trkpt>
      <trkpt lat="43.2992" lon="-0.53106">
        <ele>258</ele>
        <time>2013-02-10T09:16:58</time>
      </trkpt>
      <trkpt lat="43.2992" lon="-0.53106">
        <ele>259</ele>
        <time>2013-02-10T09:17:03</time>
      </trkpt>
      <trkpt lat="43.2992" lon="-0.53106">
        <ele>258</ele>
        <time>2013-02-10T09:17:08</time>
      </trkpt>
      <trkpt lat="43.2992" lon="-0.53106">
        <ele>259</ele>
        <time>2013-02-10T09:17:13</time>
      </trkpt>
      <trkpt lat="43.2992" lon="-0.53106">
        <ele>259</ele>
        <time>2013-02-10T09:17:18</time>
      </trkpt>
      <trkpt lat="43.2992" lon="-0.53106">
        <ele>259</ele>
        <time>2013-02-10T09:17:23</time>
      </trkpt>
      <trkpt lat="43.2992" lon="-0.53106">
        <ele>258</ele>
        <time>2013-02-10T09:17:28</time>
      </trkpt>
      <trkpt lat="43.2992" lon="-0.53106">
        <ele>259</ele>
        <time>2013-02-10T09:17:33</time>
      </trkpt>
      <trkpt lat="43.2992" lon="-0.53106">
        <ele>255</ele>
        <time>2013-02-10T09:17:38</time>
      </trkpt>
      <trkpt lat="43.2992" lon="-0.53106">
        <ele>255</ele>
        <time>2013-02-10T09:17:43</time>
      </trkpt>
      <trkpt lat="43.2992" lon="-0.53106">
        <ele>259</ele>
        <time>2013-02-10T09:17:48</time>
      </trkpt>
      <trkpt lat="43.2992" lon="-0.53106">
        <ele>259</ele>
        <time>2013-02-10T09:17:53</time>
      </trkpt>
      <trkpt lat="43.2992" lon="-0.53106">
        <ele>259</ele>
        <time>2013-02-10T09:17:58</time>
      </trkpt>
      <trkpt lat="43.2992" lon="-0.53106">
        <ele>258</ele>
        <time>2013-02-10T09:18:04</time>
      </trkpt>
      <trkpt lat="43.2992" lon="-0.53106">
        <ele>257</ele>
        <time>2013-02-10T09:18:09</time>
      </trkpt>
      <trkpt lat="43.29925" lon="-0.53097">
        <ele>258</ele>
        <time>2013-02-10T09:18:14</time>
      </trkpt>
      <trkpt lat="43.29937" lon="-0.53089">
        <ele>259</ele>
        <time>2013-02-10T09:18:19</time>
      </trkpt>
      <trkpt lat="43.29953" lon="-0.53079">
        <ele>257</ele>
        <time>2013-02-10T09:18:24</time>
      </trkpt>
      <trkpt lat="43.29973" lon="-0.53065">
        <ele>257</ele>
        <time>2013-02-10T09:18:29</time>
      </trkpt>
      <trkpt lat="43.29993" lon="-0.53052">
        <ele>256</ele>
        <time>2013-02-10T09:18:34</time>
      </trkpt>
      <trkpt lat="43.30011" lon="-0.5304">
        <ele>253</ele>
        <time>2013-02-10T09:18:39</time>
      </trkpt>
      <trkpt lat="43.3003" lon="-0.53027">
        <ele>254</ele>
        <time>2013-02-10T09:18:44</time>
      </trkpt>
      <trkpt lat="43.30048" lon="-0.53012">
        <ele>253</ele>
        <time>2013-02-10T09:18:49</time>
      </trkpt>
      <trkpt lat="43.30067" lon="-0.52998">
        <ele>251</ele>
        <time>2013-02-10T09:18:54</time>
      </trkpt>
      <trkpt lat="43.30083" lon="-0.52987">
        <ele>250</ele>
        <time>2013-02-10T09:18:59</time>
      </trkpt>
      <trkpt lat="43.30101" lon="-0.52974">
        <ele>250</ele>
        <time>2013-02-10T09:19:04</time>
      </trkpt>
      <trkpt lat="43.30108" lon="-0.52956">
        <ele>249</ele>
        <time>2013-02-10T09:19:09</time>
      </trkpt>
      <trkpt lat="43.30116" lon="-0.52932">
        <ele>248</ele>
        <time>2013-02-10T09:19:14</time>
      </trkpt>
      <trkpt lat="43.30126" lon="-0.52899">
        <ele>246</ele>
        <time>2013-02-10T09:19:19</time>
      </trkpt>
      <trkpt lat="43.30136" lon="-0.52862">
        <ele>245</ele>
        <time>2013-02-10T09:19:24</time>
      </trkpt>
      <trkpt lat="43.30151" lon="-0.52817">
        <ele>240</ele>
        <time>2013-02-10T09:19:29</time>
      </trkpt>
      <trkpt lat="43.30164" lon="-0.52764">
        <ele>236</ele>
        <time>2013-02-10T09:19:34</time>
      </trkpt>
      <trkpt lat="43.30172" lon="-0.52692">
        <ele>231</ele>
        <time>2013-02-10T09:19:39</time>
      </trkpt>
      <trkpt lat="43.30173" lon="-0.52639">
        <ele>227</ele>
        <time>2013-02-10T09:19:44</time>
      </trkpt>
      <trkpt lat="43.30174" lon="-0.52589">
        <ele>220</ele>
        <time>2013-02-10T09:19:49</time>
      </trkpt>
      <trkpt lat="43.30169" lon="-0.52545">
        <ele>213</ele>
        <time>2013-02-10T09:19:54</time>
      </trkpt>
      <trkpt lat="43.30158" lon="-0.52503">
        <ele>209</ele>
        <time>2013-02-10T09:19:59</time>
      </trkpt>
      <trkpt lat="43.30153" lon="-0.52458">
        <ele>203</ele>
        <time>2013-02-10T09:20:04</time>
      </trkpt>
      <trkpt lat="43.30153" lon="-0.52435">
        <ele>201</ele>
        <time>2013-02-10T09:20:09</time>
      </trkpt>
      <trkpt lat="43.30151" lon="-0.52414">
        <ele>199</ele>
        <time>2013-02-10T09:20:14</time>
      </trkpt>
      <trkpt lat="43.30151" lon="-0.52383">
        <ele>197</ele>
        <time>2013-02-10T09:20:19</time>
      </trkpt>
      <trkpt lat="43.30146" lon="-0.52322">
        <ele>194</ele>
        <time>2013-02-10T09:20:24</time>
      </trkpt>
      <trkpt lat="43.30142" lon="-0.52264">
        <ele>194</ele>
        <time>2013-02-10T09:20:29</time>
      </trkpt>
      <trkpt lat="43.30139" lon="-0.52207">
        <ele>187</ele>
        <time>2013-02-10T09:20:34</time>
      </trkpt>
      <trkpt lat="43.30141" lon="-0.52136">
        <ele>184</ele>
        <time>2013-02-10T09:20:39</time>
      </trkpt>
      <trkpt lat="43.30138" lon="-0.52064">
        <ele>177</ele>
        <time>2013-02-10T09:20:44</time>
      </trkpt>
      <trkpt lat="43.30132" lon="-0.52017">
        <ele>172</ele>
        <time>2013-02-10T09:20:50</time>
      </trkpt>
      <trkpt lat="43.30099" lon="-0.51991">
        <ele>169</ele>
        <time>2013-02-10T09:20:55</time>
      </trkpt>
      <trkpt lat="43.30064" lon="-0.51987">
        <ele>169</ele>
        <time>2013-02-10T09:21:00</time>
      </trkpt>
      <trkpt lat="43.30038" lon="-0.51989">
        <ele>168</ele>
        <time>2013-02-10T09:21:05</time>
      </trkpt>
      <trkpt lat="43.30022" lon="-0.51991">
        <ele>171</ele>
        <time>2013-02-10T09:21:10</time>
      </trkpt>
      <trkpt lat="43.29998" lon="-0.51997">
        <ele>170</ele>
        <time>2013-02-10T09:21:15</time>
      </trkpt>
      <trkpt lat="43.29972" lon="-0.52005">
        <ele>169</ele>
        <time>2013-02-10T09:21:20</time>
      </trkpt>
      <trkpt lat="43.2994" lon="-0.5201">
        <ele>168</ele>
        <time>2013-02-10T09:21:25</time>
      </trkpt>
      <trkpt lat="43.29912" lon="-0.5198">
        <ele>168</ele>
        <time>2013-02-10T09:21:30</time>
      </trkpt>
      <trkpt lat="43.29891" lon="-0.51957">
        <ele>167</ele>
        <time>2013-02-10T09:21:35</time>
      </trkpt>
      <trkpt lat="43.2987" lon="-0.51933">
        <ele>167</ele>
        <time>2013-02-10T09:21:40</time>
      </trkpt>
      <trkpt lat="43.29849" lon="-0.51909">
        <ele>168</ele>
        <time>2013-02-10T09:21:45</time>
      </trkpt>
      <trkpt lat="43.29832" lon="-0.51892">
        <ele>167</ele>
        <time>2013-02-10T09:21:50</time>
      </trkpt>
      <trkpt lat="43.29807" lon="-0.51874">
        <ele>169</ele>
        <time>2013-02-10T09:21:55</time>
      </trkpt>
      <trkpt lat="43.29792" lon="-0.51853">
        <ele>167</ele>
        <time>2013-02-10T09:22:00</time>
      </trkpt>
      <trkpt lat="43.29786" lon="-0.51816">
        <ele>167</ele>
        <time>2013-02-10T09:22:05</time>
      </trkpt>
      <trkpt lat="43.29782" lon="-0.51778">
        <ele>167</ele>
        <time>2013-02-10T09:22:10</time>
      </trkpt>
      <trkpt lat="43.29782" lon="-0.51734">
        <ele>165</ele>
        <time>2013-02-10T09:22:15</time>
      </trkpt>
      <trkpt lat="43.29781" lon="-0.51708">
        <ele>163</ele>
        <time>2013-02-10T09:22:20</time>
      </trkpt>
      <trkpt lat="43.29782" lon="-0.51657">
        <ele>162</ele>
        <time>2013-02-10T09:22:25</time>
      </trkpt>
      <trkpt lat="43.29784" lon="-0.51613">
        <ele>162</ele>
        <time>2013-02-10T09:22:30</time>
      </trkpt>
      <trkpt lat="43.29788" lon="-0.5157">
        <ele>161</ele>
        <time>2013-02-10T09:22:35</time>
      </trkpt>
      <trkpt lat="43.29795" lon="-0.51531">
        <ele>160</ele>
        <time>2013-02-10T09:22:40</time>
      </trkpt>
      <trkpt lat="43.29804" lon="-0.51483">
        <ele>159</ele>
        <time>2013-02-10T09:22:45</time>
      </trkpt>
      <trkpt lat="43.29811" lon="-0.51443">
        <ele>159</ele>
        <time>2013-02-10T09:22:51</time>
      </trkpt>
      <trkpt lat="43.29819" lon="-0.51403">
        <ele>158</ele>
        <time>2013-02-10T09:22:56</time>
      </trkpt>
      <trkpt lat="43.29826" lon="-0.51366">
        <ele>159</ele>
        <time>2013-02-10T09:23:01</time>
      </trkpt>
      <trkpt lat="43.29842" lon="-0.51333">
        <ele>158</ele>
        <time>2013-02-10T09:23:06</time>
      </trkpt>
      <trkpt lat="43.29866" lon="-0.5131">
        <ele>157</ele>
        <time>2013-02-10T09:23:11</time>
      </trkpt>
      <trkpt lat="43.29888" lon="-0.51285">
        <ele>157</ele>
        <time>2013-02-10T09:23:16</time>
      </trkpt>
      <trkpt lat="43.29896" lon="-0.51268">
        <ele>157</ele>
        <time>2013-02-10T09:23:21</time>
      </trkpt>
      <trkpt lat="43.29899" lon="-0.51224">
        <ele>157</ele>
        <time>2013-02-10T09:23:26</time>
      </trkpt>
      <trkpt lat="43.29884" lon="-0.51198">
        <ele>157</ele>
        <time>2013-02-10T09:23:31</time>
      </trkpt>
      <trkpt lat="43.29869" lon="-0.51173">
        <ele>157</ele>
        <time>2013-02-10T09:23:36</time>
      </trkpt>
      <trkpt lat="43.29861" lon="-0.5114">
        <ele>157</ele>
        <time>2013-02-10T09:23:41</time>
      </trkpt>
      <trkpt lat="43.29859" lon="-0.51104">
        <ele>157</ele>
        <time>2013-02-10T09:23:46</time>
      </trkpt>
      <trkpt lat="43.29869" lon="-0.51072">
        <ele>158</ele>
        <time>2013-02-10T09:23:51</time>
      </trkpt>
      <trkpt lat="43.29878" lon="-0.51044">
        <ele>157</ele>
        <time>2013-02-10T09:23:56</time>
      </trkpt>
      <trkpt lat="43.29893" lon="-0.51003">
        <ele>157</ele>
        <time>2013-02-10T09:24:01</time>
      </trkpt>
      <trkpt lat="43.29905" lon="-0.50959">
        <ele>156</ele>
        <time>2013-02-10T09:24:06</time>
      </trkpt>
      <trkpt lat="43.29897" lon="-0.50924">
        <ele>158</ele>
        <time>2013-02-10T09:24:11</time>
      </trkpt>
      <trkpt lat="43.29884" lon="-0.50891">
        <ele>158</ele>
        <time>2013-02-10T09:24:16</time>
      </trkpt>
      <trkpt lat="43.29865" lon="-0.50865">
        <ele>159</ele>
        <time>2013-02-10T09:24:21</time>
      </trkpt>
      <trkpt lat="43.29853" lon="-0.50851">
        <ele>158</ele>
        <time>2013-02-10T09:24:26</time>
      </trkpt>
      <trkpt lat="43.29827" lon="-0.50824">
        <ele>158</ele>
        <time>2013-02-10T09:24:31</time>
      </trkpt>
      <trkpt lat="43.29804" lon="-0.50801">
        <ele>157</ele>
        <time>2013-02-10T09:24:36</time>
      </trkpt>
      <trkpt lat="43.29781" lon="-0.50779">
        <ele>159</ele>
        <time>2013-02-10T09:24:41</time>
      </trkpt>
      <trkpt lat="43.2976" lon="-0.50756">
        <ele>159</ele>
        <time>2013-02-10T09:24:46</time>
      </trkpt>
      <trkpt lat="43.29748" lon="-0.50743">
        <ele>158</ele>
        <time>2013-02-10T09:24:51</time>
      </trkpt>
      <trkpt lat="43.29726" lon="-0.50723">
        <ele>158</ele>
        <time>2013-02-10T09:24:56</time>
      </trkpt>
      <trkpt lat="43.29691" lon="-0.50709">
        <ele>158</ele>
        <time>2013-02-10T09:25:01</time>
      </trkpt>
      <trkpt lat="43.2966" lon="-0.50704">
        <ele>160</ele>
        <time>2013-02-10T09:25:06</time>
      </trkpt>
      <trkpt lat="43.29647" lon="-0.50675">
        <ele>158</ele>
        <time>2013-02-10T09:25:12</time>
      </trkpt>
      <trkpt lat="43.29641" lon="-0.5064">
        <ele>159</ele>
        <time>2013-02-10T09:25:17</time>
      </trkpt>
      <trkpt lat="43.29657" lon="-0.50614">
        <ele>158</ele>
        <time>2013-02-10T09:25:22</time>
      </trkpt>
      <trkpt lat="43.2967" lon="-0.50603">
        <ele>158</ele>
        <time>2013-02-10T09:25:27</time>
      </trkpt>
      <trkpt lat="43.29685" lon="-0.50565">
        <ele>158</ele>
        <time>2013-02-10T09:25:32</time>
      </trkpt>
      <trkpt lat="43.29692" lon="-0.50524">
        <ele>159</ele>
        <time>2013-02-10T09:25:37</time>
      </trkpt>
      <trkpt lat="43.29695" lon="-0.50485">
        <ele>159</ele>
        <time>2013-02-10T09:25:42</time>
      </trkpt>
      <trkpt lat="43.29699" lon="-0.50448">
        <ele>160</ele>
        <time>2013-02-10T09:25:47</time>
      </trkpt>
      <trkpt lat="43.29705" lon="-0.50407">
        <ele>160</ele>
        <time>2013-02-10T09:25:52</time>
      </trkpt>
      <trkpt lat="43.29708" lon="-0.50388">
        <ele>161</ele>
        <time>2013-02-10T09:25:57</time>
      </trkpt>
      <trkpt lat="43.29719" lon="-0.50343">
        <ele>160</ele>
        <time>2013-02-10T09:26:02</time>
      </trkpt>
      <trkpt lat="43.29726" lon="-0.50312">
        <ele>161</ele>
        <time>2013-02-10T09:26:07</time>
      </trkpt>
      <trkpt lat="43.29732" lon="-0.50284">
        <ele>162</ele>
        <time>2013-02-10T09:26:12</time>
      </trkpt>
      <trkpt lat="43.29736" lon="-0.50255">
        <ele>162</ele>
        <time>2013-02-10T09:26:17</time>
      </trkpt>
      <trkpt lat="43.29742" lon="-0.5022">
        <ele>163</ele>
        <time>2013-02-10T09:26:22</time>
      </trkpt>
      <trkpt lat="43.29744" lon="-0.50191">
        <ele>164</ele>
        <time>2013-02-10T09:26:27</time>
      </trkpt>
      <trkpt lat="43.29751" lon="-0.50173">
        <ele>166</ele>
        <time>2013-02-10T09:26:32</time>
      </trkpt>
      <trkpt lat="43.29777" lon="-0.50173">
        <ele>166</ele>
        <time>2013-02-10T09:26:37</time>
      </trkpt>
      <trkpt lat="43.29808" lon="-0.5018">
        <ele>166</ele>
        <time>2013-02-10T09:26:42</time>
      </trkpt>
      <trkpt lat="43.29833" lon="-0.50191">
        <ele>166</ele>
        <time>2013-02-10T09:26:47</time>
      </trkpt>
      <trkpt lat="43.29851" lon="-0.50185">
        <ele>164</ele>
        <time>2013-02-10T09:26:52</time>
      </trkpt>
      <trkpt lat="43.2987" lon="-0.50182">
        <ele>165</ele>
        <time>2013-02-10T09:26:57</time>
      </trkpt>
      <trkpt lat="43.29885" lon="-0.50183">
        <ele>166</ele>
        <time>2013-02-10T09:27:02</time>
      </trkpt>
      <trkpt lat="43.29903" lon="-0.5019">
        <ele>167</ele>
        <time>2013-02-10T09:27:07</time>
      </trkpt>
      <trkpt lat="43.2993" lon="-0.50198">
        <ele>167</ele>
        <time>2013-02-10T09:27:12</time>
      </trkpt>
      <trkpt lat="43.2995" lon="-0.50205">
        <ele>167</ele>
        <time>2013-02-10T09:27:17</time>
      </trkpt>
      <trkpt lat="43.29966" lon="-0.50209">
        <ele>166</ele>
        <time>2013-02-10T09:27:22</time>
      </trkpt>
      <trkpt lat="43.29986" lon="-0.50216">
        <ele>165</ele>
        <time>2013-02-10T09:27:27</time>
      </trkpt>
      <trkpt lat="43.30001" lon="-0.50218">
        <ele>167</ele>
        <time>2013-02-10T09:27:32</time>
      </trkpt>
      <trkpt lat="43.30019" lon="-0.50223">
        <ele>167</ele>
        <time>2013-02-10T09:27:38</time>
      </trkpt>
      <trkpt lat="43.30038" lon="-0.50233">
        <ele>167</ele>
        <time>2013-02-10T09:27:43</time>
      </trkpt>
      <trkpt lat="43.30057" lon="-0.50245">
        <ele>168</ele>
        <time>2013-02-10T09:27:48</time>
      </trkpt>
      <trkpt lat="43.30073" lon="-0.50265">
        <ele>168</ele>
        <time>2013-02-10T09:27:53</time>
      </trkpt>
      <trkpt lat="43.30084" lon="-0.50283">
        <ele>166</ele>
        <time>2013-02-10T09:27:58</time>
      </trkpt>
      <trkpt lat="43.30099" lon="-0.50303">
        <ele>167</ele>
        <time>2013-02-10T09:28:03</time>
      </trkpt>
      <trkpt lat="43.30115" lon="-0.5032">
        <ele>166</ele>
        <time>2013-02-10T09:28:08</time>
      </trkpt>
      <trkpt lat="43.3013" lon="-0.50334">
        <ele>167</ele>
        <time>2013-02-10T09:28:13</time>
      </trkpt>
      <trkpt lat="43.30145" lon="-0.50347">
        <ele>166</ele>
        <time>2013-02-10T09:28:18</time>
      </trkpt>
      <trkpt lat="43.30155" lon="-0.50343">
        <ele>167</ele>
        <time>2013-02-10T09:28:23</time>
      </trkpt>
      <trkpt lat="43.30158" lon="-0.50321">
        <ele>168</ele>
        <time>2013-02-10T09:28:28</time>
      </trkpt>
      <trkpt lat="43.30159" lon="-0.50299">
        <ele>168</ele>
        <time>2013-02-10T09:28:33</time>
      </trkpt>
      <trkpt lat="43.30161" lon="-0.50281">
        <ele>170</ele>
        <time>2013-02-10T09:28:38</time>
      </trkpt>
      <trkpt lat="43.30162" lon="-0.50255">
        <ele>169</ele>
        <time>2013-02-10T09:28:43</time>
      </trkpt>
      <trkpt lat="43.30164" lon="-0.50235">
        <ele>172</ele>
        <time>2013-02-10T09:28:48</time>
      </trkpt>
      <trkpt lat="43.30165" lon="-0.50214">
        <ele>173</ele>
        <time>2013-02-10T09:28:53</time>
      </trkpt>
      <trkpt lat="43.30165" lon="-0.50193">
        <ele>173</ele>
        <time>2013-02-10T09:28:58</time>
      </trkpt>
      <trkpt lat="43.30164" lon="-0.50172">
        <ele>173</ele>
        <time>2013-02-10T09:29:03</time>
      </trkpt>
      <trkpt lat="43.30168" lon="-0.50154">
        <ele>174</ele>
        <time>2013-02-10T09:29:08</time>
      </trkpt>
      <trkpt lat="43.3017" lon="-0.50137">
        <ele>176</ele>
        <time>2013-02-10T09:29:13</time>
      </trkpt>
      <trkpt lat="43.30167" lon="-0.50123">
        <ele>175</ele>
        <time>2013-02-10T09:29:18</time>
      </trkpt>
      <trkpt lat="43.30167" lon="-0.5011">
        <ele>177</ele>
        <time>2013-02-10T09:29:23</time>
      </trkpt>
      <trkpt lat="43.30166" lon="-0.50108">
        <ele>177</ele>
        <time>2013-02-10T09:29:28</time>
      </trkpt>
      <trkpt lat="43.30166" lon="-0.50108">
        <ele>179</ele>
        <time>2013-02-10T09:29:33</time>
      </trkpt>
      <trkpt lat="43.30166" lon="-0.50108">
        <ele>180</ele>
        <time>2013-02-10T09:29:38</time>
      </trkpt>
      <trkpt lat="43.30166" lon="-0.50108">
        <ele>182</ele>
        <time>2013-02-10T09:29:43</time>
      </trkpt>
      <trkpt lat="43.30166" lon="-0.50108">
        <ele>183</ele>
        <time>2013-02-10T09:29:48</time>
      </trkpt>
      <trkpt lat="43.30166" lon="-0.50108">
        <ele>183</ele>
        <time>2013-02-10T09:29:53</time>
      </trkpt>
      <trkpt lat="43.30166" lon="-0.50108">
        <ele>186</ele>
        <time>2013-02-10T09:29:58</time>
      </trkpt>
      <trkpt lat="43.3014" lon="-0.50072">
        <ele>188</ele>
        <time>2013-02-10T09:30:03</time>
      </trkpt>
      <trkpt lat="43.3014" lon="-0.50072">
        <ele>187</ele>
        <time>2013-02-10T09:30:08</time>
      </trkpt>
      <trkpt lat="43.3014" lon="-0.50072">
        <ele>187</ele>
        <time>2013-02-10T09:30:14</time>
      </trkpt>
      <trkpt lat="43.3014" lon="-0.50072">
        <ele>185</ele>
        <time>2013-02-10T09:30:19</time>
      </trkpt>
      <trkpt lat="43.30139" lon="-0.50043">
        <ele>189</ele>
        <time>2013-02-10T09:30:24</time>
      </trkpt>
      <trkpt lat="43.30141" lon="-0.50035">
        <ele>190</ele>
        <time>2013-02-10T09:30:29</time>
      </trkpt>
      <trkpt lat="43.30142" lon="-0.50027">
        <ele>192</ele>
        <time>2013-02-10T09:30:34</time>
      </trkpt>
      <trkpt lat="43.30142" lon="-0.50027">
        <ele>193</ele>
        <time>2013-02-10T09:30:39</time>
      </trkpt>
      <trkpt lat="43.30142" lon="-0.50027">
        <ele>193</ele>
        <time>2013-02-10T09:30:44</time>
      </trkpt>
      <trkpt lat="43.30142" lon="-0.50027">
        <ele>193</ele>
        <time>2013-02-10T09:30:49</time>
      </trkpt>
      <trkpt lat="43.30142" lon="-0.50027">
        <ele>193</ele>
        <time>2013-02-10T09:30:54</time>
      </trkpt>
      <trkpt lat="43.30142" lon="-0.50027">
        <ele>192</ele>
        <time>2013-02-10T09:30:59</time>
      </trkpt>
      <trkpt lat="43.30142" lon="-0.50027">
        <ele>192</ele>
        <time>2013-02-10T09:31:04</time>
      </trkpt>
      <trkpt lat="43.30142" lon="-0.50027">
        <ele>192</ele>
        <time>2013-02-10T09:31:09</time>
      </trkpt>
      <trkpt lat="43.30142" lon="-0.50027">
        <ele>192</ele>
        <time>2013-02-10T09:31:14</time>
      </trkpt>
      <trkpt lat="43.30139" lon="-0.49993">
        <ele>194</ele>
        <time>2013-02-10T09:31:19</time>
      </trkpt>
      <trkpt lat="43.30145" lon="-0.49979">
        <ele>194</ele>
        <time>2013-02-10T09:31:24</time>
      </trkpt>
      <trkpt lat="43.30148" lon="-0.49969">
        <ele>194</ele>
        <time>2013-02-10T09:31:29</time>
      </trkpt>
      <trkpt lat="43.30149" lon="-0.4996">
        <ele>197</ele>
        <time>2013-02-10T09:31:34</time>
      </trkpt>
      <trkpt lat="43.30149" lon="-0.49955">
        <ele>198</ele>
        <time>2013-02-10T09:31:39</time>
      </trkpt>
      <trkpt lat="43.30149" lon="-0.49955">
        <ele>199</ele>
        <time>2013-02-10T09:31:44</time>
      </trkpt>
      <trkpt lat="43.30149" lon="-0.49955">
        <ele>200</ele>
        <time>2013-02-10T09:31:49</time>
      </trkpt>
      <trkpt lat="43.30138" lon="-0.49927">
        <ele>200</ele>
        <time>2013-02-10T09:31:54</time>
      </trkpt>
      <trkpt lat="43.30136" lon="-0.49914">
        <ele>200</ele>
        <time>2013-02-10T09:32:00</time>
      </trkpt>
      <trkpt lat="43.30135" lon="-0.49897">
        <ele>200</ele>
        <time>2013-02-10T09:32:05</time>
      </trkpt>
      <trkpt lat="43.30135" lon="-0.4988">
        <ele>201</ele>
        <time>2013-02-10T09:32:10</time>
      </trkpt>
      <trkpt lat="43.30136" lon="-0.49863">
        <ele>202</ele>
        <time>2013-02-10T09:32:15</time>
      </trkpt>
      <trkpt lat="43.30138" lon="-0.49847">
        <ele>203</ele>
        <time>2013-02-10T09:32:20</time>
      </trkpt>
      <trkpt lat="43.30136" lon="-0.4983">
        <ele>203</ele>
        <time>2013-02-10T09:32:25</time>
      </trkpt>
      <trkpt lat="43.30133" lon="-0.49818">
        <ele>203</ele>
        <time>2013-02-10T09:32:30</time>
      </trkpt>
      <trkpt lat="43.30132" lon="-0.49807">
        <ele>205</ele>
        <time>2013-02-10T09:32:35</time>
      </trkpt>
      <trkpt lat="43.30132" lon="-0.49806">
        <ele>206</ele>
        <time>2013-02-10T09:32:40</time>
      </trkpt>
      <trkpt lat="43.30132" lon="-0.49806">
        <ele>210</ele>
        <time>2013-02-10T09:32:45</time>
      </trkpt>
      <trkpt lat="43.30132" lon="-0.49806">
        <ele>211</ele>
        <time>2013-02-10T09:32:50</time>
      </trkpt>
      <trkpt lat="43.30132" lon="-0.49806">
        <ele>211</ele>
        <time>2013-02-10T09:32:55</time>
      </trkpt>
      <trkpt lat="43.30132" lon="-0.49806">
        <ele>212</ele>
        <time>2013-02-10T09:33:00</time>
      </trkpt>
      <trkpt lat="43.30114" lon="-0.49759">
        <ele>213</ele>
        <time>2013-02-10T09:33:05</time>
      </trkpt>
      <trkpt lat="43.30114" lon="-0.49759">
        <ele>214</ele>
        <time>2013-02-10T09:33:10</time>
      </trkpt>
      <trkpt lat="43.30114" lon="-0.49759">
        <ele>216</ele>
        <time>2013-02-10T09:33:15</time>
      </trkpt>
      <trkpt lat="43.30114" lon="-0.49759">
        <ele>217</ele>
        <time>2013-02-10T09:33:20</time>
      </trkpt>
      <trkpt lat="43.30114" lon="-0.49759">
        <ele>217</ele>
        <time>2013-02-10T09:33:25</time>
      </trkpt>
      <trkpt lat="43.30114" lon="-0.49759">
        <ele>219</ele>
        <time>2013-02-10T09:33:30</time>
      </trkpt>
      <trkpt lat="43.30114" lon="-0.49759">
        <ele>218</ele>
        <time>2013-02-10T09:33:35</time>
      </trkpt>
      <trkpt lat="43.30114" lon="-0.49759">
        <ele>221</ele>
        <time>2013-02-10T09:33:40</time>
      </trkpt>
      <trkpt lat="43.30093" lon="-0.49795">
        <ele>221</ele>
        <time>2013-02-10T09:33:45</time>
      </trkpt>
      <trkpt lat="43.30089" lon="-0.49797">
        <ele>223</ele>
        <time>2013-02-10T09:33:50</time>
      </trkpt>
      <trkpt lat="43.30089" lon="-0.49797">
        <ele>224</ele>
        <time>2013-02-10T09:33:55</time>
      </trkpt>
      <trkpt lat="43.30071" lon="-0.49811">
        <ele>225</ele>
        <time>2013-02-10T09:34:00</time>
      </trkpt>
      <trkpt lat="43.30062" lon="-0.49817">
        <ele>227</ele>
        <time>2013-02-10T09:34:05</time>
      </trkpt>
      <trkpt lat="43.30054" lon="-0.49823">
        <ele>227</ele>
        <time>2013-02-10T09:34:10</time>
      </trkpt>
      <trkpt lat="43.30052" lon="-0.49826">
        <ele>226</ele>
        <time>2013-02-10T09:34:16</time>
      </trkpt>
      <trkpt lat="43.30038" lon="-0.4983">
        <ele>227</ele>
        <time>2013-02-10T09:34:21</time>
      </trkpt>
      <trkpt lat="43.30033" lon="-0.4983">
        <ele>227</ele>
        <time>2013-02-10T09:34:26</time>
      </trkpt>
      <trkpt lat="43.30033" lon="-0.4983">
        <ele>228</ele>
        <time>2013-02-10T09:34:31</time>
      </trkpt>
      <trkpt lat="43.30011" lon="-0.49819">
        <ele>230</ele>
        <time>2013-02-10T09:34:36</time>
      </trkpt>
      <trkpt lat="43.30005" lon="-0.49816">
        <ele>232</ele>
        <time>2013-02-10T09:34:41</time>
      </trkpt>
      <trkpt lat="43.29997" lon="-0.49814">
        <ele>233</ele>
        <time>2013-02-10T09:34:46</time>
      </trkpt>
      <trkpt lat="43.29995" lon="-0.49814">
        <ele>235</ele>
        <time>2013-02-10T09:34:51</time>
      </trkpt>
      <trkpt lat="43.29995" lon="-0.49814">
        <ele>235</ele>
        <time>2013-02-10T09:34:56</time>
      </trkpt>
      <trkpt lat="43.29995" lon="-0.49814">
        <ele>237</ele>
        <time>2013-02-10T09:35:01</time>
      </trkpt>
      <trkpt lat="43.29995" lon="-0.49814">
        <ele>239</ele>
        <time>2013-02-10T09:35:06</time>
      </trkpt>
      <trkpt lat="43.29995" lon="-0.49814">
        <ele>241</ele>
        <time>2013-02-10T09:35:11</time>
      </trkpt>
      <trkpt lat="43.2996" lon="-0.49784">
        <ele>241</ele>
        <time>2013-02-10T09:35:16</time>
      </trkpt>
      <trkpt lat="43.2996" lon="-0.49784">
        <ele>243</ele>
        <time>2013-02-10T09:35:21</time>
      </trkpt>
      <trkpt lat="43.2996" lon="-0.49784">
        <ele>244</ele>
        <time>2013-02-10T09:35:26</time>
      </trkpt>
      <trkpt lat="43.2996" lon="-0.49784">
        <ele>242</ele>
        <time>2013-02-10T09:35:31</time>
      </trkpt>
      <trkpt lat="43.2996" lon="-0.49784">
        <ele>244</ele>
        <time>2013-02-10T09:35:36</time>
      </trkpt>
      <trkpt lat="43.29927" lon="-0.49758">
        <ele>247</ele>
        <time>2013-02-10T09:35:41</time>
      </trkpt>
      <trkpt lat="43.29922" lon="-0.49749">
        <ele>247</ele>
        <time>2013-02-10T09:35:46</time>
      </trkpt>
      <trkpt lat="43.29917" lon="-0.4974">
        <ele>249</ele>
        <time>2013-02-10T09:35:51</time>
      </trkpt>
      <trkpt lat="43.29916" lon="-0.49738">
        <ele>249</ele>
        <time>2013-02-10T09:35:56</time>
      </trkpt>
      <trkpt lat="43.29916" lon="-0.49738">
        <ele>249</ele>
        <time>2013-02-10T09:36:01</time>
      </trkpt>
      <trkpt lat="43.29916" lon="-0.49738">
        <ele>251</ele>
        <time>2013-02-10T09:36:07</time>
      </trkpt>
      <trkpt lat="43.29916" lon="-0.49738">
        <ele>254</ele>
        <time>2013-02-10T09:36:12</time>
      </trkpt>
      <trkpt lat="43.29916" lon="-0.49738">
        <ele>253</ele>
        <time>2013-02-10T09:36:17</time>
      </trkpt>
      <trkpt lat="43.29882" lon="-0.49709">
        <ele>254</ele>
        <time>2013-02-10T09:36:22</time>
      </trkpt>
      <trkpt lat="43.29882" lon="-0.49709">
        <ele>255</ele>
        <time>2013-02-10T09:36:27</time>
      </trkpt>
      <trkpt lat="43.29882" lon="-0.49709">
        <ele>258</ele>
        <time>2013-02-10T09:36:32</time>
      </trkpt>
      <trkpt lat="43.29882" lon="-0.49709">
        <ele>257</ele>
        <time>2013-02-10T09:36:37</time>
      </trkpt>
      <trkpt lat="43.29882" lon="-0.49709">
        <ele>259</ele>
        <time>2013-02-10T09:36:42</time>
      </trkpt>
      <trkpt lat="43.29858" lon="-0.49675">
        <ele>262</ele>
        <time>2013-02-10T09:36:47</time>
      </trkpt>
      <trkpt lat="43.29858" lon="-0.49664">
        <ele>262</ele>
        <time>2013-02-10T09:36:52</time>
      </trkpt>
      <trkpt lat="43.29858" lon="-0.49654">
        <ele>262</ele>
        <time>2013-02-10T09:36:57</time>
      </trkpt>
      <trkpt lat="43.29858" lon="-0.49643">
        <ele>262</ele>
        <time>2013-02-10T09:37:02</time>
      </trkpt>
      <trkpt lat="43.2986" lon="-0.49632">
        <ele>265</ele>
        <time>2013-02-10T09:37:07</time>
      </trkpt>
      <trkpt lat="43.29861" lon="-0.49619">
        <ele>266</ele>
        <time>2013-02-10T09:37:12</time>
      </trkpt>
      <trkpt lat="43.29863" lon="-0.49608">
        <ele>267</ele>
        <time>2013-02-10T09:37:17</time>
      </trkpt>
      <trkpt lat="43.29865" lon="-0.49597">
        <ele>268</ele>
        <time>2013-02-10T09:37:22</time>
      </trkpt>
      <trkpt lat="43.29866" lon="-0.49589">
        <ele>269</ele>
        <time>2013-02-10T09:37:27</time>
      </trkpt>
      <trkpt lat="43.29868" lon="-0.49579">
        <ele>270</ele>
        <time>2013-02-10T09:37:32</time>
      </trkpt>
      <trkpt lat="43.2987" lon="-0.49574">
        <ele>272</ele>
        <time>2013-02-10T09:37:37</time>
      </trkpt>
      <trkpt lat="43.29872" lon="-0.49561">
        <ele>270</ele>
        <time>2013-02-10T09:37:42</time>
      </trkpt>
      <trkpt lat="43.29873" lon="-0.49556">
        <ele>272</ele>
        <time>2013-02-10T09:37:47</time>
      </trkpt>
      <trkpt lat="43.29873" lon="-0.49556">
        <ele>273</ele>
        <time>2013-02-10T09:37:52</time>
      </trkpt>
      <trkpt lat="43.29873" lon="-0.49556">
        <ele>273</ele>
        <time>2013-02-10T09:37:57</time>
      </trkpt>
      <trkpt lat="43.29873" lon="-0.49556">
        <ele>273</ele>
        <time>2013-02-10T09:38:02</time>
      </trkpt>
      <trkpt lat="43.29873" lon="-0.49556">
        <ele>276</ele>
        <time>2013-02-10T09:38:07</time>
      </trkpt>
      <trkpt lat="43.29877" lon="-0.49501">
        <ele>277</ele>
        <time>2013-02-10T09:38:12</time>
      </trkpt>
      <trkpt lat="43.29877" lon="-0.49501">
        <ele>276</ele>
        <time>2013-02-10T09:38:18</time>
      </trkpt>
      <trkpt lat="43.29877" lon="-0.49501">
        <ele>278</ele>
        <time>2013-02-10T09:38:23</time>
      </trkpt>
      <trkpt lat="43.29877" lon="-0.49501">
        <ele>278</ele>
        <time>2013-02-10T09:38:28</time>
      </trkpt>
      <trkpt lat="43.29877" lon="-0.49501">
        <ele>278</ele>
        <time>2013-02-10T09:38:33</time>
      </trkpt>
      <trkpt lat="43.29873" lon="-0.49455">
        <ele>281</ele>
        <time>2013-02-10T09:38:38</time>
      </trkpt>
      <trkpt lat="43.29874" lon="-0.4945">
        <ele>284</ele>
        <time>2013-02-10T09:38:43</time>
      </trkpt>
      <trkpt lat="43.29874" lon="-0.4945">
        <ele>283</ele>
        <time>2013-02-10T09:38:48</time>
      </trkpt>
      <trkpt lat="43.29874" lon="-0.4945">
        <ele>283</ele>
        <time>2013-02-10T09:38:53</time>
      </trkpt>
      <trkpt lat="43.29874" lon="-0.4945">
        <ele>284</ele>
        <time>2013-02-10T09:38:58</time>
      </trkpt>
      <trkpt lat="43.29874" lon="-0.4945">
        <ele>286</ele>
        <time>2013-02-10T09:39:03</time>
      </trkpt>
      <trkpt lat="43.29879" lon="-0.49389">
        <ele>286</ele>
        <time>2013-02-10T09:39:08</time>
      </trkpt>
      <trkpt lat="43.29881" lon="-0.49382">
        <ele>287</ele>
        <time>2013-02-10T09:39:13</time>
      </trkpt>
      <trkpt lat="43.29881" lon="-0.49382">
        <ele>289</ele>
        <time>2013-02-10T09:39:18</time>
      </trkpt>
      <trkpt lat="43.29883" lon="-0.49357">
        <ele>293</ele>
        <time>2013-02-10T09:39:23</time>
      </trkpt>
      <trkpt lat="43.29884" lon="-0.49347">
        <ele>292</ele>
        <time>2013-02-10T09:39:28</time>
      </trkpt>
      <trkpt lat="43.29885" lon="-0.49337">
        <ele>293</ele>
        <time>2013-02-10T09:39:33</time>
      </trkpt>
      <trkpt lat="43.29888" lon="-0.49322">
        <ele>293</ele>
        <time>2013-02-10T09:39:38</time>
      </trkpt>
      <trkpt lat="43.2989" lon="-0.4931">
        <ele>295</ele>
        <time>2013-02-10T09:39:43</time>
      </trkpt>
      <trkpt lat="43.29892" lon="-0.49299">
        <ele>296</ele>
        <time>2013-02-10T09:39:48</time>
      </trkpt>
      <trkpt lat="43.29894" lon="-0.49285">
        <ele>298</ele>
        <time>2013-02-10T09:39:53</time>
      </trkpt>
      <trkpt lat="43.29897" lon="-0.49277">
        <ele>300</ele>
        <time>2013-02-10T09:39:58</time>
      </trkpt>
      <trkpt lat="43.29898" lon="-0.49269">
        <ele>300</ele>
        <time>2013-02-10T09:40:03</time>
      </trkpt>
      <trkpt lat="43.29904" lon="-0.49253">
        <ele>300</ele>
        <time>2013-02-10T09:40:08</time>
      </trkpt>
      <trkpt lat="43.29908" lon="-0.4924">
        <ele>301</ele>
        <time>2013-02-10T09:40:13</time>
      </trkpt>
      <trkpt lat="43.29913" lon="-0.49228">
        <ele>301</ele>
        <time>2013-02-10T09:40:18</time>
      </trkpt>
      <trkpt lat="43.29919" lon="-0.49214">
        <ele>303</ele>
        <time>2013-02-10T09:40:23</time>
      </trkpt>
      <trkpt lat="43.29924" lon="-0.49204">
        <ele>304</ele>
        <time>2013-02-10T09:40:28</time>
      </trkpt>
      <trkpt lat="43.29927" lon="-0.49196">
        <ele>303</ele>
        <time>2013-02-10T09:40:33</time>
      </trkpt>
      <trkpt lat="43.29931" lon="-0.49183">
        <ele>302</ele>
        <time>2013-02-10T09:40:39</time>
      </trkpt>
      <trkpt lat="43.29937" lon="-0.4917">
        <ele>303</ele>
        <time>2013-02-10T09:40:44</time>
      </trkpt>
      <trkpt lat="43.29943" lon="-0.49152">
        <ele>303</ele>
        <time>2013-02-10T09:40:49</time>
      </trkpt>
      <trkpt lat="43.29954" lon="-0.49125">
        <ele>303</ele>
        <time>2013-02-10T09:40:54</time>
      </trkpt>
      <trkpt lat="43.29963" lon="-0.49103">
        <ele>304</ele>
        <time>2013-02-10T09:40:59</time>
      </trkpt>
      <trkpt lat="43.2997" lon="-0.49082">
        <ele>304</ele>
        <time>2013-02-10T09:41:04</time>
      </trkpt>
      <trkpt lat="43.29975" lon="-0.49062">
        <ele>306</ele>
        <time>2013-02-10T09:41:09</time>
      </trkpt>
      <trkpt lat="43.29977" lon="-0.49041">
        <ele>307</ele>
        <time>2013-02-10T09:41:14</time>
      </trkpt>
      <trkpt lat="43.29977" lon="-0.49025">
        <ele>308</ele>
        <time>2013-02-10T09:41:19</time>
      </trkpt>
      <trkpt lat="43.29973" lon="-0.49">
        <ele>308</ele>
        <time>2013-02-10T09:41:24</time>
      </trkpt>
      <trkpt lat="43.29966" lon="-0.48975">
        <ele>308</ele>
        <time>2013-02-10T09:41:29</time>
      </trkpt>
      <trkpt lat="43.29955" lon="-0.48945">
        <ele>307</ele>
        <time>2013-02-10T09:41:34</time>
      </trkpt>
      <trkpt lat="43.29937" lon="-0.4891">
        <ele>304</ele>
        <time>2013-02-10T09:41:39</time>
      </trkpt>
      <trkpt lat="43.29928" lon="-0.48868">
        <ele>303</ele>
        <time>2013-02-10T09:41:44</time>
      </trkpt>
      <trkpt lat="43.29922" lon="-0.48845">
        <ele>303</ele>
        <time>2013-02-10T09:41:49</time>
      </trkpt>
      <trkpt lat="43.29917" lon="-0.48835">
        <ele>304</ele>
        <time>2013-02-10T09:41:54</time>
      </trkpt>
      <trkpt lat="43.29911" lon="-0.48827">
        <ele>305</ele>
        <time>2013-02-10T09:41:59</time>
      </trkpt>
      <trkpt lat="43.29906" lon="-0.48819">
        <ele>305</ele>
        <time>2013-02-10T09:42:04</time>
      </trkpt>
      <trkpt lat="43.29903" lon="-0.48815">
        <ele>305</ele>
        <time>2013-02-10T09:42:09</time>
      </trkpt>
      <trkpt lat="43.29903" lon="-0.48815">
        <ele>307</ele>
        <time>2013-02-10T09:42:14</time>
      </trkpt>
      <trkpt lat="43.29891" lon="-0.488">
        <ele>309</ele>
        <time>2013-02-10T09:42:19</time>
      </trkpt>
      <trkpt lat="43.29889" lon="-0.48796">
        <ele>311</ele>
        <time>2013-02-10T09:42:24</time>
      </trkpt>
      <trkpt lat="43.29889" lon="-0.48796">
        <ele>311</ele>
        <time>2013-02-10T09:42:29</time>
      </trkpt>
      <trkpt lat="43.29889" lon="-0.48796">
        <ele>311</ele>
        <time>2013-02-10T09:42:35</time>
      </trkpt>
      <trkpt lat="43.29889" lon="-0.48796">
        <ele>312</ele>
        <time>2013-02-10T09:42:40</time>
      </trkpt>
      <trkpt lat="43.29889" lon="-0.48796">
        <ele>313</ele>
        <time>2013-02-10T09:42:45</time>
      </trkpt>
      <trkpt lat="43.29861" lon="-0.48754">
        <ele>315</ele>
        <time>2013-02-10T09:42:50</time>
      </trkpt>
      <trkpt lat="43.29861" lon="-0.48754">
        <ele>316</ele>
        <time>2013-02-10T09:42:55</time>
      </trkpt>
      <trkpt lat="43.29861" lon="-0.48754">
        <ele>317</ele>
        <time>2013-02-10T09:43:00</time>
      </trkpt>
      <trkpt lat="43.29861" lon="-0.48754">
        <ele>317</ele>
        <time>2013-02-10T09:43:05</time>
      </trkpt>
      <trkpt lat="43.29848" lon="-0.48709">
        <ele>318</ele>
        <time>2013-02-10T09:43:10</time>
      </trkpt>
      <trkpt lat="43.29847" lon="-0.48695">
        <ele>320</ele>
        <time>2013-02-10T09:43:15</time>
      </trkpt>
      <trkpt lat="43.29844" lon="-0.48686">
        <ele>319</ele>
        <time>2013-02-10T09:43:20</time>
      </trkpt>
      <trkpt lat="43.29842" lon="-0.48676">
        <ele>320</ele>
        <time>2013-02-10T09:43:25</time>
      </trkpt>
      <trkpt lat="43.29838" lon="-0.48662">
        <ele>319</ele>
        <time>2013-02-10T09:43:30</time>
      </trkpt>
      <trkpt lat="43.29837" lon="-0.48656">
        <ele>319</ele>
        <time>2013-02-10T09:43:35</time>
      </trkpt>
      <trkpt lat="43.29837" lon="-0.48656">
        <ele>319</ele>
        <time>2013-02-10T09:43:40</time>
      </trkpt>
      <trkpt lat="43.29837" lon="-0.48656">
        <ele>319</ele>
        <time>2013-02-10T09:43:45</time>
      </trkpt>
      <trkpt lat="43.29837" lon="-0.48656">
        <ele>318</ele>
        <time>2013-02-10T09:43:50</time>
      </trkpt>
      <trkpt lat="43.29837" lon="-0.48656">
        <ele>321</ele>
        <time>2013-02-10T09:43:55</time>
      </trkpt>
      <trkpt lat="43.29837" lon="-0.48656">
        <ele>321</ele>
        <time>2013-02-10T09:44:00</time>
      </trkpt>
      <trkpt lat="43.29837" lon="-0.48656">
        <ele>321</ele>
        <time>2013-02-10T09:44:05</time>
      </trkpt>
      <trkpt lat="43.29837" lon="-0.48656">
        <ele>319</ele>
        <time>2013-02-10T09:44:10</time>
      </trkpt>
      <trkpt lat="43.29837" lon="-0.48656">
        <ele>320</ele>
        <time>2013-02-10T09:44:15</time>
      </trkpt>
      <trkpt lat="43.29837" lon="-0.48656">
        <ele>318</ele>
        <time>2013-02-10T09:44:20</time>
      </trkpt>
      <trkpt lat="43.29837" lon="-0.48656">
        <ele>320</ele>
        <time>2013-02-10T09:44:25</time>
      </trkpt>
      <trkpt lat="43.29837" lon="-0.48656">
        <ele>319</ele>
        <time>2013-02-10T09:44:30</time>
      </trkpt>
      <trkpt lat="43.29837" lon="-0.48656">
        <ele>320</ele>
        <time>2013-02-10T09:44:35</time>
      </trkpt>
      <trkpt lat="43.29837" lon="-0.48656">
        <ele>321</ele>
        <time>2013-02-10T09:44:41</time>
      </trkpt>
      <trkpt lat="43.29837" lon="-0.48656">
        <ele>320</ele>
        <time>2013-02-10T09:44:46</time>
      </trkpt>
      <trkpt lat="43.29837" lon="-0.48656">
        <ele>319</ele>
        <time>2013-02-10T09:44:51</time>
      </trkpt>
      <trkpt lat="43.29837" lon="-0.48656">
        <ele>319</ele>
        <time>2013-02-10T09:44:56</time>
      </trkpt>
      <trkpt lat="43.29837" lon="-0.48656">
        <ele>320</ele>
        <time>2013-02-10T09:45:01</time>
      </trkpt>
      <trkpt lat="43.29837" lon="-0.48656">
        <ele>319</ele>
        <time>2013-02-10T09:45:06</time>
      </trkpt>
      <trkpt lat="43.29837" lon="-0.48656">
        <ele>319</ele>
        <time>2013-02-10T09:45:11</time>
      </trkpt>
      <trkpt lat="43.29837" lon="-0.48656">
        <ele>321</ele>
        <time>2013-02-10T09:45:16</time>
      </trkpt>
      <trkpt lat="43.29837" lon="-0.48656">
        <ele>321</ele>
        <time>2013-02-10T09:45:21</time>
      </trkpt>
      <trkpt lat="43.29837" lon="-0.48656">
        <ele>320</ele>
        <time>2013-02-10T09:45:26</time>
      </trkpt>
      <trkpt lat="43.29837" lon="-0.48656">
        <ele>320</ele>
        <time>2013-02-10T09:45:31</time>
      </trkpt>
      <trkpt lat="43.29837" lon="-0.48656">
        <ele>321</ele>
        <time>2013-02-10T09:45:36</time>
      </trkpt>
      <trkpt lat="43.29837" lon="-0.48656">
        <ele>320</ele>
        <time>2013-02-10T09:45:41</time>
      </trkpt>
      <trkpt lat="43.29837" lon="-0.48656">
        <ele>320</ele>
        <time>2013-02-10T09:45:46</time>
      </trkpt>
      <trkpt lat="43.29837" lon="-0.48656">
        <ele>321</ele>
        <time>2013-02-10T09:45:51</time>
      </trkpt>
      <trkpt lat="43.29837" lon="-0.48656">
        <ele>319</ele>
        <time>2013-02-10T09:45:56</time>
      </trkpt>
      <trkpt lat="43.29837" lon="-0.48656">
        <ele>320</ele>
        <time>2013-02-10T09:46:01</time>
      </trkpt>
      <trkpt lat="43.29842" lon="-0.48626">
        <ele>319</ele>
        <time>2013-02-10T09:46:06</time>
      </trkpt>
      <trkpt lat="43.29836" lon="-0.48618">
        <ele>318</ele>
        <time>2013-02-10T09:46:11</time>
      </trkpt>
      <trkpt lat="43.29835" lon="-0.48613">
        <ele>320</ele>
        <time>2013-02-10T09:46:16</time>
      </trkpt>
      <trkpt lat="43.29831" lon="-0.48602">
        <ele>319</ele>
        <time>2013-02-10T09:46:21</time>
      </trkpt>
      <trkpt lat="43.29829" lon="-0.48585">
        <ele>319</ele>
        <time>2013-02-10T09:46:26</time>
      </trkpt>
      <trkpt lat="43.29829" lon="-0.48579">
        <ele>317</ele>
        <time>2013-02-10T09:46:31</time>
      </trkpt>
      <trkpt lat="43.29829" lon="-0.48579">
        <ele>311</ele>
        <time>2013-02-10T09:46:36</time>
      </trkpt>
      <trkpt lat="43.2983" lon="-0.48536">
        <ele>306</ele>
        <time>2013-02-10T09:46:41</time>
      </trkpt>
      <trkpt lat="43.29836" lon="-0.48515">
        <ele>304</ele>
        <time>2013-02-10T09:46:46</time>
      </trkpt>
      <trkpt lat="43.29845" lon="-0.48492">
        <ele>302</ele>
        <time>2013-02-10T09:46:51</time>
      </trkpt>
      <trkpt lat="43.29855" lon="-0.4847">
        <ele>302</ele>
        <time>2013-02-10T09:46:56</time>
      </trkpt>
      <trkpt lat="43.29871" lon="-0.48436">
        <ele>298</ele>
        <time>2013-02-10T09:47:02</time>
      </trkpt>
      <trkpt lat="43.29887" lon="-0.48412">
        <ele>295</ele>
        <time>2013-02-10T09:47:07</time>
      </trkpt>
      <trkpt lat="43.29905" lon="-0.4839">
        <ele>295</ele>
        <time>2013-02-10T09:47:12</time>
      </trkpt>
      <trkpt lat="43.29919" lon="-0.48371">
        <ele>292</ele>
        <time>2013-02-10T09:47:17</time>
      </trkpt>
      <trkpt lat="43.29932" lon="-0.48347">
        <ele>289</ele>
        <time>2013-02-10T09:47:22</time>
      </trkpt>
      <trkpt lat="43.29937" lon="-0.4834">
        <ele>286</ele>
        <time>2013-02-10T09:47:27</time>
      </trkpt>
      <trkpt lat="43.29954" lon="-0.48311">
        <ele>284</ele>
        <time>2013-02-10T09:47:32</time>
      </trkpt>
      <trkpt lat="43.2996" lon="-0.48296">
        <ele>281</ele>
        <time>2013-02-10T09:47:37</time>
      </trkpt>
      <trkpt lat="43.29967" lon="-0.48269">
        <ele>281</ele>
        <time>2013-02-10T09:47:42</time>
      </trkpt>
      <trkpt lat="43.29976" lon="-0.48231">
        <ele>280</ele>
        <time>2013-02-10T09:47:47</time>
      </trkpt>
      <trkpt lat="43.29988" lon="-0.48177">
        <ele>272</ele>
        <time>2013-02-10T09:47:52</time>
      </trkpt>
      <trkpt lat="43.3" lon="-0.48137">
        <ele>272</ele>
        <time>2013-02-10T09:47:57</time>
      </trkpt>
      <trkpt lat="43.30006" lon="-0.4811">
        <ele>269</ele>
        <time>2013-02-10T09:48:02</time>
      </trkpt>
      <trkpt lat="43.30007" lon="-0.48075">
        <ele>264</ele>
        <time>2013-02-10T09:48:07</time>
      </trkpt>
      <trkpt lat="43.30006" lon="-0.48042">
        <ele>259</ele>
        <time>2013-02-10T09:48:12</time>
      </trkpt>
      <trkpt lat="43.30005" lon="-0.4801">
        <ele>255</ele>
        <time>2013-02-10T09:48:17</time>
      </trkpt>
      <trkpt lat="43.30005" lon="-0.47976">
        <ele>252</ele>
        <time>2013-02-10T09:48:22</time>
      </trkpt>
      <trkpt lat="43.30002" lon="-0.47944">
        <ele>249</ele>
        <time>2013-02-10T09:48:27</time>
      </trkpt>
      <trkpt lat="43.30001" lon="-0.47899">
        <ele>249</ele>
        <time>2013-02-10T09:48:32</time>
      </trkpt>
      <trkpt lat="43.29999" lon="-0.47866">
        <ele>247</ele>
        <time>2013-02-10T09:48:37</time>
      </trkpt>
      <trkpt lat="43.29994" lon="-0.47849">
        <ele>245</ele>
        <time>2013-02-10T09:48:42</time>
      </trkpt>
      <trkpt lat="43.29994" lon="-0.47849">
        <ele>245</ele>
        <time>2013-02-10T09:48:47</time>
      </trkpt>
      <trkpt lat="43.29994" lon="-0.47849">
        <ele>247</ele>
        <time>2013-02-10T09:48:52</time>
      </trkpt>
      <trkpt lat="43.29994" lon="-0.47849">
        <ele>246</ele>
        <time>2013-02-10T09:48:58</time>
      </trkpt>
      <trkpt lat="43.29995" lon="-0.47793">
        <ele>244</ele>
        <time>2013-02-10T09:49:03</time>
      </trkpt>
      <trkpt lat="43.3" lon="-0.47771">
        <ele>241</ele>
        <time>2013-02-10T09:49:08</time>
      </trkpt>
      <trkpt lat="43.30006" lon="-0.47748">
        <ele>239</ele>
        <time>2013-02-10T09:49:13</time>
      </trkpt>
      <trkpt lat="43.3001" lon="-0.47736">
        <ele>237</ele>
        <time>2013-02-10T09:49:18</time>
      </trkpt>
      <trkpt lat="43.3002" lon="-0.47702">
        <ele>234</ele>
        <time>2013-02-10T09:49:23</time>
      </trkpt>
      <trkpt lat="43.30026" lon="-0.47679">
        <ele>231</ele>
        <time>2013-02-10T09:49:28</time>
      </trkpt>
      <trkpt lat="43.30032" lon="-0.47654">
        <ele>229</ele>
        <time>2013-02-10T09:49:33</time>
      </trkpt>
      <trkpt lat="43.3004" lon="-0.47623">
        <ele>227</ele>
        <time>2013-02-10T09:49:38</time>
      </trkpt>
      <trkpt lat="43.30047" lon="-0.47597">
        <ele>225</ele>
        <time>2013-02-10T09:49:43</time>
      </trkpt>
      <trkpt lat="43.30047" lon="-0.47597">
        <ele>225</ele>
        <time>2013-02-10T09:49:48</time>
      </trkpt>
      <trkpt lat="43.30047" lon="-0.47597">
        <ele>224</ele>
        <time>2013-02-10T09:49:53</time>
      </trkpt>
      <trkpt lat="43.30047" lon="-0.47597">
        <ele>225</ele>
        <time>2013-02-10T09:49:58</time>
      </trkpt>
      <trkpt lat="43.30056" lon="-0.4755">
        <ele>224</ele>
        <time>2013-02-10T09:50:03</time>
      </trkpt>
      <trkpt lat="43.30062" lon="-0.47533">
        <ele>221</ele>
        <time>2013-02-10T09:50:08</time>
      </trkpt>
      <trkpt lat="43.30065" lon="-0.47507">
        <ele>217</ele>
        <time>2013-02-10T09:50:13</time>
      </trkpt>
      <trkpt lat="43.30068" lon="-0.47484">
        <ele>217</ele>
        <time>2013-02-10T09:50:18</time>
      </trkpt>
      <trkpt lat="43.30074" lon="-0.47465">
        <ele>213</ele>
        <time>2013-02-10T09:50:23</time>
      </trkpt>
      <trkpt lat="43.30085" lon="-0.47457">
        <ele>210</ele>
        <time>2013-02-10T09:50:28</time>
      </trkpt>
      <trkpt lat="43.30094" lon="-0.4746">
        <ele>207</ele>
        <time>2013-02-10T09:50:33</time>
      </trkpt>
      <trkpt lat="43.30098" lon="-0.47459">
        <ele>206</ele>
        <time>2013-02-10T09:50:38</time>
      </trkpt>
      <trkpt lat="43.30101" lon="-0.4744">
        <ele>204</ele>
        <time>2013-02-10T09:50:43</time>
      </trkpt>
      <trkpt lat="43.30099" lon="-0.47407">
        <ele>201</ele>
        <time>2013-02-10T09:50:48</time>
      </trkpt>
      <trkpt lat="43.30107" lon="-0.47365">
        <ele>199</ele>
        <time>2013-02-10T09:50:53</time>
      </trkpt>
      <trkpt lat="43.30112" lon="-0.47332">
        <ele>197</ele>
        <time>2013-02-10T09:50:58</time>
      </trkpt>
      <trkpt lat="43.30116" lon="-0.47308">
        <ele>196</ele>
        <time>2013-02-10T09:51:03</time>
      </trkpt>
      <trkpt lat="43.30122" lon="-0.47278">
        <ele>194</ele>
        <time>2013-02-10T09:51:08</time>
      </trkpt>
      <trkpt lat="43.30127" lon="-0.47251">
        <ele>194</ele>
        <time>2013-02-10T09:51:14</time>
      </trkpt>
      <trkpt lat="43.30136" lon="-0.47225">
        <ele>193</ele>
        <time>2013-02-10T09:51:19</time>
      </trkpt>
      <trkpt lat="43.3014" lon="-0.47208">
        <ele>193</ele>
        <time>2013-02-10T09:51:24</time>
      </trkpt>
      <trkpt lat="43.30153" lon="-0.47193">
        <ele>193</ele>
        <time>2013-02-10T09:51:29</time>
      </trkpt>
      <trkpt lat="43.30175" lon="-0.47182">
        <ele>191</ele>
        <time>2013-02-10T09:51:34</time>
      </trkpt>
      <trkpt lat="43.30197" lon="-0.47183">
        <ele>192</ele>
        <time>2013-02-10T09:51:39</time>
      </trkpt>
      <trkpt lat="43.30218" lon="-0.47186">
        <ele>191</ele>
        <time>2013-02-10T09:51:44</time>
      </trkpt>
      <trkpt lat="43.30237" lon="-0.4719">
        <ele>191</ele>
        <time>2013-02-10T09:51:49</time>
      </trkpt>
      <trkpt lat="43.30258" lon="-0.47201">
        <ele>191</ele>
        <time>2013-02-10T09:51:54</time>
      </trkpt>
      <trkpt lat="43.30275" lon="-0.47211">
        <ele>191</ele>
        <time>2013-02-10T09:51:59</time>
      </trkpt>
      <trkpt lat="43.30294" lon="-0.47228">
        <ele>192</ele>
        <time>2013-02-10T09:52:04</time>
      </trkpt>
      <trkpt lat="43.30312" lon="-0.47242">
        <ele>191</ele>
        <time>2013-02-10T09:52:09</time>
      </trkpt>
      <trkpt lat="43.30331" lon="-0.47253">
        <ele>191</ele>
        <time>2013-02-10T09:52:14</time>
      </trkpt>
      <trkpt lat="43.30358" lon="-0.47271">
        <ele>190</ele>
        <time>2013-02-10T09:52:19</time>
      </trkpt>
      <trkpt lat="43.30387" lon="-0.47286">
        <ele>191</ele>
        <time>2013-02-10T09:52:24</time>
      </trkpt>
      <trkpt lat="43.30421" lon="-0.47302">
        <ele>189</ele>
        <time>2013-02-10T09:52:29</time>
      </trkpt>
      <trkpt lat="43.30447" lon="-0.47314">
        <ele>188</ele>
        <time>2013-02-10T09:52:34</time>
      </trkpt>
      <trkpt lat="43.30473" lon="-0.47326">
        <ele>189</ele>
        <time>2013-02-10T09:52:39</time>
      </trkpt>
      <trkpt lat="43.30497" lon="-0.47337">
        <ele>187</ele>
        <time>2013-02-10T09:52:44</time>
      </trkpt>
      <trkpt lat="43.30517" lon="-0.47346">
        <ele>188</ele>
        <time>2013-02-10T09:52:49</time>
      </trkpt>
      <trkpt lat="43.30541" lon="-0.47355">
        <ele>189</ele>
        <time>2013-02-10T09:52:54</time>
      </trkpt>
      <trkpt lat="43.30568" lon="-0.47368">
        <ele>188</ele>
        <time>2013-02-10T09:52:59</time>
      </trkpt>
      <trkpt lat="43.30592" lon="-0.47389">
        <ele>189</ele>
        <time>2013-02-10T09:53:04</time>
      </trkpt>
      <trkpt lat="43.30614" lon="-0.47414">
        <ele>189</ele>
        <time>2013-02-10T09:53:09</time>
      </trkpt>
      <trkpt lat="43.30632" lon="-0.47432">
        <ele>190</ele>
        <time>2013-02-10T09:53:14</time>
      </trkpt>
      <trkpt lat="43.30653" lon="-0.47449">
        <ele>188</ele>
        <time>2013-02-10T09:53:19</time>
      </trkpt>
      <trkpt lat="43.30675" lon="-0.47464">
        <ele>190</ele>
        <time>2013-02-10T09:53:24</time>
      </trkpt>
      <trkpt lat="43.30707" lon="-0.47479">
        <ele>190</ele>
        <time>2013-02-10T09:53:29</time>
      </trkpt>
      <trkpt lat="43.30733" lon="-0.47487">
        <ele>189</ele>
        <time>2013-02-10T09:53:35</time>
      </trkpt>
      <trkpt lat="43.30761" lon="-0.47499">
        <ele>189</ele>
        <time>2013-02-10T09:53:40</time>
      </trkpt>
      <trkpt lat="43.30793" lon="-0.47511">
        <ele>188</ele>
        <time>2013-02-10T09:53:45</time>
      </trkpt>
      <trkpt lat="43.30827" lon="-0.47519">
        <ele>187</ele>
        <time>2013-02-10T09:53:50</time>
      </trkpt>
      <trkpt lat="43.30861" lon="-0.47534">
        <ele>185</ele>
        <time>2013-02-10T09:53:55</time>
      </trkpt>
      <trkpt lat="43.30888" lon="-0.47567">
        <ele>184</ele>
        <time>2013-02-10T09:54:00</time>
      </trkpt>
      <trkpt lat="43.3091" lon="-0.47594">
        <ele>184</ele>
        <time>2013-02-10T09:54:05</time>
      </trkpt>
      <trkpt lat="43.30938" lon="-0.47603">
        <ele>184</ele>
        <time>2013-02-10T09:54:10</time>
      </trkpt>
      <trkpt lat="43.30967" lon="-0.47616">
        <ele>183</ele>
        <time>2013-02-10T09:54:15</time>
      </trkpt>
      <trkpt lat="43.30991" lon="-0.47629">
        <ele>183</ele>
        <time>2013-02-10T09:54:20</time>
      </trkpt>
      <trkpt lat="43.31007" lon="-0.47636">
        <ele>183</ele>
        <time>2013-02-10T09:54:25</time>
      </trkpt>
      <trkpt lat="43.31032" lon="-0.47658">
        <ele>184</ele>
        <time>2013-02-10T09:54:30</time>
      </trkpt>
      <trkpt lat="43.31057" lon="-0.47683">
        <ele>184</ele>
        <time>2013-02-10T09:54:35</time>
      </trkpt>
      <trkpt lat="43.31077" lon="-0.47702">
        <ele>183</ele>
        <time>2013-02-10T09:54:40</time>
      </trkpt>
      <trkpt lat="43.31101" lon="-0.47725">
        <ele>184</ele>
        <time>2013-02-10T09:54:45</time>
      </trkpt>
      <trkpt lat="43.31129" lon="-0.47743">
        <ele>185</ele>
        <time>2013-02-10T09:54:50</time>
      </trkpt>
      <trkpt lat="43.31158" lon="-0.47754">
        <ele>184</ele>
        <time>2013-02-10T09:54:55</time>
      </trkpt>
      <trkpt lat="43.31187" lon="-0.47762">
        <ele>184</ele>
        <time>2013-02-10T09:55:00</time>
      </trkpt>
      <trkpt lat="43.31214" lon="-0.47763">
        <ele>183</ele>
        <time>2013-02-10T09:55:05</time>
      </trkpt>
      <trkpt lat="43.31241" lon="-0.47764">
        <ele>185</ele>
        <time>2013-02-10T09:55:10</time>
      </trkpt>
      <trkpt lat="43.31269" lon="-0.47767">
        <ele>186</ele>
        <time>2013-02-10T09:55:15</time>
      </trkpt>
      <trkpt lat="43.31294" lon="-0.47768">
        <ele>185</ele>
        <time>2013-02-10T09:55:20</time>
      </trkpt>
      <trkpt lat="43.31328" lon="-0.47771">
        <ele>184</ele>
        <time>2013-02-10T09:55:25</time>
      </trkpt>
      <trkpt lat="43.31358" lon="-0.47772">
        <ele>183</ele>
        <time>2013-02-10T09:55:30</time>
      </trkpt>
      <trkpt lat="43.31387" lon="-0.47772">
        <ele>180</ele>
        <time>2013-02-10T09:55:35</time>
      </trkpt>
      <trkpt lat="43.31413" lon="-0.47776">
        <ele>180</ele>
        <time>2013-02-10T09:55:40</time>
      </trkpt>
      <trkpt lat="43.31437" lon="-0.47782">
        <ele>178</ele>
        <time>2013-02-10T09:55:45</time>
      </trkpt>
      <trkpt lat="43.31456" lon="-0.47804">
        <ele>178</ele>
        <time>2013-02-10T09:55:50</time>
      </trkpt>
      <trkpt lat="43.31467" lon="-0.4782">
        <ele>178</ele>
        <time>2013-02-10T09:55:55</time>
      </trkpt>
      <trkpt lat="43.31482" lon="-0.47843">
        <ele>178</ele>
        <time>2013-02-10T09:56:01</time>
      </trkpt>
      <trkpt lat="43.31501" lon="-0.47868">
        <ele>177</ele>
        <time>2013-02-10T09:56:06</time>
      </trkpt>
      <trkpt lat="43.3152" lon="-0.47887">
        <ele>175</ele>
        <time>2013-02-10T09:56:11</time>
      </trkpt>
      <trkpt lat="43.31547" lon="-0.47898">
        <ele>175</ele>
        <time>2013-02-10T09:56:16</time>
      </trkpt>
      <trkpt lat="43.31571" lon="-0.47912">
        <ele>174</ele>
        <time>2013-02-10T09:56:21</time>
      </trkpt>
      <trkpt lat="43.3159" lon="-0.47919">
        <ele>174</ele>
        <time>2013-02-10T09:56:26</time>
      </trkpt>
      <trkpt lat="43.31613" lon="-0.47929">
        <ele>175</ele>
        <time>2013-02-10T09:56:31</time>
      </trkpt>
      <trkpt lat="43.31635" lon="-0.47937">
        <ele>174</ele>
        <time>2013-02-10T09:56:36</time>
      </trkpt>
      <trkpt lat="43.31631" lon="-0.4796">
        <ele>174</ele>
        <time>2013-02-10T09:56:41</time>
      </trkpt>
      <trkpt lat="43.31622" lon="-0.47972">
        <ele>175</ele>
        <time>2013-02-10T09:56:46</time>
      </trkpt>
      <trkpt lat="43.31616" lon="-0.47988">
        <ele>175</ele>
        <time>2013-02-10T09:56:51</time>
      </trkpt>
      <trkpt lat="43.31615" lon="-0.48006">
        <ele>174</ele>
        <time>2013-02-10T09:56:56</time>
      </trkpt>
      <trkpt lat="43.31612" lon="-0.48025">
        <ele>178</ele>
        <time>2013-02-10T09:57:01</time>
      </trkpt>
      <trkpt lat="43.31609" lon="-0.48041">
        <ele>178</ele>
        <time>2013-02-10T09:57:06</time>
      </trkpt>
      <trkpt lat="43.31598" lon="-0.48061">
        <ele>178</ele>
        <time>2013-02-10T09:57:11</time>
      </trkpt>
      <trkpt lat="43.31586" lon="-0.48077">
        <ele>178</ele>
        <time>2013-02-10T09:57:16</time>
      </trkpt>
      <trkpt lat="43.3158" lon="-0.48093">
        <ele>180</ele>
        <time>2013-02-10T09:57:21</time>
      </trkpt>
      <trkpt lat="43.31578" lon="-0.48096">
        <ele>180</ele>
        <time>2013-02-10T09:57:26</time>
      </trkpt>
      <trkpt lat="43.31567" lon="-0.48124">
        <ele>183</ele>
        <time>2013-02-10T09:57:31</time>
      </trkpt>
      <trkpt lat="43.31558" lon="-0.48141">
        <ele>183</ele>
        <time>2013-02-10T09:57:36</time>
      </trkpt>
      <trkpt lat="43.31549" lon="-0.48156">
        <ele>185</ele>
        <time>2013-02-10T09:57:41</time>
      </trkpt>
      <trkpt lat="43.31551" lon="-0.48167">
        <ele>185</ele>
        <time>2013-02-10T09:57:46</time>
      </trkpt>
      <trkpt lat="43.31554" lon="-0.48172">
        <ele>186</ele>
        <time>2013-02-10T09:57:51</time>
      </trkpt>
      <trkpt lat="43.31554" lon="-0.48172">
        <ele>184</ele>
        <time>2013-02-10T09:57:56</time>
      </trkpt>
      <trkpt lat="43.31554" lon="-0.48172">
        <ele>187</ele>
        <time>2013-02-10T09:58:01</time>
      </trkpt>
      <trkpt lat="43.31548" lon="-0.48174">
        <ele>184</ele>
        <time>2013-02-10T09:58:06</time>
      </trkpt>
      <trkpt lat="43.31554" lon="-0.48156">
        <ele>182</ele>
        <time>2013-02-10T09:58:12</time>
      </trkpt>
      <trkpt lat="43.3157" lon="-0.4812">
        <ele>181</ele>
        <time>2013-02-10T09:58:17</time>
      </trkpt>
      <trkpt lat="43.31596" lon="-0.48081">
        <ele>179</ele>
        <time>2013-02-10T09:58:22</time>
      </trkpt>
      <trkpt lat="43.31604" lon="-0.48048">
        <ele>177</ele>
        <time>2013-02-10T09:58:27</time>
      </trkpt>
      <trkpt lat="43.31619" lon="-0.48008">
        <ele>174</ele>
        <time>2013-02-10T09:58:32</time>
      </trkpt>
      <trkpt lat="43.31634" lon="-0.47973">
        <ele>175</ele>
        <time>2013-02-10T09:58:37</time>
      </trkpt>
      <trkpt lat="43.31646" lon="-0.47951">
        <ele>175</ele>
        <time>2013-02-10T09:58:42</time>
      </trkpt>
      <trkpt lat="43.31665" lon="-0.4793">
        <ele>176</ele>
        <time>2013-02-10T09:58:47</time>
      </trkpt>
      <trkpt lat="43.31682" lon="-0.47911">
        <ele>176</ele>
        <time>2013-02-10T09:58:52</time>
      </trkpt>
      <trkpt lat="43.31695" lon="-0.4789">
        <ele>176</ele>
        <time>2013-02-10T09:58:57</time>
      </trkpt>
      <trkpt lat="43.31717" lon="-0.47896">
        <ele>175</ele>
        <time>2013-02-10T09:59:02</time>
      </trkpt>
      <trkpt lat="43.31734" lon="-0.47897">
        <ele>175</ele>
        <time>2013-02-10T09:59:07</time>
      </trkpt>
      <trkpt lat="43.31759" lon="-0.47902">
        <ele>176</ele>
        <time>2013-02-10T09:59:12</time>
      </trkpt>
      <trkpt lat="43.31779" lon="-0.47911">
        <ele>175</ele>
        <time>2013-02-10T09:59:17</time>
      </trkpt>
      <trkpt lat="43.31804" lon="-0.47915">
        <ele>175</ele>
        <time>2013-02-10T09:59:22</time>
      </trkpt>
      <trkpt lat="43.31834" lon="-0.47906">
        <ele>174</ele>
        <time>2013-02-10T09:59:27</time>
      </trkpt>
      <trkpt lat="43.31871" lon="-0.47899">
        <ele>174</ele>
        <time>2013-02-10T09:59:32</time>
      </trkpt>
      <trkpt lat="43.31905" lon="-0.47897">
        <ele>174</ele>
        <time>2013-02-10T09:59:37</time>
      </trkpt>
      <trkpt lat="43.3193" lon="-0.47904">
        <ele>174</ele>
        <time>2013-02-10T09:59:42</time>
      </trkpt>
      <trkpt lat="43.31957" lon="-0.47917">
        <ele>174</ele>
        <time>2013-02-10T09:59:47</time>
      </trkpt>
      <trkpt lat="43.31979" lon="-0.47932">
        <ele>174</ele>
        <time>2013-02-10T09:59:52</time>
      </trkpt>
      <trkpt lat="43.32006" lon="-0.47957">
        <ele>174</ele>
        <time>2013-02-10T09:59:57</time>
      </trkpt>
      <trkpt lat="43.32034" lon="-0.4798">
        <ele>172</ele>
        <time>2013-02-10T10:00:02</time>
      </trkpt>
      <trkpt lat="43.32058" lon="-0.48002">
        <ele>173</ele>
        <time>2013-02-10T10:00:07</time>
      </trkpt>
      <trkpt lat="43.32081" lon="-0.48028">
        <ele>174</ele>
        <time>2013-02-10T10:00:13</time>
      </trkpt>
      <trkpt lat="43.32106" lon="-0.48042">
        <ele>173</ele>
        <time>2013-02-10T10:00:18</time>
      </trkpt>
      <trkpt lat="43.3213" lon="-0.48053">
        <ele>173</ele>
        <time>2013-02-10T10:00:23</time>
      </trkpt>
      <trkpt lat="43.32139" lon="-0.48083">
        <ele>173</ele>
        <time>2013-02-10T10:00:28</time>
      </trkpt>
      <trkpt lat="43.32143" lon="-0.48117">
        <ele>172</ele>
        <time>2013-02-10T10:00:33</time>
      </trkpt>
      <trkpt lat="43.32165" lon="-0.48151">
        <ele>172</ele>
        <time>2013-02-10T10:00:38</time>
      </trkpt>
      <trkpt lat="43.32185" lon="-0.48172">
        <ele>172</ele>
        <time>2013-02-10T10:00:43</time>
      </trkpt>
      <trkpt lat="43.32207" lon="-0.482">
        <ele>170</ele>
        <time>2013-02-10T10:00:48</time>
      </trkpt>
      <trkpt lat="43.32228" lon="-0.48226">
        <ele>170</ele>
        <time>2013-02-10T10:00:53</time>
      </trkpt>
      <trkpt lat="43.32223" lon="-0.48249">
        <ele>170</ele>
        <time>2013-02-10T10:00:58</time>
      </trkpt>
      <trkpt lat="43.32204" lon="-0.4827">
        <ele>171</ele>
        <time>2013-02-10T10:01:03</time>
      </trkpt>
      <trkpt lat="43.32186" lon="-0.48292">
        <ele>171</ele>
        <time>2013-02-10T10:01:08</time>
      </trkpt>
      <trkpt lat="43.32167" lon="-0.48317">
        <ele>171</ele>
        <time>2013-02-10T10:01:13</time>
      </trkpt>
      <trkpt lat="43.32147" lon="-0.48339">
        <ele>171</ele>
        <time>2013-02-10T10:01:18</time>
      </trkpt>
      <trkpt lat="43.32124" lon="-0.48351">
        <ele>171</ele>
        <time>2013-02-10T10:01:23</time>
      </trkpt>
      <trkpt lat="43.32102" lon="-0.48365">
        <ele>172</ele>
        <time>2013-02-10T10:01:28</time>
      </trkpt>
      <trkpt lat="43.32087" lon="-0.4838">
        <ele>173</ele>
        <time>2013-02-10T10:01:33</time>
      </trkpt>
      <trkpt lat="43.32073" lon="-0.48399">
        <ele>172</ele>
        <time>2013-02-10T10:01:38</time>
      </trkpt>
      <trkpt lat="43.32057" lon="-0.48437">
        <ele>172</ele>
        <time>2013-02-10T10:01:43</time>
      </trkpt>
      <trkpt lat="43.32043" lon="-0.48474">
        <ele>175</ele>
        <time>2013-02-10T10:01:48</time>
      </trkpt>
      <trkpt lat="43.3203" lon="-0.48503">
        <ele>175</ele>
        <time>2013-02-10T10:01:53</time>
      </trkpt>
      <trkpt lat="43.32035" lon="-0.4852">
        <ele>175</ele>
        <time>2013-02-10T10:01:58</time>
      </trkpt>
      <trkpt lat="43.32057" lon="-0.48532">
        <ele>175</ele>
        <time>2013-02-10T10:02:03</time>
      </trkpt>
      <trkpt lat="43.32082" lon="-0.48548">
        <ele>174</ele>
        <time>2013-02-10T10:02:08</time>
      </trkpt>
      <trkpt lat="43.32105" lon="-0.48566">
        <ele>175</ele>
        <time>2013-02-10T10:02:13</time>
      </trkpt>
      <trkpt lat="43.32126" lon="-0.48601">
        <ele>173</ele>
        <time>2013-02-10T10:02:18</time>
      </trkpt>
      <trkpt lat="43.32137" lon="-0.48636">
        <ele>174</ele>
        <time>2013-02-10T10:02:23</time>
      </trkpt>
      <trkpt lat="43.3215" lon="-0.48666">
        <ele>174</ele>
        <time>2013-02-10T10:02:28</time>
      </trkpt>
      <trkpt lat="43.32166" lon="-0.48683">
        <ele>173</ele>
        <time>2013-02-10T10:02:33</time>
      </trkpt>
      <trkpt lat="43.32187" lon="-0.48698">
        <ele>173</ele>
        <time>2013-02-10T10:02:39</time>
      </trkpt>
      <trkpt lat="43.32207" lon="-0.48712">
        <ele>172</ele>
        <time>2013-02-10T10:02:44</time>
      </trkpt>
      <trkpt lat="43.3223" lon="-0.48726">
        <ele>171</ele>
        <time>2013-02-10T10:02:49</time>
      </trkpt>
      <trkpt lat="43.32247" lon="-0.48734">
        <ele>171</ele>
        <time>2013-02-10T10:02:54</time>
      </trkpt>
      <trkpt lat="43.32268" lon="-0.48758">
        <ele>171</ele>
        <time>2013-02-10T10:02:59</time>
      </trkpt>
      <trkpt lat="43.32298" lon="-0.48779">
        <ele>170</ele>
        <time>2013-02-10T10:03:04</time>
      </trkpt>
      <trkpt lat="43.32326" lon="-0.48797">
        <ele>172</ele>
        <time>2013-02-10T10:03:09</time>
      </trkpt>
      <trkpt lat="43.32352" lon="-0.48826">
        <ele>170</ele>
        <time>2013-02-10T10:03:14</time>
      </trkpt>
      <trkpt lat="43.3237" lon="-0.4886">
        <ele>171</ele>
        <time>2013-02-10T10:03:19</time>
      </trkpt>
      <trkpt lat="43.32387" lon="-0.48891">
        <ele>170</ele>
        <time>2013-02-10T10:03:24</time>
      </trkpt>
      <trkpt lat="43.32405" lon="-0.48926">
        <ele>169</ele>
        <time>2013-02-10T10:03:29</time>
      </trkpt>
      <trkpt lat="43.32428" lon="-0.48967">
        <ele>170</ele>
        <time>2013-02-10T10:03:34</time>
      </trkpt>
      <trkpt lat="43.32449" lon="-0.49006">
        <ele>170</ele>
        <time>2013-02-10T10:03:39</time>
      </trkpt>
      <trkpt lat="43.32471" lon="-0.49043">
        <ele>170</ele>
        <time>2013-02-10T10:03:44</time>
      </trkpt>
      <trkpt lat="43.32492" lon="-0.49079">
        <ele>169</ele>
        <time>2013-02-10T10:03:49</time>
      </trkpt>
      <trkpt lat="43.32507" lon="-0.49119">
        <ele>169</ele>
        <time>2013-02-10T10:03:54</time>
      </trkpt>
      <trkpt lat="43.32521" lon="-0.4916">
        <ele>169</ele>
        <time>2013-02-10T10:03:59</time>
      </trkpt>
      <trkpt lat="43.32535" lon="-0.492">
        <ele>169</ele>
        <time>2013-02-10T10:04:04</time>
      </trkpt>
      <trkpt lat="43.32551" lon="-0.49249">
        <ele>168</ele>
        <time>2013-02-10T10:04:09</time>
      </trkpt>
      <trkpt lat="43.32564" lon="-0.49289">
        <ele>169</ele>
        <time>2013-02-10T10:04:14</time>
      </trkpt>
      <trkpt lat="43.32578" lon="-0.49329">
        <ele>169</ele>
        <time>2013-02-10T10:04:19</time>
      </trkpt>
      <trkpt lat="43.32589" lon="-0.49368">
        <ele>170</ele>
        <time>2013-02-10T10:04:24</time>
      </trkpt>
      <trkpt lat="43.32611" lon="-0.49397">
        <ele>169</ele>
        <time>2013-02-10T10:04:29</time>
      </trkpt>
      <trkpt lat="43.32633" lon="-0.4942">
        <ele>169</ele>
        <time>2013-02-10T10:04:34</time>
      </trkpt>
      <trkpt lat="43.32653" lon="-0.49447">
        <ele>168</ele>
        <time>2013-02-10T10:04:39</time>
      </trkpt>
      <trkpt lat="43.32671" lon="-0.49486">
        <ele>168</ele>
        <time>2013-02-10T10:04:44</time>
      </trkpt>
      <trkpt lat="43.32686" lon="-0.49527">
        <ele>168</ele>
        <time>2013-02-10T10:04:49</time>
      </trkpt>
      <trkpt lat="43.32702" lon="-0.49566">
        <ele>168</ele>
        <time>2013-02-10T10:04:54</time>
      </trkpt>
      <trkpt lat="43.3272" lon="-0.49602">
        <ele>167</ele>
        <time>2013-02-10T10:05:00</time>
      </trkpt>
      <trkpt lat="43.32738" lon="-0.49638">
        <ele>169</ele>
        <time>2013-02-10T10:05:05</time>
      </trkpt>
      <trkpt lat="43.32754" lon="-0.49677">
        <ele>167</ele>
        <time>2013-02-10T10:05:10</time>
      </trkpt>
      <trkpt lat="43.32764" lon="-0.49721">
        <ele>167</ele>
        <time>2013-02-10T10:05:15</time>
      </trkpt>
      <trkpt lat="43.32768" lon="-0.49758">
        <ele>166</ele>
        <time>2013-02-10T10:05:20</time>
      </trkpt>
      <trkpt lat="43.32774" lon="-0.49801">
        <ele>167</ele>
        <time>2013-02-10T10:05:25</time>
      </trkpt>
      <trkpt lat="43.3278" lon="-0.49844">
        <ele>165</ele>
        <time>2013-02-10T10:05:30</time>
      </trkpt>
      <trkpt lat="43.32786" lon="-0.49886">
        <ele>166</ele>
        <time>2013-02-10T10:05:35</time>
      </trkpt>
      <trkpt lat="43.32795" lon="-0.49924">
        <ele>168</ele>
        <time>2013-02-10T10:05:40</time>
      </trkpt>
      <trkpt lat="43.32806" lon="-0.49961">
        <ele>169</ele>
        <time>2013-02-10T10:05:45</time>
      </trkpt>
      <trkpt lat="43.32817" lon="-0.49995">
        <ele>169</ele>
        <time>2013-02-10T10:05:50</time>
      </trkpt>
      <trkpt lat="43.32827" lon="-0.50026">
        <ele>169</ele>
        <time>2013-02-10T10:05:55</time>
      </trkpt>
      <trkpt lat="43.32838" lon="-0.50059">
        <ele>169</ele>
        <time>2013-02-10T10:06:00</time>
      </trkpt>
      <trkpt lat="43.32848" lon="-0.5009">
        <ele>171</ele>
        <time>2013-02-10T10:06:05</time>
      </trkpt>
      <trkpt lat="43.32858" lon="-0.50122">
        <ele>171</ele>
        <time>2013-02-10T10:06:10</time>
      </trkpt>
      <trkpt lat="43.3287" lon="-0.50162">
        <ele>169</ele>
        <time>2013-02-10T10:06:15</time>
      </trkpt>
      <trkpt lat="43.32883" lon="-0.50195">
        <ele>171</ele>
        <time>2013-02-10T10:06:20</time>
      </trkpt>
      <trkpt lat="43.32902" lon="-0.50219">
        <ele>170</ele>
        <time>2013-02-10T10:06:25</time>
      </trkpt>
      <trkpt lat="43.32919" lon="-0.5024">
        <ele>170</ele>
        <time>2013-02-10T10:06:30</time>
      </trkpt>
      <trkpt lat="43.32934" lon="-0.50271">
        <ele>168</ele>
        <time>2013-02-10T10:06:35</time>
      </trkpt>
      <trkpt lat="43.32951" lon="-0.50308">
        <ele>168</ele>
        <time>2013-02-10T10:06:40</time>
      </trkpt>
      <trkpt lat="43.32969" lon="-0.50342">
        <ele>169</ele>
        <time>2013-02-10T10:06:45</time>
      </trkpt>
      <trkpt lat="43.32991" lon="-0.50364">
        <ele>168</ele>
        <time>2013-02-10T10:06:50</time>
      </trkpt>
      <trkpt lat="43.33016" lon="-0.50387">
        <ele>167</ele>
        <time>2013-02-10T10:06:55</time>
      </trkpt>
      <trkpt lat="43.33039" lon="-0.50405">
        <ele>168</ele>
        <time>2013-02-10T10:07:00</time>
      </trkpt>
      <trkpt lat="43.33058" lon="-0.50422">
        <ele>168</ele>
        <time>2013-02-10T10:07:05</time>
      </trkpt>
      <trkpt lat="43.33077" lon="-0.50435">
        <ele>170</ele>
        <time>2013-02-10T10:07:10</time>
      </trkpt>
      <trkpt lat="43.331" lon="-0.50455">
        <ele>169</ele>
        <time>2013-02-10T10:07:15</time>
      </trkpt>
      <trkpt lat="43.33122" lon="-0.50476">
        <ele>170</ele>
        <time>2013-02-10T10:07:20</time>
      </trkpt>
      <trkpt lat="43.33147" lon="-0.50481">
        <ele>168</ele>
        <time>2013-02-10T10:07:25</time>
      </trkpt>
      <trkpt lat="43.33176" lon="-0.50489">
        <ele>169</ele>
        <time>2013-02-10T10:07:30</time>
      </trkpt>
      <trkpt lat="43.33205" lon="-0.50499">
        <ele>169</ele>
        <time>2013-02-10T10:07:35</time>
      </trkpt>
      <trkpt lat="43.33227" lon="-0.50514">
        <ele>168</ele>
        <time>2013-02-10T10:07:40</time>
      </trkpt>
      <trkpt lat="43.33252" lon="-0.50528">
        <ele>168</ele>
        <time>2013-02-10T10:07:46</time>
      </trkpt>
      <trkpt lat="43.33282" lon="-0.50545">
        <ele>166</ele>
        <time>2013-02-10T10:07:51</time>
      </trkpt>
      <trkpt lat="43.33318" lon="-0.50562">
        <ele>164</ele>
        <time>2013-02-10T10:07:56</time>
      </trkpt>
      <trkpt lat="43.33341" lon="-0.50578">
        <ele>163</ele>
        <time>2013-02-10T10:08:01</time>
      </trkpt>
      <trkpt lat="43.33356" lon="-0.50598">
        <ele>162</ele>
        <time>2013-02-10T10:08:06</time>
      </trkpt>
      <trkpt lat="43.33369" lon="-0.50604">
        <ele>163</ele>
        <time>2013-02-10T10:08:11</time>
      </trkpt>
      <trkpt lat="43.33393" lon="-0.50618">
        <ele>161</ele>
        <time>2013-02-10T10:08:16</time>
      </trkpt>
      <trkpt lat="43.33414" lon="-0.50636">
        <ele>161</ele>
        <time>2013-02-10T10:08:21</time>
      </trkpt>
      <trkpt lat="43.33438" lon="-0.50656">
        <ele>160</ele>
        <time>2013-02-10T10:08:26</time>
      </trkpt>
      <trkpt lat="43.33454" lon="-0.50675">
        <ele>159</ele>
        <time>2013-02-10T10:08:31</time>
      </trkpt>
      <trkpt lat="43.33445" lon="-0.50696">
        <ele>160</ele>
        <time>2013-02-10T10:08:36</time>
      </trkpt>
      <trkpt lat="43.33427" lon="-0.50695">
        <ele>160</ele>
        <time>2013-02-10T10:08:41</time>
      </trkpt>
      <trkpt lat="43.33413" lon="-0.50693">
        <ele>161</ele>
        <time>2013-02-10T10:08:46</time>
      </trkpt>
      <trkpt lat="43.33397" lon="-0.50682">
        <ele>163</ele>
        <time>2013-02-10T10:08:51</time>
      </trkpt>
      <trkpt lat="43.33385" lon="-0.50667">
        <ele>164</ele>
        <time>2013-02-10T10:08:56</time>
      </trkpt>
      <trkpt lat="43.33381" lon="-0.50647">
        <ele>165</ele>
        <time>2013-02-10T10:09:01</time>
      </trkpt>
      <trkpt lat="43.33365" lon="-0.50633">
        <ele>164</ele>
        <time>2013-02-10T10:09:06</time>
      </trkpt>
      <trkpt lat="43.33351" lon="-0.50632">
        <ele>166</ele>
        <time>2013-02-10T10:09:11</time>
      </trkpt>
      <trkpt lat="43.33332" lon="-0.5064">
        <ele>168</ele>
        <time>2013-02-10T10:09:16</time>
      </trkpt>
      <trkpt lat="43.3332" lon="-0.50648">
        <ele>168</ele>
        <time>2013-02-10T10:09:21</time>
      </trkpt>
      <trkpt lat="43.33312" lon="-0.50654">
        <ele>170</ele>
        <time>2013-02-10T10:09:26</time>
      </trkpt>
      <trkpt lat="43.33301" lon="-0.50656">
        <ele>172</ele>
        <time>2013-02-10T10:09:31</time>
      </trkpt>
      <trkpt lat="43.33288" lon="-0.50653">
        <ele>174</ele>
        <time>2013-02-10T10:09:36</time>
      </trkpt>
      <trkpt lat="43.33277" lon="-0.50647">
        <ele>176</ele>
        <time>2013-02-10T10:09:41</time>
      </trkpt>
      <trkpt lat="43.33277" lon="-0.50647">
        <ele>176</ele>
        <time>2013-02-10T10:09:46</time>
      </trkpt>
      <trkpt lat="43.33264" lon="-0.50644">
        <ele>176</ele>
        <time>2013-02-10T10:09:51</time>
      </trkpt>
      <trkpt lat="43.33252" lon="-0.50638">
        <ele>178</ele>
        <time>2013-02-10T10:09:56</time>
      </trkpt>
      <trkpt lat="43.33241" lon="-0.50635">
        <ele>178</ele>
        <time>2013-02-10T10:10:01</time>
      </trkpt>
      <trkpt lat="43.3323" lon="-0.50631">
        <ele>182</ele>
        <time>2013-02-10T10:10:07</time>
      </trkpt>
      <trkpt lat="43.33219" lon="-0.5063">
        <ele>182</ele>
        <time>2013-02-10T10:10:12</time>
      </trkpt>
      <trkpt lat="43.33206" lon="-0.50629">
        <ele>184</ele>
        <time>2013-02-10T10:10:17</time>
      </trkpt>
      <trkpt lat="43.33193" lon="-0.50629">
        <ele>185</ele>
        <time>2013-02-10T10:10:22</time>
      </trkpt>
      <trkpt lat="43.33185" lon="-0.50628">
        <ele>185</ele>
        <time>2013-02-10T10:10:27</time>
      </trkpt>
      <trkpt lat="43.33175" lon="-0.50629">
        <ele>187</ele>
        <time>2013-02-10T10:10:32</time>
      </trkpt>
      <trkpt lat="43.33168" lon="-0.50633">
        <ele>187</ele>
        <time>2013-02-10T10:10:37</time>
      </trkpt>
      <trkpt lat="43.33163" lon="-0.50638">
        <ele>189</ele>
        <time>2013-02-10T10:10:42</time>
      </trkpt>
      <trkpt lat="43.33163" lon="-0.50641">
        <ele>190</ele>
        <time>2013-02-10T10:10:47</time>
      </trkpt>
      <trkpt lat="43.33165" lon="-0.50649">
        <ele>191</ele>
        <time>2013-02-10T10:10:52</time>
      </trkpt>
      <trkpt lat="43.33169" lon="-0.50656">
        <ele>191</ele>
        <time>2013-02-10T10:10:57</time>
      </trkpt>
      <trkpt lat="43.33173" lon="-0.50665">
        <ele>193</ele>
        <time>2013-02-10T10:11:02</time>
      </trkpt>
      <trkpt lat="43.3318" lon="-0.50674">
        <ele>194</ele>
        <time>2013-02-10T10:11:07</time>
      </trkpt>
      <trkpt lat="43.33187" lon="-0.50688">
        <ele>193</ele>
        <time>2013-02-10T10:11:12</time>
      </trkpt>
      <trkpt lat="43.33192" lon="-0.50702">
        <ele>197</ele>
        <time>2013-02-10T10:11:17</time>
      </trkpt>
      <trkpt lat="43.33198" lon="-0.50717">
        <ele>198</ele>
        <time>2013-02-10T10:11:22</time>
      </trkpt>
      <trkpt lat="43.33203" lon="-0.5073">
        <ele>198</ele>
        <time>2013-02-10T10:11:27</time>
      </trkpt>
      <trkpt lat="43.3321" lon="-0.50748">
        <ele>200</ele>
        <time>2013-02-10T10:11:32</time>
      </trkpt>
      <trkpt lat="43.33221" lon="-0.50771">
        <ele>197</ele>
        <time>2013-02-10T10:11:37</time>
      </trkpt>
      <trkpt lat="43.33235" lon="-0.50784">
        <ele>194</ele>
        <time>2013-02-10T10:11:42</time>
      </trkpt>
      <trkpt lat="43.33237" lon="-0.5078">
        <ele>197</ele>
        <time>2013-02-10T10:11:47</time>
      </trkpt>
      <trkpt lat="43.33237" lon="-0.5078">
        <ele>198</ele>
        <time>2013-02-10T10:11:52</time>
      </trkpt>
      <trkpt lat="43.33237" lon="-0.5078">
        <ele>198</ele>
        <time>2013-02-10T10:11:57</time>
      </trkpt>
      <trkpt lat="43.33237" lon="-0.5078">
        <ele>201</ele>
        <time>2013-02-10T10:12:02</time>
      </trkpt>
      <trkpt lat="43.33237" lon="-0.5078">
        <ele>202</ele>
        <time>2013-02-10T10:12:07</time>
      </trkpt>
      <trkpt lat="43.33237" lon="-0.5078">
        <ele>204</ele>
        <time>2013-02-10T10:12:12</time>
      </trkpt>
      <trkpt lat="43.33268" lon="-0.50815">
        <ele>205</ele>
        <time>2013-02-10T10:12:17</time>
      </trkpt>
      <trkpt lat="43.33268" lon="-0.50815">
        <ele>207</ele>
        <time>2013-02-10T10:12:23</time>
      </trkpt>
      <trkpt lat="43.33268" lon="-0.50815">
        <ele>207</ele>
        <time>2013-02-10T10:12:28</time>
      </trkpt>
      <trkpt lat="43.33268" lon="-0.50815">
        <ele>208</ele>
        <time>2013-02-10T10:12:33</time>
      </trkpt>
      <trkpt lat="43.33278" lon="-0.50864">
        <ele>209</ele>
        <time>2013-02-10T10:12:38</time>
      </trkpt>
      <trkpt lat="43.33279" lon="-0.50868">
        <ele>209</ele>
        <time>2013-02-10T10:12:43</time>
      </trkpt>
      <trkpt lat="43.33279" lon="-0.50868">
        <ele>209</ele>
        <time>2013-02-10T10:12:48</time>
      </trkpt>
      <trkpt lat="43.33279" lon="-0.50868">
        <ele>209</ele>
        <time>2013-02-10T10:12:53</time>
      </trkpt>
      <trkpt lat="43.33279" lon="-0.50868">
        <ele>211</ele>
        <time>2013-02-10T10:12:58</time>
      </trkpt>
      <trkpt lat="43.33279" lon="-0.50868">
        <ele>209</ele>
        <time>2013-02-10T10:13:03</time>
      </trkpt>
      <trkpt lat="43.33279" lon="-0.50868">
        <ele>213</ele>
        <time>2013-02-10T10:13:08</time>
      </trkpt>
      <trkpt lat="43.33279" lon="-0.50868">
        <ele>211</ele>
        <time>2013-02-10T10:13:13</time>
      </trkpt>
      <trkpt lat="43.33289" lon="-0.50918">
        <ele>212</ele>
        <time>2013-02-10T10:13:18</time>
      </trkpt>
      <trkpt lat="43.3329" lon="-0.50917">
        <ele>213</ele>
        <time>2013-02-10T10:13:23</time>
      </trkpt>
      <trkpt lat="43.3329" lon="-0.50917">
        <ele>215</ele>
        <time>2013-02-10T10:13:28</time>
      </trkpt>
      <trkpt lat="43.3329" lon="-0.50917">
        <ele>216</ele>
        <time>2013-02-10T10:13:33</time>
      </trkpt>
      <trkpt lat="43.3329" lon="-0.50917">
        <ele>217</ele>
        <time>2013-02-10T10:13:38</time>
      </trkpt>
      <trkpt lat="43.3329" lon="-0.50917">
        <ele>217</ele>
        <time>2013-02-10T10:13:43</time>
      </trkpt>
      <trkpt lat="43.33317" lon="-0.50951">
        <ele>219</ele>
        <time>2013-02-10T10:13:49</time>
      </trkpt>
      <trkpt lat="43.33322" lon="-0.50963">
        <ele>218</ele>
        <time>2013-02-10T10:13:54</time>
      </trkpt>
      <trkpt lat="43.33323" lon="-0.50965">
        <ele>221</ele>
        <time>2013-02-10T10:13:59</time>
      </trkpt>
      <trkpt lat="43.33323" lon="-0.50965">
        <ele>220</ele>
        <time>2013-02-10T10:14:04</time>
      </trkpt>
      <trkpt lat="43.33323" lon="-0.50965">
        <ele>222</ele>
        <time>2013-02-10T10:14:09</time>
      </trkpt>
      <trkpt lat="43.33323" lon="-0.50965">
        <ele>226</ele>
        <time>2013-02-10T10:14:14</time>
      </trkpt>
      <trkpt lat="43.33337" lon="-0.51013">
        <ele>227</ele>
        <time>2013-02-10T10:14:19</time>
      </trkpt>
      <trkpt lat="43.33337" lon="-0.51015">
        <ele>227</ele>
        <time>2013-02-10T10:14:24</time>
      </trkpt>
      <trkpt lat="43.33337" lon="-0.51015">
        <ele>227</ele>
        <time>2013-02-10T10:14:29</time>
      </trkpt>
      <trkpt lat="43.33337" lon="-0.51015">
        <ele>230</ele>
        <time>2013-02-10T10:14:34</time>
      </trkpt>
      <trkpt lat="43.33337" lon="-0.51015">
        <ele>229</ele>
        <time>2013-02-10T10:14:39</time>
      </trkpt>
      <trkpt lat="43.33343" lon="-0.51069">
        <ele>232</ele>
        <time>2013-02-10T10:14:44</time>
      </trkpt>
      <trkpt lat="43.33343" lon="-0.51071">
        <ele>232</ele>
        <time>2013-02-10T10:14:49</time>
      </trkpt>
      <trkpt lat="43.33343" lon="-0.51071">
        <ele>235</ele>
        <time>2013-02-10T10:14:54</time>
      </trkpt>
      <trkpt lat="43.33345" lon="-0.51102">
        <ele>235</ele>
        <time>2013-02-10T10:14:59</time>
      </trkpt>
      <trkpt lat="43.33345" lon="-0.51105">
        <ele>235</ele>
        <time>2013-02-10T10:15:04</time>
      </trkpt>
      <trkpt lat="43.33349" lon="-0.51126">
        <ele>234</ele>
        <time>2013-02-10T10:15:09</time>
      </trkpt>
      <trkpt lat="43.33349" lon="-0.51133">
        <ele>235</ele>
        <time>2013-02-10T10:15:14</time>
      </trkpt>
      <trkpt lat="43.33354" lon="-0.51156">
        <ele>237</ele>
        <time>2013-02-10T10:15:19</time>
      </trkpt>
      <trkpt lat="43.33356" lon="-0.51169">
        <ele>239</ele>
        <time>2013-02-10T10:15:24</time>
      </trkpt>
      <trkpt lat="43.33358" lon="-0.51185">
        <ele>238</ele>
        <time>2013-02-10T10:15:29</time>
      </trkpt>
      <trkpt lat="43.33358" lon="-0.51185">
        <ele>238</ele>
        <time>2013-02-10T10:15:35</time>
      </trkpt>
      <trkpt lat="43.33358" lon="-0.51185">
        <ele>240</ele>
        <time>2013-02-10T10:15:40</time>
      </trkpt>
      <trkpt lat="43.33358" lon="-0.51185">
        <ele>241</ele>
        <time>2013-02-10T10:15:45</time>
      </trkpt>
      <trkpt lat="43.33358" lon="-0.51185">
        <ele>240</ele>
        <time>2013-02-10T10:15:50</time>
      </trkpt>
      <trkpt lat="43.33366" lon="-0.51236">
        <ele>241</ele>
        <time>2013-02-10T10:15:55</time>
      </trkpt>
      <trkpt lat="43.33362" lon="-0.5124">
        <ele>241</ele>
        <time>2013-02-10T10:16:00</time>
      </trkpt>
      <trkpt lat="43.33349" lon="-0.51251">
        <ele>239</ele>
        <time>2013-02-10T10:16:05</time>
      </trkpt>
      <trkpt lat="43.33343" lon="-0.51257">
        <ele>239</ele>
        <time>2013-02-10T10:16:10</time>
      </trkpt>
      <trkpt lat="43.33334" lon="-0.51271">
        <ele>241</ele>
        <time>2013-02-10T10:16:15</time>
      </trkpt>
      <trkpt lat="43.33334" lon="-0.51288">
        <ele>240</ele>
        <time>2013-02-10T10:16:20</time>
      </trkpt>
      <trkpt lat="43.33331" lon="-0.51311">
        <ele>242</ele>
        <time>2013-02-10T10:16:25</time>
      </trkpt>
      <trkpt lat="43.33325" lon="-0.51339">
        <ele>242</ele>
        <time>2013-02-10T10:16:30</time>
      </trkpt>
      <trkpt lat="43.33319" lon="-0.51354">
        <ele>241</ele>
        <time>2013-02-10T10:16:35</time>
      </trkpt>
      <trkpt lat="43.33314" lon="-0.51368">
        <ele>243</ele>
        <time>2013-02-10T10:16:40</time>
      </trkpt>
      <trkpt lat="43.33306" lon="-0.51383">
        <ele>243</ele>
        <time>2013-02-10T10:16:45</time>
      </trkpt>
      <trkpt lat="43.33298" lon="-0.51393">
        <ele>244</ele>
        <time>2013-02-10T10:16:50</time>
      </trkpt>
      <trkpt lat="43.33292" lon="-0.51406">
        <ele>244</ele>
        <time>2013-02-10T10:16:55</time>
      </trkpt>
      <trkpt lat="43.33274" lon="-0.51427">
        <ele>240</ele>
        <time>2013-02-10T10:17:00</time>
      </trkpt>
      <trkpt lat="43.3325" lon="-0.5145">
        <ele>235</ele>
        <time>2013-02-10T10:17:05</time>
      </trkpt>
      <trkpt lat="43.33232" lon="-0.51472">
        <ele>231</ele>
        <time>2013-02-10T10:17:10</time>
      </trkpt>
      <trkpt lat="43.33218" lon="-0.51491">
        <ele>228</ele>
        <time>2013-02-10T10:17:15</time>
      </trkpt>
      <trkpt lat="43.33204" lon="-0.51505">
        <ele>227</ele>
        <time>2013-02-10T10:17:20</time>
      </trkpt>
      <trkpt lat="43.33204" lon="-0.51505">
        <ele>229</ele>
        <time>2013-02-10T10:17:25</time>
      </trkpt>
      <trkpt lat="43.33204" lon="-0.51505">
        <ele>228</ele>
        <time>2013-02-10T10:17:30</time>
      </trkpt>
      <trkpt lat="43.33204" lon="-0.51505">
        <ele>231</ele>
        <time>2013-02-10T10:17:35</time>
      </trkpt>
      <trkpt lat="43.33188" lon="-0.51552">
        <ele>234</ele>
        <time>2013-02-10T10:17:40</time>
      </trkpt>
      <trkpt lat="43.33184" lon="-0.51559">
        <ele>234</ele>
        <time>2013-02-10T10:17:45</time>
      </trkpt>
      <trkpt lat="43.33184" lon="-0.51559">
        <ele>236</ele>
        <time>2013-02-10T10:17:51</time>
      </trkpt>
      <trkpt lat="43.33184" lon="-0.51559">
        <ele>236</ele>
        <time>2013-02-10T10:17:56</time>
      </trkpt>
      <trkpt lat="43.33184" lon="-0.51559">
        <ele>238</ele>
        <time>2013-02-10T10:18:01</time>
      </trkpt>
      <trkpt lat="43.33184" lon="-0.51559">
        <ele>241</ele>
        <time>2013-02-10T10:18:06</time>
      </trkpt>
      <trkpt lat="43.33183" lon="-0.51614">
        <ele>239</ele>
        <time>2013-02-10T10:18:11</time>
      </trkpt>
      <trkpt lat="43.33183" lon="-0.51614">
        <ele>240</ele>
        <time>2013-02-10T10:18:16</time>
      </trkpt>
      <trkpt lat="43.33201" lon="-0.51627">
        <ele>238</ele>
        <time>2013-02-10T10:18:21</time>
      </trkpt>
      <trkpt lat="43.33221" lon="-0.51614">
        <ele>235</ele>
        <time>2013-02-10T10:18:26</time>
      </trkpt>
      <trkpt lat="43.33246" lon="-0.51595">
        <ele>228</ele>
        <time>2013-02-10T10:18:31</time>
      </trkpt>
      <trkpt lat="43.33276" lon="-0.51576">
        <ele>222</ele>
        <time>2013-02-10T10:18:36</time>
      </trkpt>
      <trkpt lat="43.33319" lon="-0.5158">
        <ele>216</ele>
        <time>2013-02-10T10:18:41</time>
      </trkpt>
      <trkpt lat="43.3337" lon="-0.51596">
        <ele>211</ele>
        <time>2013-02-10T10:18:46</time>
      </trkpt>
      <trkpt lat="43.33397" lon="-0.51601">
        <ele>212</ele>
        <time>2013-02-10T10:18:51</time>
      </trkpt>
      <trkpt lat="43.3341" lon="-0.516">
        <ele>215</ele>
        <time>2013-02-10T10:18:56</time>
      </trkpt>
      <trkpt lat="43.3342" lon="-0.51598">
        <ele>214</ele>
        <time>2013-02-10T10:19:01</time>
      </trkpt>
      <trkpt lat="43.33427" lon="-0.51598">
        <ele>218</ele>
        <time>2013-02-10T10:19:06</time>
      </trkpt>
      <trkpt lat="43.33438" lon="-0.51604">
        <ele>217</ele>
        <time>2013-02-10T10:19:11</time>
      </trkpt>
      <trkpt lat="43.33438" lon="-0.51604">
        <ele>219</ele>
        <time>2013-02-10T10:19:16</time>
      </trkpt>
      <trkpt lat="43.33438" lon="-0.51604">
        <ele>219</ele>
        <time>2013-02-10T10:19:21</time>
      </trkpt>
      <trkpt lat="43.33438" lon="-0.51604">
        <ele>219</ele>
        <time>2013-02-10T10:19:26</time>
      </trkpt>
      <trkpt lat="43.33483" lon="-0.51622">
        <ele>220</ele>
        <time>2013-02-10T10:19:31</time>
      </trkpt>
      <trkpt lat="43.33497" lon="-0.51631">
        <ele>223</ele>
        <time>2013-02-10T10:19:36</time>
      </trkpt>
      <trkpt lat="43.3351" lon="-0.51635">
        <ele>225</ele>
        <time>2013-02-10T10:19:41</time>
      </trkpt>
      <trkpt lat="43.33523" lon="-0.51636">
        <ele>225</ele>
        <time>2013-02-10T10:19:46</time>
      </trkpt>
      <trkpt lat="43.33536" lon="-0.51643">
        <ele>227</ele>
        <time>2013-02-10T10:19:51</time>
      </trkpt>
      <trkpt lat="43.3355" lon="-0.51646">
        <ele>227</ele>
        <time>2013-02-10T10:19:57</time>
      </trkpt>
      <trkpt lat="43.33562" lon="-0.5165">
        <ele>229</ele>
        <time>2013-02-10T10:20:02</time>
      </trkpt>
      <trkpt lat="43.33575" lon="-0.51653">
        <ele>233</ele>
        <time>2013-02-10T10:20:07</time>
      </trkpt>
      <trkpt lat="43.33584" lon="-0.51655">
        <ele>233</ele>
        <time>2013-02-10T10:20:12</time>
      </trkpt>
      <trkpt lat="43.33598" lon="-0.51662">
        <ele>233</ele>
        <time>2013-02-10T10:20:17</time>
      </trkpt>
      <trkpt lat="43.33609" lon="-0.51674">
        <ele>231</ele>
        <time>2013-02-10T10:20:22</time>
      </trkpt>
      <trkpt lat="43.33619" lon="-0.51681">
        <ele>231</ele>
        <time>2013-02-10T10:20:27</time>
      </trkpt>
      <trkpt lat="43.33631" lon="-0.5169">
        <ele>233</ele>
        <time>2013-02-10T10:20:32</time>
      </trkpt>
      <trkpt lat="43.33642" lon="-0.51696">
        <ele>233</ele>
        <time>2013-02-10T10:20:37</time>
      </trkpt>
      <trkpt lat="43.33653" lon="-0.51705">
        <ele>235</ele>
        <time>2013-02-10T10:20:42</time>
      </trkpt>
      <trkpt lat="43.33665" lon="-0.51713">
        <ele>237</ele>
        <time>2013-02-10T10:20:47</time>
      </trkpt>
      <trkpt lat="43.33673" lon="-0.51718">
        <ele>237</ele>
        <time>2013-02-10T10:20:52</time>
      </trkpt>
      <trkpt lat="43.33685" lon="-0.51729">
        <ele>237</ele>
        <time>2013-02-10T10:20:57</time>
      </trkpt>
      <trkpt lat="43.337" lon="-0.51747">
        <ele>236</ele>
        <time>2013-02-10T10:21:02</time>
      </trkpt>
      <trkpt lat="43.33712" lon="-0.51762">
        <ele>236</ele>
        <time>2013-02-10T10:21:07</time>
      </trkpt>
      <trkpt lat="43.33723" lon="-0.51774">
        <ele>238</ele>
        <time>2013-02-10T10:21:12</time>
      </trkpt>
      <trkpt lat="43.33736" lon="-0.51787">
        <ele>238</ele>
        <time>2013-02-10T10:21:17</time>
      </trkpt>
      <trkpt lat="43.33746" lon="-0.51795">
        <ele>238</ele>
        <time>2013-02-10T10:21:22</time>
      </trkpt>
      <trkpt lat="43.33757" lon="-0.51809">
        <ele>239</ele>
        <time>2013-02-10T10:21:27</time>
      </trkpt>
      <trkpt lat="43.33767" lon="-0.51825">
        <ele>240</ele>
        <time>2013-02-10T10:21:32</time>
      </trkpt>
      <trkpt lat="43.33778" lon="-0.5185">
        <ele>238</ele>
        <time>2013-02-10T10:21:37</time>
      </trkpt>
      <trkpt lat="43.33788" lon="-0.5187">
        <ele>240</ele>
        <time>2013-02-10T10:21:42</time>
      </trkpt>
      <trkpt lat="43.33797" lon="-0.51888">
        <ele>241</ele>
        <time>2013-02-10T10:21:47</time>
      </trkpt>
      <trkpt lat="43.33806" lon="-0.51911">
        <ele>244</ele>
        <time>2013-02-10T10:21:52</time>
      </trkpt>
      <trkpt lat="43.33812" lon="-0.51934">
        <ele>241</ele>
        <time>2013-02-10T10:21:57</time>
      </trkpt>
      <trkpt lat="43.33815" lon="-0.51961">
        <ele>240</ele>
        <time>2013-02-10T10:22:02</time>
      </trkpt>
      <trkpt lat="43.33817" lon="-0.51985">
        <ele>241</ele>
        <time>2013-02-10T10:22:07</time>
      </trkpt>
      <trkpt lat="43.33825" lon="-0.52012">
        <ele>241</ele>
        <time>2013-02-10T10:22:12</time>
      </trkpt>
      <trkpt lat="43.33841" lon="-0.52039">
        <ele>240</ele>
        <time>2013-02-10T10:22:17</time>
      </trkpt>
      <trkpt lat="43.33854" lon="-0.5206">
        <ele>240</ele>
        <time>2013-02-10T10:22:23</time>
      </trkpt>
      <trkpt lat="43.33864" lon="-0.52076">
        <ele>241</ele>
        <time>2013-02-10T10:22:28</time>
      </trkpt>
      <trkpt lat="43.33877" lon="-0.52095">
        <ele>242</ele>
        <time>2013-02-10T10:22:33</time>
      </trkpt>
      <trkpt lat="43.3389" lon="-0.52113">
        <ele>243</ele>
        <time>2013-02-10T10:22:38</time>
      </trkpt>
      <trkpt lat="43.33908" lon="-0.52132">
        <ele>245</ele>
        <time>2013-02-10T10:22:43</time>
      </trkpt>
      <trkpt lat="43.33933" lon="-0.52145">
        <ele>242</ele>
        <time>2013-02-10T10:22:48</time>
      </trkpt>
      <trkpt lat="43.33959" lon="-0.52149">
        <ele>242</ele>
        <time>2013-02-10T10:22:53</time>
      </trkpt>
      <trkpt lat="43.33986" lon="-0.52166">
        <ele>241</ele>
        <time>2013-02-10T10:22:58</time>
      </trkpt>
      <trkpt lat="43.34009" lon="-0.52177">
        <ele>239</ele>
        <time>2013-02-10T10:23:03</time>
      </trkpt>
      <trkpt lat="43.34031" lon="-0.52188">
        <ele>238</ele>
        <time>2013-02-10T10:23:08</time>
      </trkpt>
      <trkpt lat="43.3405" lon="-0.52198">
        <ele>236</ele>
        <time>2013-02-10T10:23:13</time>
      </trkpt>
      <trkpt lat="43.34068" lon="-0.5221">
        <ele>239</ele>
        <time>2013-02-10T10:23:18</time>
      </trkpt>
      <trkpt lat="43.34083" lon="-0.5222">
        <ele>241</ele>
        <time>2013-02-10T10:23:23</time>
      </trkpt>
      <trkpt lat="43.34098" lon="-0.52239">
        <ele>242</ele>
        <time>2013-02-10T10:23:28</time>
      </trkpt>
      <trkpt lat="43.3411" lon="-0.52249">
        <ele>242</ele>
        <time>2013-02-10T10:23:33</time>
      </trkpt>
      <trkpt lat="43.34122" lon="-0.52256">
        <ele>243</ele>
        <time>2013-02-10T10:23:38</time>
      </trkpt>
      <trkpt lat="43.34146" lon="-0.52265">
        <ele>241</ele>
        <time>2013-02-10T10:23:43</time>
      </trkpt>
      <trkpt lat="43.34175" lon="-0.52286">
        <ele>240</ele>
        <time>2013-02-10T10:23:48</time>
      </trkpt>
      <trkpt lat="43.34203" lon="-0.52307">
        <ele>238</ele>
        <time>2013-02-10T10:23:53</time>
      </trkpt>
      <trkpt lat="43.34222" lon="-0.52314">
        <ele>238</ele>
        <time>2013-02-10T10:23:58</time>
      </trkpt>
      <trkpt lat="43.34243" lon="-0.52325">
        <ele>236</ele>
        <time>2013-02-10T10:24:03</time>
      </trkpt>
      <trkpt lat="43.34253" lon="-0.52331">
        <ele>236</ele>
        <time>2013-02-10T10:24:08</time>
      </trkpt>
      <trkpt lat="43.34267" lon="-0.52363">
        <ele>233</ele>
        <time>2013-02-10T10:24:13</time>
      </trkpt>
      <trkpt lat="43.34277" lon="-0.52381">
        <ele>234</ele>
        <time>2013-02-10T10:24:18</time>
      </trkpt>
      <trkpt lat="43.34278" lon="-0.52383">
        <ele>232</ele>
        <time>2013-02-10T10:24:23</time>
      </trkpt>
      <trkpt lat="43.34278" lon="-0.52383">
        <ele>233</ele>
        <time>2013-02-10T10:24:28</time>
      </trkpt>
      <trkpt lat="43.34278" lon="-0.52383">
        <ele>231</ele>
        <time>2013-02-10T10:24:34</time>
      </trkpt>
      <trkpt lat="43.34293" lon="-0.52421">
        <ele>231</ele>
        <time>2013-02-10T10:24:39</time>
      </trkpt>
      <trkpt lat="43.34302" lon="-0.52427">
        <ele>233</ele>
        <time>2013-02-10T10:24:44</time>
      </trkpt>
      <trkpt lat="43.34305" lon="-0.52429">
        <ele>230</ele>
        <time>2013-02-10T10:24:49</time>
      </trkpt>
      <trkpt lat="43.34305" lon="-0.52429">
        <ele>230</ele>
        <time>2013-02-10T10:24:54</time>
      </trkpt>
      <trkpt lat="43.34308" lon="-0.52438">
        <ele>229</ele>
        <time>2013-02-10T10:24:59</time>
      </trkpt>
      <trkpt lat="43.34315" lon="-0.52423">
        <ele>225</ele>
        <time>2013-02-10T10:25:04</time>
      </trkpt>
      <trkpt lat="43.34321" lon="-0.52405">
        <ele>222</ele>
        <time>2013-02-10T10:25:09</time>
      </trkpt>
      <trkpt lat="43.34326" lon="-0.52399">
        <ele>220</ele>
        <time>2013-02-10T10:25:14</time>
      </trkpt>
      <trkpt lat="43.34326" lon="-0.52399">
        <ele>218</ele>
        <time>2013-02-10T10:25:19</time>
      </trkpt>
      <trkpt lat="43.34326" lon="-0.52399">
        <ele>220</ele>
        <time>2013-02-10T10:25:24</time>
      </trkpt>
      <trkpt lat="43.34326" lon="-0.52399">
        <ele>220</ele>
        <time>2013-02-10T10:25:29</time>
      </trkpt>
      <trkpt lat="43.34326" lon="-0.52399">
        <ele>220</ele>
        <time>2013-02-10T10:25:34</time>
      </trkpt>
      <trkpt lat="43.34326" lon="-0.52399">
        <ele>220</ele>
        <time>2013-02-10T10:25:39</time>
      </trkpt>
      <trkpt lat="43.34326" lon="-0.52399">
        <ele>221</ele>
        <time>2013-02-10T10:25:44</time>
      </trkpt>
      <trkpt lat="43.34326" lon="-0.52399">
        <ele>217</ele>
        <time>2013-02-10T10:25:49</time>
      </trkpt>
      <trkpt lat="43.34326" lon="-0.52399">
        <ele>217</ele>
        <time>2013-02-10T10:25:54</time>
      </trkpt>
      <trkpt lat="43.34326" lon="-0.52399">
        <ele>218</ele>
        <time>2013-02-10T10:25:59</time>
      </trkpt>
      <trkpt lat="43.34326" lon="-0.52399">
        <ele>216</ele>
        <time>2013-02-10T10:26:04</time>
      </trkpt>
      <trkpt lat="43.34343" lon="-0.52357">
        <ele>215</ele>
        <time>2013-02-10T10:26:09</time>
      </trkpt>
      <trkpt lat="43.34343" lon="-0.52357">
        <ele>214</ele>
        <time>2013-02-10T10:26:14</time>
      </trkpt>
      <trkpt lat="43.34343" lon="-0.52357">
        <ele>215</ele>
        <time>2013-02-10T10:26:19</time>
      </trkpt>
      <trkpt lat="43.34343" lon="-0.52357">
        <ele>212</ele>
        <time>2013-02-10T10:26:24</time>
      </trkpt>
      <trkpt lat="43.34343" lon="-0.52357">
        <ele>208</ele>
        <time>2013-02-10T10:26:30</time>
      </trkpt>
      <trkpt lat="43.3438" lon="-0.5235">
        <ele>207</ele>
        <time>2013-02-10T10:26:35</time>
      </trkpt>
      <trkpt lat="43.34391" lon="-0.52355">
        <ele>206</ele>
        <time>2013-02-10T10:26:40</time>
      </trkpt>
      <trkpt lat="43.34391" lon="-0.52355">
        <ele>205</ele>
        <time>2013-02-10T10:26:45</time>
      </trkpt>
      <trkpt lat="43.34412" lon="-0.52361">
        <ele>201</ele>
        <time>2013-02-10T10:26:50</time>
      </trkpt>
      <trkpt lat="43.34421" lon="-0.5236">
        <ele>199</ele>
        <time>2013-02-10T10:26:55</time>
      </trkpt>
      <trkpt lat="43.34435" lon="-0.52352">
        <ele>196</ele>
        <time>2013-02-10T10:27:00</time>
      </trkpt>
      <trkpt lat="43.34445" lon="-0.52345">
        <ele>193</ele>
        <time>2013-02-10T10:27:05</time>
      </trkpt>
      <trkpt lat="43.34445" lon="-0.52345">
        <ele>193</ele>
        <time>2013-02-10T10:27:10</time>
      </trkpt>
      <trkpt lat="43.34445" lon="-0.52345">
        <ele>192</ele>
        <time>2013-02-10T10:27:15</time>
      </trkpt>
      <trkpt lat="43.34463" lon="-0.52329">
        <ele>190</ele>
        <time>2013-02-10T10:27:20</time>
      </trkpt>
      <trkpt lat="43.34471" lon="-0.52313">
        <ele>187</ele>
        <time>2013-02-10T10:27:25</time>
      </trkpt>
      <trkpt lat="43.34481" lon="-0.52303">
        <ele>186</ele>
        <time>2013-02-10T10:27:30</time>
      </trkpt>
      <trkpt lat="43.34495" lon="-0.52304">
        <ele>183</ele>
        <time>2013-02-10T10:27:35</time>
      </trkpt>
      <trkpt lat="43.34519" lon="-0.52299">
        <ele>180</ele>
        <time>2013-02-10T10:27:40</time>
      </trkpt>
      <trkpt lat="43.34532" lon="-0.52276">
        <ele>176</ele>
        <time>2013-02-10T10:27:45</time>
      </trkpt>
      <trkpt lat="43.34538" lon="-0.52258">
        <ele>170</ele>
        <time>2013-02-10T10:27:50</time>
      </trkpt>
      <trkpt lat="43.34549" lon="-0.5224">
        <ele>168</ele>
        <time>2013-02-10T10:27:55</time>
      </trkpt>
      <trkpt lat="43.34566" lon="-0.52215">
        <ele>164</ele>
        <time>2013-02-10T10:28:00</time>
      </trkpt>
      <trkpt lat="43.34595" lon="-0.52189">
        <ele>160</ele>
        <time>2013-02-10T10:28:05</time>
      </trkpt>
      <trkpt lat="43.34632" lon="-0.52183">
        <ele>159</ele>
        <time>2013-02-10T10:28:10</time>
      </trkpt>
      <trkpt lat="43.34665" lon="-0.52184">
        <ele>158</ele>
        <time>2013-02-10T10:28:15</time>
      </trkpt>
      <trkpt lat="43.34685" lon="-0.52197">
        <ele>156</ele>
        <time>2013-02-10T10:28:20</time>
      </trkpt>
      <trkpt lat="43.347" lon="-0.52214">
        <ele>156</ele>
        <time>2013-02-10T10:28:25</time>
      </trkpt>
      <trkpt lat="43.34713" lon="-0.52234">
        <ele>157</ele>
        <time>2013-02-10T10:28:30</time>
      </trkpt>
      <trkpt lat="43.34725" lon="-0.52254">
        <ele>157</ele>
        <time>2013-02-10T10:28:35</time>
      </trkpt>
      <trkpt lat="43.34743" lon="-0.52275">
        <ele>157</ele>
        <time>2013-02-10T10:28:40</time>
      </trkpt>
      <trkpt lat="43.34763" lon="-0.52291">
        <ele>155</ele>
        <time>2013-02-10T10:28:45</time>
      </trkpt>
      <trkpt lat="43.34782" lon="-0.52303">
        <ele>156</ele>
        <time>2013-02-10T10:28:50</time>
      </trkpt>
      <trkpt lat="43.348" lon="-0.52314">
        <ele>158</ele>
        <time>2013-02-10T10:28:55</time>
      </trkpt>
      <trkpt lat="43.3482" lon="-0.52326">
        <ele>157</ele>
        <time>2013-02-10T10:29:00</time>
      </trkpt>
      <trkpt lat="43.3484" lon="-0.52333">
        <ele>157</ele>
        <time>2013-02-10T10:29:06</time>
      </trkpt>
      <trkpt lat="43.34862" lon="-0.52334">
        <ele>156</ele>
        <time>2013-02-10T10:29:11</time>
      </trkpt>
      <trkpt lat="43.34885" lon="-0.52334">
        <ele>156</ele>
        <time>2013-02-10T10:29:16</time>
      </trkpt>
      <trkpt lat="43.34905" lon="-0.52334">
        <ele>156</ele>
        <time>2013-02-10T10:29:21</time>
      </trkpt>
      <trkpt lat="43.34921" lon="-0.52333">
        <ele>157</ele>
        <time>2013-02-10T10:29:26</time>
      </trkpt>
      <trkpt lat="43.34947" lon="-0.5233">
        <ele>156</ele>
        <time>2013-02-10T10:29:31</time>
      </trkpt>
      <trkpt lat="43.34962" lon="-0.5233">
        <ele>156</ele>
        <time>2013-02-10T10:29:36</time>
      </trkpt>
      <trkpt lat="43.34974" lon="-0.52329">
        <ele>156</ele>
        <time>2013-02-10T10:29:41</time>
      </trkpt>
      <trkpt lat="43.34975" lon="-0.52329">
        <ele>156</ele>
        <time>2013-02-10T10:29:46</time>
      </trkpt>
      <trkpt lat="43.34975" lon="-0.52329">
        <ele>157</ele>
        <time>2013-02-10T10:29:51</time>
      </trkpt>
      <trkpt lat="43.34989" lon="-0.52327">
        <ele>158</ele>
        <time>2013-02-10T10:29:56</time>
      </trkpt>
      <trkpt lat="43.35006" lon="-0.52342">
        <ele>156</ele>
        <time>2013-02-10T10:30:01</time>
      </trkpt>
      <trkpt lat="43.35022" lon="-0.5236">
        <ele>156</ele>
        <time>2013-02-10T10:30:06</time>
      </trkpt>
      <trkpt lat="43.35039" lon="-0.52382">
        <ele>157</ele>
        <time>2013-02-10T10:30:11</time>
      </trkpt>
      <trkpt lat="43.35057" lon="-0.52405">
        <ele>155</ele>
        <time>2013-02-10T10:30:16</time>
      </trkpt>
      <trkpt lat="43.35073" lon="-0.52423">
        <ele>155</ele>
        <time>2013-02-10T10:30:21</time>
      </trkpt>
      <trkpt lat="43.35086" lon="-0.5245">
        <ele>155</ele>
        <time>2013-02-10T10:30:26</time>
      </trkpt>
      <trkpt lat="43.35103" lon="-0.52469">
        <ele>156</ele>
        <time>2013-02-10T10:30:31</time>
      </trkpt>
      <trkpt lat="43.35122" lon="-0.52492">
        <ele>156</ele>
        <time>2013-02-10T10:30:36</time>
      </trkpt>
      <trkpt lat="43.35141" lon="-0.52515">
        <ele>156</ele>
        <time>2013-02-10T10:30:41</time>
      </trkpt>
      <trkpt lat="43.35161" lon="-0.52537">
        <ele>155</ele>
        <time>2013-02-10T10:30:46</time>
      </trkpt>
      <trkpt lat="43.35177" lon="-0.52556">
        <ele>154</ele>
        <time>2013-02-10T10:30:51</time>
      </trkpt>
      <trkpt lat="43.35188" lon="-0.52578">
        <ele>155</ele>
        <time>2013-02-10T10:30:56</time>
      </trkpt>
      <trkpt lat="43.35204" lon="-0.526">
        <ele>154</ele>
        <time>2013-02-10T10:31:01</time>
      </trkpt>
      <trkpt lat="43.35221" lon="-0.52624">
        <ele>154</ele>
        <time>2013-02-10T10:31:06</time>
      </trkpt>
      <trkpt lat="43.35241" lon="-0.52643">
        <ele>155</ele>
        <time>2013-02-10T10:31:12</time>
      </trkpt>
      <trkpt lat="43.35263" lon="-0.52675">
        <ele>155</ele>
        <time>2013-02-10T10:31:17</time>
      </trkpt>
      <trkpt lat="43.35281" lon="-0.527">
        <ele>155</ele>
        <time>2013-02-10T10:31:22</time>
      </trkpt>
      <trkpt lat="43.35301" lon="-0.52729">
        <ele>155</ele>
        <time>2013-02-10T10:31:27</time>
      </trkpt>
      <trkpt lat="43.35323" lon="-0.52755">
        <ele>155</ele>
        <time>2013-02-10T10:31:32</time>
      </trkpt>
      <trkpt lat="43.35349" lon="-0.52789">
        <ele>154</ele>
        <time>2013-02-10T10:31:37</time>
      </trkpt>
      <trkpt lat="43.35368" lon="-0.52814">
        <ele>154</ele>
        <time>2013-02-10T10:31:42</time>
      </trkpt>
      <trkpt lat="43.35387" lon="-0.5284">
        <ele>153</ele>
        <time>2013-02-10T10:31:47</time>
      </trkpt>
      <trkpt lat="43.35407" lon="-0.52867">
        <ele>155</ele>
        <time>2013-02-10T10:31:52</time>
      </trkpt>
      <trkpt lat="43.35428" lon="-0.52894">
        <ele>154</ele>
        <time>2013-02-10T10:31:57</time>
      </trkpt>
      <trkpt lat="43.3545" lon="-0.52922">
        <ele>154</ele>
        <time>2013-02-10T10:32:02</time>
      </trkpt>
      <trkpt lat="43.3547" lon="-0.52944">
        <ele>152</ele>
        <time>2013-02-10T10:32:07</time>
      </trkpt>
      <trkpt lat="43.35491" lon="-0.5297">
        <ele>153</ele>
        <time>2013-02-10T10:32:12</time>
      </trkpt>
      <trkpt lat="43.35511" lon="-0.52998">
        <ele>152</ele>
        <time>2013-02-10T10:32:17</time>
      </trkpt>
      <trkpt lat="43.35525" lon="-0.53028">
        <ele>152</ele>
        <time>2013-02-10T10:32:22</time>
      </trkpt>
      <trkpt lat="43.35537" lon="-0.53064">
        <ele>153</ele>
        <time>2013-02-10T10:32:27</time>
      </trkpt>
      <trkpt lat="43.35546" lon="-0.53105">
        <ele>154</ele>
        <time>2013-02-10T10:32:32</time>
      </trkpt>
      <trkpt lat="43.35555" lon="-0.53146">
        <ele>153</ele>
        <time>2013-02-10T10:32:37</time>
      </trkpt>
      <trkpt lat="43.35564" lon="-0.53185">
        <ele>153</ele>
        <time>2013-02-10T10:32:42</time>
      </trkpt>
      <trkpt lat="43.35574" lon="-0.53227">
        <ele>153</ele>
        <time>2013-02-10T10:32:47</time>
      </trkpt>
      <trkpt lat="43.35582" lon="-0.53259">
        <ele>153</ele>
        <time>2013-02-10T10:32:52</time>
      </trkpt>
      <trkpt lat="43.35596" lon="-0.53291">
        <ele>152</ele>
        <time>2013-02-10T10:32:57</time>
      </trkpt>
      <trkpt lat="43.35611" lon="-0.53321">
        <ele>153</ele>
        <time>2013-02-10T10:33:02</time>
      </trkpt>
      <trkpt lat="43.35627" lon="-0.53349">
        <ele>152</ele>
        <time>2013-02-10T10:33:07</time>
      </trkpt>
      <trkpt lat="43.35644" lon="-0.5338">
        <ele>153</ele>
        <time>2013-02-10T10:33:12</time>
      </trkpt>
      <trkpt lat="43.3566" lon="-0.53408">
        <ele>153</ele>
        <time>2013-02-10T10:33:17</time>
      </trkpt>
      <trkpt lat="43.35675" lon="-0.53436">
        <ele>152</ele>
        <time>2013-02-10T10:33:23</time>
      </trkpt>
      <trkpt lat="43.35689" lon="-0.5347">
        <ele>153</ele>
        <time>2013-02-10T10:33:28</time>
      </trkpt>
      <trkpt lat="43.35699" lon="-0.53504">
        <ele>152</ele>
        <time>2013-02-10T10:33:33</time>
      </trkpt>
      <trkpt lat="43.35705" lon="-0.53549">
        <ele>151</ele>
        <time>2013-02-10T10:33:38</time>
      </trkpt>
      <trkpt lat="43.35712" lon="-0.53602">
        <ele>152</ele>
        <time>2013-02-10T10:33:43</time>
      </trkpt>
      <trkpt lat="43.35716" lon="-0.53644">
        <ele>151</ele>
        <time>2013-02-10T10:33:48</time>
      </trkpt>
      <trkpt lat="43.35719" lon="-0.53685">
        <ele>151</ele>
        <time>2013-02-10T10:33:53</time>
      </trkpt>
      <trkpt lat="43.35726" lon="-0.5372">
        <ele>152</ele>
        <time>2013-02-10T10:33:58</time>
      </trkpt>
      <trkpt lat="43.3574" lon="-0.53746">
        <ele>151</ele>
        <time>2013-02-10T10:34:03</time>
      </trkpt>
      <trkpt lat="43.35751" lon="-0.53771">
        <ele>151</ele>
        <time>2013-02-10T10:34:08</time>
      </trkpt>
      <trkpt lat="43.35762" lon="-0.53788">
        <ele>151</ele>
        <time>2013-02-10T10:34:13</time>
      </trkpt>
      <trkpt lat="43.35763" lon="-0.53789">
        <ele>150</ele>
        <time>2013-02-10T10:34:18</time>
      </trkpt>
      <trkpt lat="43.35763" lon="-0.53789">
        <ele>150</ele>
        <time>2013-02-10T10:34:23</time>
      </trkpt>
      <trkpt lat="43.35763" lon="-0.53789">
        <ele>150</ele>
        <time>2013-02-10T10:34:28</time>
      </trkpt>
      <trkpt lat="43.35763" lon="-0.53789">
        <ele>152</ele>
        <time>2013-02-10T10:34:33</time>
      </trkpt>
      <trkpt lat="43.35763" lon="-0.53789">
        <ele>150</ele>
        <time>2013-02-10T10:34:38</time>
      </trkpt>
      <trkpt lat="43.35763" lon="-0.53789">
        <ele>151</ele>
        <time>2013-02-10T10:34:43</time>
      </trkpt>
      <trkpt lat="43.35763" lon="-0.53789">
        <ele>168</ele>
        <time>2013-02-10T10:34:48</time>
      </trkpt>
      <trkpt lat="43.35763" lon="-0.53789">
        <ele>166</ele>
        <time>2013-02-10T10:34:53</time>
      </trkpt>
      <trkpt lat="43.35763" lon="-0.53789">
        <ele>162</ele>
        <time>2013-02-10T10:34:58</time>
      </trkpt>
      <trkpt lat="43.35763" lon="-0.53789">
        <ele>158</ele>
        <time>2013-02-10T10:35:03</time>
      </trkpt>
      <trkpt lat="43.35763" lon="-0.53789">
        <ele>157</ele>
        <time>2013-02-10T10:35:08</time>
      </trkpt>
      <trkpt lat="43.35763" lon="-0.53789">
        <ele>155</ele>
        <time>2013-02-10T10:35:13</time>
      </trkpt>
      <trkpt lat="43.35763" lon="-0.53789">
        <ele>150</ele>
        <time>2013-02-10T10:35:18</time>
      </trkpt>
      <trkpt lat="43.35763" lon="-0.53789">
        <ele>150</ele>
        <time>2013-02-10T10:35:23</time>
      </trkpt>
      <trkpt lat="43.35763" lon="-0.53789">
        <ele>150</ele>
        <time>2013-02-10T10:35:28</time>
      </trkpt>
      <trkpt lat="43.35763" lon="-0.53789">
        <ele>151</ele>
        <time>2013-02-10T10:35:33</time>
      </trkpt>
      <trkpt lat="43.35763" lon="-0.53789">
        <ele>150</ele>
        <time>2013-02-10T10:35:39</time>
      </trkpt>
      <trkpt lat="43.35763" lon="-0.53789">
        <ele>151</ele>
        <time>2013-02-10T10:35:44</time>
      </trkpt>
      <trkpt lat="43.35763" lon="-0.53789">
        <ele>150</ele>
        <time>2013-02-10T10:35:49</time>
      </trkpt>
      <trkpt lat="43.35763" lon="-0.53789">
        <ele>150</ele>
        <time>2013-02-10T10:35:54</time>
      </trkpt>
      <trkpt lat="43.35763" lon="-0.53789">
        <ele>151</ele>
        <time>2013-02-10T10:35:59</time>
      </trkpt>
      <trkpt lat="43.35763" lon="-0.53789">
        <ele>151</ele>
        <time>2013-02-10T10:36:04</time>
      </trkpt>
      <trkpt lat="43.35763" lon="-0.53789">
        <ele>151</ele>
        <time>2013-02-10T10:36:09</time>
      </trkpt>
      <trkpt lat="43.35763" lon="-0.53789">
        <ele>151</ele>
        <time>2013-02-10T10:36:14</time>
      </trkpt>
      <trkpt lat="43.35763" lon="-0.53789">
        <ele>150</ele>
        <time>2013-02-10T10:36:19</time>
      </trkpt>
      <trkpt lat="43.35763" lon="-0.53789">
        <ele>150</ele>
        <time>2013-02-10T10:36:24</time>
      </trkpt>
      <trkpt lat="43.35763" lon="-0.53789">
        <ele>150</ele>
        <time>2013-02-10T10:36:29</time>
      </trkpt>
      <trkpt lat="43.35763" lon="-0.53789">
        <ele>150</ele>
        <time>2013-02-10T10:36:34</time>
      </trkpt>
      <trkpt lat="43.35763" lon="-0.53789">
        <ele>150</ele>
        <time>2013-02-10T10:36:39</time>
      </trkpt>
      <trkpt lat="43.35763" lon="-0.53789">
        <ele>151</ele>
        <time>2013-02-10T10:36:44</time>
      </trkpt>
      <trkpt lat="43.35763" lon="-0.53789">
        <ele>151</ele>
        <time>2013-02-10T10:36:49</time>
      </trkpt>
      <trkpt lat="43.35763" lon="-0.53789">
        <ele>151</ele>
        <time>2013-02-10T10:36:54</time>
      </trkpt>
      <trkpt lat="43.35763" lon="-0.53789">
        <ele>151</ele>
        <time>2013-02-10T10:36:59</time>
      </trkpt>
      <trkpt lat="43.35763" lon="-0.53789">
        <ele>150</ele>
        <time>2013-02-10T10:37:04</time>
      </trkpt>
      <trkpt lat="43.35763" lon="-0.53789">
        <ele>150</ele>
        <time>2013-02-10T10:37:09</time>
      </trkpt>
      <trkpt lat="43.35763" lon="-0.53789">
        <ele>150</ele>
        <time>2013-02-10T10:37:11</time>
      </trkpt>
    </trkseg>
  </trk>
</gpx>